GFSWCAN_con_3kmhel_000.txt.gz
Helicity
63 63 59 60 51 55 49 49 43 43 37 33 42 56 77 88 107 89 79 110 90 111 159 136 110 97 105 92 74 62 96 72 83 76 58 52 64 62 89 68 60 84 100 84 114 77 50 108 111 114 123 126 101 85
71 81 79 79 63 60 57 55 51 48 44 36 43 56 76 91 103 125 111 117 128 100 100 119 122 135 139 119 112 123 87 88 73 89 81 91 93 97 95 78 85 91 92 81 78 74 106 159 132 124 104 88 65 55
128 99 94 82 70 67 59 56 51 48 54 50 49 64 73 84 102 112 122 133 125 122 138 128 158 166 142 153 123 123 114 91 107 95 102 110 110 96 91 78 96 111 75 93 117 129 169 84 98 64 26 13 -15 -23
114 118 104 76 95 75 65 59 49 44 45 47 47 52 77 83 81 131 135 165 151 127 125 134 142 149 168 143 141 115 84 124 121 151 136 119 98 67 72 94 103 80 94 104 88 88 111 135 91 9 -5 18 54 80
129 156 119 95 101 85 69 62 55 46 40 40 44 44 70 98 93 111 122 153 174 146 79 134 154 171 178 129 121 128 145 168 175 163 147 114 102 89 79 72 44 91 89 104 57 66 109 113 119 99 118 120 87 83
167 168 137 103 114 90 75 74 66 56 53 40 55 56 64 93 109 120 101 100 127 152 135 141 135 180 218 196 211 224 207 198 172 167 142 124 104 102 96 79 61 63 93 105 93 99 77 93 117 107 120 133 141 161
182 153 163 135 113 100 90 84 71 61 72 71 73 82 86 105 123 129 70 73 135 134 166 143 111 164 174 206 222 234 230 216 177 169 173 129 112 95 65 126 71 78 78 95 122 151 171 153 146 175 176 156 119 131
289 151 162 149 131 107 92 85 90 75 79 96 107 108 117 116 85 108 123 105 108 144 143 115 124 144 193 219 221 191 169 170 159 142 129 115 103 97 82 81 75 107 118 127 158 198 173 174 187 162 100 58 59 79
596 325 188 93 119 105 89 93 97 95 112 134 150 138 162 136 125 106 108 129 112 149 136 123 120 111 136 218 225 203 188 198 148 153 136 120 109 70 84 85 70 103 134 147 177 168 176 157 108 74 54 47 72 97
323 451 433 288 113 119 99 96 119 126 147 192 235 204 147 149 104 112 137 131 132 158 136 98 138 156 145 201 217 202 178 194 170 156 135 142 103 47 56 72 121 128 135 179 203 186 149 120 79 59 42 57 65 87
169 203 297 320 302 143 137 102 148 169 204 316 282 234 156 141 171 171 130 126 128 141 111 126 151 173 163 202 222 189 190 187 202 169 197 180 122 111 143 160 146 145 157 118 120 109 85 71 52 51 52 77 91 104
118 128 163 254 259 257 104 81 116 260 417 330 235 275 242 201 175 138 134 161 137 108 131 137 213 260 234 217 213 170 184 171 175 165 226 182 112 95 163 169 147 106 95 60 43 46 47 45 36 60 77 102 114 124
76 144 139 133 186 191 226 59 70 148 282 418 416 348 268 241 207 181 234 266 246 192 114 138 220 228 220 256 238 190 190 219 180 228 225 120 131 192 197 167 155 97 65 63 51 61 60 63 77 104 103 123 137 132
41 111 178 148 113 102 196 183 11 161 423 387 370 431 274 208 186 283 294 272 239 211 210 267 320 237 226 240 192 237 241 225 207 169 105 122 155 157 171 133 86 50 30 26 24 32 57 77 98 107 116 146 157 137
31 31 77 148 158 106 142 212 99 230 288 329 224 229 203 288 319 238 281 314 293 232 279 328 294 217 267 256 256 291 240 190 111 99 83 83 107 45 8 -1 11 28 59 72 78 83 84 100 122 127 144 149 145 158
27 28 34 75 122 146 204 174 209 203 230 213 273 274 272 279 305 280 251 277 264 291 339 366 368 338 337 259 251 248 243 158 90 73 41 55 42 20 21 12 21 63 80 88 96 98 96 117 127 136 162 152 149 152
30 38 40 32 73 137 192 180 190 186 172 184 281 244 194 223 215 235 249 219 189 319 463 467 435 352 236 242 264 177 146 116 39 6 1 10 46 37 31 42 62 75 97 112 120 111 109 116 152 179 161 171 154 152
34 38 71 22 76 110 189 172 200 191 197 196 251 265 276 214 237 263 238 205 243 314 350 404 312 393 355 306 258 165 33 32 67 94 104 88 72 54 55 66 78 106 113 108 115 113 134 163 163 162 176 182 194 193
36 27 53 71 54 59 184 170 173 209 228 203 191 238 249 235 248 234 233 234 238 221 228 311 332 315 229 125 90 47 54 90 111 100 106 88 58 54 66 93 120 142 122 132 115 115 135 137 150 167 166 186 186 187
23 34 35 80 91 86 203 145 95 188 193 162 196 273 317 407 370 236 195 214 216 239 275 270 201 147 120 86 17 10 56 77 95 108 101 67 62 83 96 127 139 166 160 152 137 153 187 183 180 171 179 181 182 181
30 41 22 6 70 86 147 85 111 99 75 215 225 279 268 247 276 280 225 168 198 206 195 110 91 89 72 37 71 108 112 101 104 112 102 90 86 120 142 160 184 178 155 134 130 149 173 171 162 174 191 181 176 161
43 55 41 43 123 99 70 106 102 124 153 153 166 204 195 143 173 184 153 156 166 124 97 94 84 75 116 137 121 91 86 96 91 100 104 132 154 164 169 165 188 169 158 139 152 163 189 176 172 179 173 166 169 149
54 53 66 77 102 157 119 98 107 121 132 150 199 165 144 157 158 169 172 136 115 79 74 84 89 94 87 78 82 87 88 93 102 112 128 152 174 182 196 170 172 185 181 175 182 195 180 178 170 162 162 155 142 125
95 68 62 101 145 139 161 140 123 158 167 160 149 161 134 158 145 129 82 52 49 86 93 104 97 89 89 103 98 103 115 104 116 141 155 179 197 173 186 188 186 187 183 182 189 181 170 169 161 149 140 124 111 109
86 105 71 92 130 150 147 135 114 66 80 77 110 106 76 103 99 88 82 73 81 93 104 116 120 118 107 124 131 126 140 148 141 152 153 149 188 202 221 215 215 214 165 167 147 151 151 144 138 122 105 98 98 94
71 63 61 53 60 59 71 86 58 75 81 93 102 111 120 98 83 60 47 40 66 85 89 96 109 129 128 127 120 112 105 107 113 133 151 168 172 184 178 167 165 168 128 120 131 132 126 111 102 98 95 98 102 114
71 67 69 66 65 73 72 68 68 60 70 76 62 89 104 89 64 65 57 56 79 72 52 44 40 47 59 58 52 67 85 122 150 166 180 205 205 173 157 138 113 95 99 111 110 103 94 87 89 86 84 96 104 97
71 59 44 55 72 73 72 90 83 83 83 74 99 97 64 61 78 55 47 47 38 33 43 52 40 34 48 56 67 86 120 145 171 184 212 264 250 217 167 130 102 110 97 79 74 77 75 73 75 79 92 98 92 89
92 94 134 81 88 69 47 44 36 44 52 62 71 86 87 102 80 81 84 76 68 59 62 66 58 55 77 103 119 124 138 142 126 153 169 142 118 113 105 104 108 103 96 95 97 84 65 74 89 91 79 74 71 80
54 105 120 96 79 47 45 50 54 73 114 120 112 112 116 115 94 88 90 94 82 61 39 34 34 50 60 82 102 154 154 113 89 92 101 81 71 74 77 85 93 84 80 84 83 81 99 106 94 87 84 77 79 71
80 102 144 122 79 89 94 94 102 96 106 111 129 110 77 46 71 90 104 98 85 80 81 94 97 78 85 99 118 134 138 122 124 113 108 108 87 75 74 72 67 64 71 78 85 91 93 93 87 83 81 73 70 66
84 53 23 -3 77 93 100 91 93 105 102 113 120 113 97 90 75 63 120 117 95 106 91 110 129 133 135 132 124 105 97 90 94 91 77 63 60 63 69 66 64 66 77 82 83 80 81 84 83 75 62 59 62 56
79 74 49 9 2 -1 42 73 64 62 92 97 109 119 130 115 89 80 98 134 123 127 137 140 138 135 133 127 122 116 112 112 106 97 63 46 60 65 62 62 64 68 74 77 75 82 81 68 61 53 58 52 48 52

GFSWCAN_con_3kmhel_003.txt.gz
Helicity
69 335 287 62 55 34 29 38 40 44 40 45 48 43 61 70 86 79 90 119 94 71 124 116 81 68 89 84 80 69 104 94 103 98 74 62 47 75 90 70 50 88 112 102 139 89 39 115 160 113 97 99 77 60
55 300 309 160 65 36 36 47 49 50 45 50 55 46 57 63 65 100 99 114 127 114 102 131 109 111 112 90 75 114 70 91 78 104 94 89 72 91 100 75 126 95 112 103 96 95 95 119 96 100 75 59 45 48
72 168 257 251 79 47 47 58 54 57 50 52 57 53 57 78 88 95 122 140 127 117 163 149 169 170 140 146 109 118 125 82 111 102 88 84 85 88 84 86 101 115 125 119 113 95 113 98 134 111 78 46 21 5
119 112 230 212 86 54 74 75 61 62 58 56 52 61 64 68 104 100 129 162 151 119 88 114 143 154 176 155 141 114 92 119 106 127 133 116 108 66 70 83 94 102 119 125 133 122 132 116 111 68 38 47 42 65
196 194 263 129 97 67 90 89 62 61 64 51 45 57 62 64 89 119 141 163 163 145 96 116 133 180 189 145 151 153 136 138 166 159 135 97 78 76 67 92 88 122 126 143 84 77 137 97 85 79 59 69 101 105
296 218 95 118 137 82 97 89 73 68 66 58 49 47 57 58 95 126 101 161 205 187 122 96 138 176 196 193 234 232 210 187 157 134 122 114 125 113 89 56 66 91 90 68 70 85 98 118 135 136 137 160 172 173
519 447 26 140 97 87 96 97 87 74 76 69 54 56 64 79 135 154 87 111 225 192 149 121 95 113 154 169 195 213 225 192 180 174 183 158 135 135 115 118 57 62 55 82 93 113 128 115 132 163 184 176 158 123
445 844 206 114 94 111 101 114 96 91 95 82 78 91 99 114 98 143 133 112 192 171 166 116 100 144 199 180 187 197 192 209 212 175 177 149 124 94 64 66 67 86 108 120 128 160 149 152 149 153 145 134 113 66
329 659 566 113 100 110 111 129 120 135 136 121 123 111 143 126 128 106 103 124 146 167 152 140 122 104 148 214 237 237 218 205 169 141 136 121 92 96 84 79 75 74 95 94 160 183 171 170 161 141 122 84 63 62
237 288 489 344 93 89 117 144 156 180 181 160 232 230 164 173 120 127 137 148 171 160 144 101 130 120 126 189 230 218 188 200 187 174 133 126 83 49 87 105 109 97 119 136 159 167 184 157 105 84 60 62 72 56
149 280 323 458 323 70 98 134 180 221 252 356 291 233 191 171 201 194 137 127 137 155 114 151 191 171 165 179 221 209 170 176 173 137 158 137 87 84 117 115 115 157 151 142 206 167 113 91 65 54 55 72 89 88
95 190 304 313 479 190 117 123 182 329 400 346 279 315 337 272 200 164 160 165 117 111 114 163 239 255 225 239 207 182 187 173 159 126 166 154 121 110 185 201 182 196 235 197 125 86 49 32 39 56 78 94 109 122
90 133 243 244 415 508 221 82 80 187 381 565 461 403 287 247 222 192 234 266 216 128 123 179 282 234 226 250 208 165 175 194 169 192 197 161 148 198 171 182 216 203 142 114 78 22 6 16 35 72 78 103 116 138
88 115 174 208 245 389 422 340 122 214 453 448 454 496 335 213 173 286 253 220 212 187 205 259 342 258 242 258 196 187 199 177 202 214 180 177 170 186 193 217 192 102 74 68 40 28 29 48 64 80 94 113 132 130
63 109 124 119 194 175 246 352 396 188 251 311 320 353 320 323 364 268 282 314 306 238 318 418 405 261 278 255 244 219 148 154 148 190 189 157 160 164 170 141 112 87 63 48 85 100 86 77 93 95 102 121 136 152
32 76 84 119 161 92 168 217 237 246 193 206 274 276 237 307 334 298 283 297 318 330 402 398 310 288 278 232 194 182 203 174 196 215 136 119 154 168 169 115 61 53 81 92 93 99 106 111 110 115 133 143 153 176
14 28 79 102 91 80 144 132 181 207 194 131 188 201 188 194 171 215 230 262 264 286 426 377 333 305 238 238 288 269 303 304 216 191 149 110 129 109 92 92 92 96 94 88 104 108 115 130 137 156 141 158 170 170
33 33 70 53 78 106 143 159 202 189 159 170 141 150 161 172 160 222 194 210 304 339 364 396 314 348 305 260 291 362 327 322 271 202 147 107 87 95 112 95 99 95 85 89 112 124 147 150 145 139 139 165 188 190
37 24 41 53 75 76 200 181 205 232 205 171 140 184 205 222 276 218 229 326 309 282 294 341 313 357 350 310 321 258 209 158 141 103 102 100 90 100 108 117 113 111 110 136 146 146 147 140 149 151 160 177 179 175
25 18 20 17 70 66 166 170 160 194 277 258 259 316 308 294 307 304 384 358 318 360 376 365 344 285 282 230 147 146 112 90 117 132 119 83 96 121 102 98 89 102 146 173 172 161 169 177 180 180 179 182 183 179
34 25 32 16 72 69 75 106 226 144 141 265 261 302 414 350 336 339 347 297 310 295 247 187 187 190 143 102 97 103 95 77 67 62 54 79 125 113 108 109 118 146 163 158 164 148 162 173 182 192 211 198 172 168
32 39 35 37 59 62 91 45 135 142 192 191 317 313 290 329 380 397 332 384 354 269 194 181 160 110 117 118 104 77 77 57 64 102 116 106 104 99 91 97 146 152 173 161 157 150 195 202 208 209 190 173 167 148
36 28 33 50 58 84 96 64 118 175 177 191 236 339 331 290 236 230 240 201 192 188 155 125 117 115 92 81 100 128 148 146 126 106 97 100 120 132 152 161 170 179 188 191 192 210 208 203 207 187 164 152 145 135
59 41 54 82 110 111 124 162 123 111 177 122 148 225 232 198 170 169 158 135 122 138 145 161 155 136 143 149 133 111 103 87 90 107 120 123 141 158 176 192 196 203 197 204 225 221 212 195 178 150 143 127 115 98
58 82 44 66 77 110 139 166 153 101 120 151 196 206 180 168 178 162 138 151 172 128 118 107 105 98 81 90 93 97 132 122 106 105 127 123 151 178 204 210 224 226 190 211 189 187 176 150 139 129 113 95 90 85
66 46 44 28 54 66 92 114 104 93 70 110 115 82 98 105 146 148 72 69 88 89 93 97 98 109 134 133 109 106 104 103 97 107 123 140 136 157 171 196 201 216 194 171 164 151 135 125 113 106 93 89 91 88
51 33 30 31 24 32 62 86 68 57 45 32 28 39 48 65 69 59 64 76 98 96 100 120 138 119 79 69 63 71 76 93 108 121 149 195 218 200 179 171 168 163 146 140 124 112 99 90 88 82 73 76 81 79
54 45 32 24 46 42 32 46 58 62 60 65 85 91 47 50 92 103 102 75 111 118 110 95 71 44 29 28 41 70 107 112 135 159 217 281 265 236 204 176 141 137 109 92 87 81 77 77 73 67 72 76 85 89
52 57 90 53 57 40 27 33 34 45 54 66 82 106 107 108 90 73 53 45 48 46 48 27 35 49 72 87 104 105 98 96 101 135 167 166 166 166 132 126 115 110 100 101 97 81 60 61 56 68 73 77 76 82
-1 36 82 79 61 38 33 31 36 57 89 96 92 97 96 83 62 67 83 96 93 97 87 77 72 87 80 98 105 131 135 133 123 121 127 128 114 79 76 84 85 80 83 89 89 80 80 84 84 93 93 88 83 76
55 58 47 35 54 74 86 89 94 84 89 95 109 106 102 79 90 101 114 115 108 99 100 102 100 87 86 94 106 106 130 149 137 110 110 116 100 82 78 78 71 69 78 83 82 76 74 80 92 86 81 77 66 62
56 53 48 15 -17 105 116 101 89 80 69 62 82 96 91 92 85 77 103 101 100 106 93 104 109 100 118 131 130 118 125 118 121 110 95 82 79 75 74 70 69 68 76 78 72 68 75 77 72 65 51 53 64 61
27 48 42 23 44 43 74 99 86 68 85 85 88 91 95 91 66 68 83 123 115 116 130 132 139 145 152 158 162 153 140 132 108 83 34 42 61 69 71 67 63 70 72 62 61 70 70 66 56 55 57 53 47 39

GFSWCAN_con_3kmhel_006.txt.gz
Helicity
85 117 79 129 331 298 120 38 40 43 39 37 32 30 40 43 63 73 71 86 84 38 68 84 89 68 81 56 67 79 121 69 65 69 36 33 34 47 63 57 49 69 98 81 125 60 11 169 208 140 121 156 146 119
87 113 91 99 285 326 192 59 49 44 43 39 35 32 39 43 68 78 86 93 114 86 60 119 118 120 98 69 59 142 71 89 55 80 65 55 42 63 77 54 108 92 115 86 101 97 160 116 124 158 114 88 63 60
85 101 134 23 266 311 294 69 44 47 46 46 34 32 38 50 60 80 100 106 127 108 119 121 158 165 142 127 85 84 87 58 87 95 68 80 68 100 61 63 100 104 131 131 134 126 153 176 176 126 90 74 64 62
69 115 154 65 224 306 273 75 41 56 53 46 33 42 42 56 60 95 114 125 127 113 99 118 133 159 190 169 118 99 81 110 110 122 110 89 75 65 72 89 95 100 124 126 145 144 158 118 127 110 123 109 84 80
74 167 230 175 286 323 149 79 66 74 61 50 48 52 42 54 68 110 127 141 135 135 89 126 134 169 182 156 169 155 142 149 153 150 144 131 131 108 119 114 93 87 100 137 84 83 133 84 116 128 121 107 101 80
78 192 328 265 286 214 25 82 90 89 70 75 68 50 46 61 83 129 139 133 163 161 114 92 162 188 191 184 221 225 205 189 170 153 140 138 133 119 76 41 63 45 101 157 182 144 167 146 147 127 102 96 108 119
67 205 419 347 322 136 73 104 116 91 81 85 67 52 58 83 97 145 109 128 212 169 139 113 88 150 195 200 200 218 206 180 164 151 167 143 134 124 104 55 21 41 46 88 101 151 171 111 97 116 107 96 110 107
54 153 405 343 300 75 110 132 114 92 86 79 70 76 116 117 105 136 151 135 205 210 183 120 111 135 185 180 215 224 192 200 208 156 147 144 149 146 68 51 79 139 181 163 151 128 106 116 113 109 113 111 106 98
43 113 331 441 485 94 124 110 111 102 89 98 106 110 164 154 134 89 82 166 175 167 145 118 105 77 161 199 204 229 206 157 157 139 145 141 169 128 95 64 67 39 78 92 151 152 130 112 88 98 101 88 107 94
24 96 264 396 423 146 150 113 96 121 135 138 202 261 198 184 129 158 142 149 170 168 156 104 141 132 114 183 223 223 210 189 131 143 157 137 133 177 152 72 43 58 100 107 136 116 116 149 123 121 111 99 62 54
26 108 189 346 500 390 129 120 113 185 198 321 288 227 194 217 191 175 157 163 154 152 115 139 166 167 164 155 182 182 164 181 158 139 145 116 98 110 173 164 107 114 133 135 110 133 149 152 141 121 81 44 46 68
32 92 135 262 381 545 59 93 110 334 378 286 254 346 311 238 188 188 177 194 136 127 122 156 237 239 219 207 193 195 186 158 143 132 154 129 100 91 90 112 172 212 188 151 144 146 141 117 78 45 29 39 53 73
49 70 105 133 356 534 83 118 135 209 331 557 413 374 228 216 188 181 164 218 244 188 124 180 256 235 230 215 185 150 121 125 160 172 162 111 99 105 119 158 203 153 118 133 155 143 97 63 45 28 31 52 72 93
53 36 93 83 273 538 215 138 91 257 604 430 398 370 217 173 203 195 175 153 182 164 177 223 281 167 183 185 129 120 164 151 151 183 148 130 79 115 140 151 142 102 94 120 106 108 83 50 40 51 62 75 91 101
45 29 50 57 145 305 651 317 208 266 350 342 360 377 305 275 258 236 217 230 249 182 304 375 383 250 267 180 168 187 144 150 118 152 174 134 125 174 186 155 119 107 96 95 90 78 67 82 92 84 74 74 95 119
42 5 19 98 88 135 333 519 377 305 251 238 302 286 286 299 264 269 231 213 279 294 398 371 291 245 227 225 239 204 192 134 102 85 105 169 185 185 156 99 81 89 82 78 85 101 106 102 93 87 94 98 109 131
7 -10 47 22 59 88 144 247 293 211 215 271 246 263 189 202 217 201 188 240 242 294 423 360 257 200 193 192 239 207 209 148 117 148 141 139 107 79 78 86 82 78 80 88 108 108 113 118 114 113 99 114 135 156
4 3 19 24 68 85 112 158 219 197 185 159 199 183 200 212 149 129 185 231 297 384 369 344 256 234 208 168 166 220 244 294 309 247 183 182 146 110 86 96 82 88 103 121 119 120 125 121 112 102 115 142 197 210
13 6 6 15 46 112 145 164 193 224 211 171 158 176 155 137 170 176 203 227 274 296 276 282 246 216 213 202 231 312 355 354 304 259 214 164 125 117 116 108 103 105 115 108 107 117 129 122 126 138 154 185 215 203
19 13 22 22 37 91 183 165 166 186 165 167 171 197 226 212 212 209 287 336 323 299 257 228 229 221 306 352 343 335 295 252 236 222 180 132 108 112 107 93 87 115 130 135 140 146 154 161 173 180 180 191 198 195
32 19 33 25 49 40 117 145 200 183 155 167 199 208 220 292 270 248 303 317 292 257 257 259 282 299 283 274 228 182 149 126 119 107 94 88 96 112 111 137 128 121 125 122 129 143 164 169 172 194 206 209 196 181
11 31 23 38 68 71 74 71 122 169 209 198 255 243 215 220 256 320 384 369 355 421 367 351 309 217 193 185 155 156 128 119 109 90 84 79 94 102 123 104 104 111 126 121 132 156 184 189 205 207 199 189 182 156
17 29 36 51 100 115 106 73 117 147 219 234 241 278 299 326 334 321 359 361 346 388 354 332 299 239 179 172 165 181 160 107 75 78 109 121 141 123 107 105 98 101 123 150 154 176 179 195 205 195 180 167 138 124
37 34 71 92 105 108 82 133 136 96 116 221 265 310 347 315 319 281 249 271 269 235 232 225 153 165 189 180 149 133 151 150 144 160 146 110 110 116 113 118 129 149 148 165 202 216 213 204 201 174 148 123 111 103
35 55 59 104 90 98 111 120 151 156 86 79 174 230 310 326 284 273 229 193 175 170 176 191 191 186 161 169 157 172 202 160 115 97 103 95 104 119 146 162 182 191 173 211 206 207 196 179 161 143 117 102 98 96
27 15 35 33 37 74 110 115 145 135 111 137 110 121 145 150 189 185 167 132 118 139 161 164 165 187 189 148 119 109 105 95 74 82 92 102 97 97 105 133 159 186 179 171 172 163 151 132 117 105 100 103 109 99
21 8 6 6 24 40 31 53 69 86 122 109 101 145 153 185 181 155 112 121 117 97 103 123 142 155 131 108 92 89 86 92 93 93 102 129 143 133 128 124 121 137 146 156 137 113 98 90 87 87 91 87 72 66
25 26 19 19 30 24 33 56 48 47 46 55 69 72 73 113 130 74 87 91 102 112 142 156 153 130 104 86 74 65 80 77 97 122 169 228 219 212 207 201 167 152 129 106 84 74 74 74 75 80 86 86 85 88
29 39 67 34 41 34 17 27 38 42 47 53 73 87 93 127 125 140 128 114 92 84 113 114 119 87 72 53 47 51 41 37 41 55 91 116 119 159 165 161 147 124 106 102 92 75 61 66 63 78 78 71 70 77
-0 27 59 57 47 26 33 27 40 50 66 66 64 79 97 105 94 84 75 77 71 65 61 64 45 33 -3 9 31 79 90 75 80 81 76 65 79 97 108 109 100 91 88 89 91 91 94 94 92 89 76 73 73 65
23 32 27 5 25 68 68 82 75 75 79 81 98 86 84 70 85 81 84 91 86 75 72 69 67 53 51 50 64 80 95 105 106 111 118 134 122 104 92 81 72 71 80 88 90 84 82 82 70 69 72 69 52 64
56 67 73 51 57 98 105 111 109 103 94 76 89 89 91 101 100 89 109 112 124 141 127 102 106 94 91 109 119 116 129 128 155 143 128 112 100 82 73 68 70 78 88 87 81 77 75 75 69 61 45 47 53 55
44 56 50 29 28 24 74 91 65 34 57 57 54 51 52 65 49 64 75 102 92 91 111 124 144 167 188 194 183 162 160 150 111 75 76 79 75 76 74 74 76 79 78 75 75 66 73 66 50 43 46 46 48 55

GFSWCAN_con_3kmhel_009.txt.gz
Helicity
42 49 71 97 87 10 177 311 286 60 20 31 42 28 34 29 40 71 68 57 63 53 76 64 67 62 67 58 43 37 101 68 89 47 43 71 27 85 122 115 121 139 129 112 127 106 43 136 154 121 98 169 198 198
60 50 65 93 79 29 194 270 306 74 12 37 48 35 33 35 38 63 78 71 73 83 69 88 86 91 88 61 48 122 45 105 25 42 42 78 68 61 45 44 110 90 125 102 103 81 105 135 149 177 124 118 120 132
66 60 82 78 79 17 155 294 278 171 32 43 47 40 36 39 39 59 84 82 103 104 127 118 121 123 121 111 86 62 80 45 55 62 40 40 38 50 39 39 72 81 96 110 107 108 117 130 206 167 150 152 131 114
57 78 78 61 97 108 179 220 269 210 55 48 44 39 46 47 45 65 85 84 98 100 100 122 134 130 165 148 100 93 69 89 88 80 51 25 37 32 32 45 56 72 95 104 124 137 177 172 194 192 201 172 159 143
48 82 62 57 124 68 251 348 242 87 57 58 57 50 54 55 52 84 79 88 92 92 78 133 140 174 177 132 129 135 135 128 114 106 97 76 89 82 86 89 67 70 72 89 53 75 154 130 195 190 189 156 127 91
46 91 48 68 142 164 253 325 173 48 85 72 67 63 61 59 64 114 94 85 109 121 80 85 149 182 198 194 206 195 174 168 155 133 113 105 99 100 76 77 88 94 95 111 89 168 216 274 265 217 187 133 109 111
46 85 35 83 169 271 231 226 125 103 102 85 76 73 73 93 129 146 137 123 154 143 129 110 97 132 176 204 198 220 198 180 166 154 155 129 130 154 135 117 95 94 107 108 105 215 276 203 175 173 139 109 102 89
46 83 27 86 193 301 250 208 90 127 98 88 90 94 106 111 111 124 127 133 181 160 159 112 111 131 197 172 190 223 189 198 201 159 149 154 160 162 77 100 169 180 195 182 149 182 150 178 165 131 102 89 74 78
47 75 22 79 190 277 326 134 179 128 116 109 113 112 167 152 141 134 107 122 119 144 152 124 107 70 148 190 201 206 215 195 170 170 172 153 164 126 93 126 138 115 114 153 227 254 212 161 109 88 82 70 74 83
38 76 25 66 176 243 482 135 139 142 140 122 212 269 207 173 148 166 176 156 169 151 147 126 151 165 141 174 198 182 170 150 119 136 149 140 158 182 192 161 139 38 51 152 222 168 134 122 78 63 58 82 91 92
36 77 29 73 175 259 688 148 157 153 173 327 365 281 239 226 197 172 171 170 155 175 130 129 153 181 162 153 164 153 140 149 127 120 153 111 102 130 248 281 237 123 85 92 113 99 69 74 61 78 80 69 56 42
23 69 22 51 162 256 472 246 192 238 354 342 285 320 298 239 192 196 206 208 160 155 120 168 234 209 195 189 172 170 153 133 109 112 113 84 72 112 134 198 223 177 168 155 127 111 123 114 90 82 70 60 39 34
18 50 24 35 124 201 403 93 128 222 238 444 394 349 294 252 219 212 232 307 280 149 182 212 277 237 238 194 183 146 121 112 135 108 92 71 51 39 61 127 165 149 179 187 148 133 108 85 83 85 64 38 40 57
13 31 14 25 84 216 405 157 207 373 527 394 407 386 253 221 244 220 225 233 223 168 192 269 292 175 179 196 140 170 178 152 148 119 77 69 45 78 87 76 186 150 122 116 112 101 89 82 66 54 46 44 60 64
15 19 16 22 47 198 439 489 277 366 339 304 315 337 268 215 222 280 249 228 246 168 264 347 295 198 217 157 127 140 150 149 98 60 35 42 106 129 114 91 87 90 91 93 83 74 64 63 71 80 81 82 80 86
9 -14 1 37 76 149 340 527 327 276 259 261 271 265 252 275 251 232 244 254 220 202 316 293 189 152 159 146 144 141 156 111 89 39 9 100 140 109 90 94 85 66 57 67 69 69 77 93 106 110 109 99 86 95
-21 -36 42 57 88 111 200 289 263 254 168 165 239 252 215 281 222 213 179 162 196 253 347 255 219 163 162 147 161 128 131 123 91 36 26 80 121 128 112 98 75 63 59 57 67 92 122 137 125 116 113 102 92 100
-26 -20 26 54 45 90 144 200 223 237 227 184 200 212 286 208 254 250 209 198 265 327 296 281 236 223 189 146 132 105 96 112 107 100 174 259 252 181 122 95 66 68 77 85 115 135 155 147 131 111 102 90 130 151
-14 -17 12 59 42 90 151 187 207 256 270 234 219 207 221 243 221 113 134 231 289 290 245 261 219 186 196 157 109 116 123 173 230 299 356 265 189 144 100 73 64 68 82 96 116 143 143 130 113 90 87 101 139 154
5 19 33 41 32 81 155 156 154 220 228 213 209 251 262 195 165 160 175 182 189 212 227 233 235 169 150 161 139 139 167 177 276 310 274 213 146 99 92 74 75 90 120 148 168 158 140 138 127 114 121 137 170 185
15 3 12 30 29 49 95 155 171 159 167 200 184 196 220 240 220 176 173 166 149 191 169 146 180 230 238 232 238 250 288 240 255 210 171 157 123 106 99 109 120 146 155 161 163 155 144 123 115 152 177 184 180 176
-19 21 -7 22 58 77 78 108 139 150 167 168 210 202 191 216 215 215 226 224 215 214 163 207 243 264 305 324 309 307 267 249 223 190 180 139 119 111 113 122 153 172 186 146 122 123 129 141 171 183 181 178 182 163
-8 4 5 45 86 119 109 90 134 179 197 199 197 212 221 234 233 257 274 266 235 288 339 357 361 361 332 311 278 272 236 187 184 158 133 121 119 130 151 176 153 141 140 130 124 145 154 164 175 183 177 173 161 151
2 -4 36 66 85 106 108 134 122 140 168 225 235 262 287 249 270 241 269 284 342 412 484 448 376 363 323 279 244 210 185 127 126 138 116 126 152 173 168 149 127 120 109 128 167 182 185 186 182 171 153 144 131 117
6 9 26 88 86 91 111 138 142 142 171 182 205 230 266 283 272 272 275 306 363 400 437 419 339 292 238 220 175 156 143 90 103 134 171 154 147 142 143 131 129 132 117 166 166 175 179 175 160 147 129 110 99 103
12 -11 16 38 76 77 95 140 154 155 121 107 141 169 221 232 247 244 264 278 271 253 238 209 182 185 190 151 132 137 138 129 116 146 129 102 80 74 76 91 107 128 122 146 162 156 150 135 125 112 103 101 108 104
20 -1 -11 -5 32 48 37 56 70 131 154 156 128 155 172 225 226 232 205 222 199 165 151 148 137 132 123 132 141 138 124 117 109 96 93 111 116 98 95 93 103 124 135 147 146 132 117 101 93 85 87 81 69 69
16 10 17 5 28 32 56 44 60 84 71 64 72 162 187 193 180 136 148 122 133 132 144 158 168 153 140 134 114 98 111 100 116 127 156 201 191 189 182 186 179 174 159 137 123 109 95 86 84 80 79 74 69 67
13 16 36 35 34 29 19 38 66 73 83 60 74 76 80 79 75 87 95 101 106 109 122 126 145 132 132 123 110 98 70 56 65 67 78 83 112 149 171 177 165 147 130 113 99 82 79 77 79 79 73 68 66 70
5 22 33 40 32 20 27 29 34 39 57 60 63 81 108 118 117 125 115 110 100 96 91 90 90 96 87 87 81 82 76 66 55 56 48 40 45 73 108 133 128 114 102 104 106 112 108 104 95 89 86 82 75 75
51 78 87 69 47 51 54 72 69 58 57 60 77 64 67 63 86 106 106 101 87 78 83 83 93 86 75 68 60 58 46 53 57 68 76 119 130 111 107 100 88 88 94 97 98 95 90 86 78 89 91 81 66 64
60 78 86 67 37 53 63 85 92 89 86 72 74 69 71 72 74 75 97 91 90 80 68 57 63 53 53 60 54 46 69 88 110 115 133 141 127 110 95 82 76 77 84 87 86 85 78 76 79 71 59 51 50 49
72 64 58 57 48 46 64 86 88 88 99 82 72 69 72 74 57 47 50 74 68 67 74 74 85 98 96 104 120 139 156 140 113 117 115 108 96 83 74 67 70 75 79 80 77 75 76 76 55 41 39 41 39 46

GFSWCAN_con_3kmhel_012.txt.gz
Helicity
-4 21 55 60 70 62 55 115 12 234 240 309 38 9 28 33 40 85 71 43 58 41 41 39 36 50 82 53 70 82 119 122 98 114 115 154 70 95 101 99 98 77 73 56 76 67 39 66 97 67 97 84 83 140
-11 16 55 72 83 58 66 102 34 270 317 326 37 9 31 36 33 75 76 63 59 59 65 42 40 53 53 82 62 107 70 62 60 96 73 41 50 93 64 94 123 122 117 85 64 60 73 91 109 114 61 87 125 173
-16 16 53 96 85 66 64 114 61 217 255 295 55 21 40 44 29 68 78 89 90 70 72 77 68 77 87 68 60 56 37 34 56 63 87 113 71 70 101 82 103 100 121 91 103 85 98 104 133 147 137 167 164 161
-19 18 47 87 107 70 61 136 95 242 268 201 52 30 48 47 32 70 88 74 96 95 99 87 75 84 118 99 52 58 57 103 95 72 53 42 46 35 33 49 76 114 111 103 107 98 119 126 148 178 204 210 213 178
-15 16 49 83 111 71 69 168 135 248 310 122 43 50 57 47 39 85 81 79 78 117 81 105 111 117 135 111 82 64 84 114 97 70 44 35 42 29 57 71 56 73 87 94 59 59 99 83 164 201 232 213 182 159
-18 12 43 83 91 72 85 165 214 252 160 95 55 62 69 50 62 107 84 71 70 97 96 95 135 130 154 150 164 155 138 131 119 96 81 71 69 68 28 34 62 66 74 94 82 96 139 189 244 247 274 217 185 149
-23 13 38 88 67 82 110 202 232 284 198 51 80 78 77 51 119 123 148 108 120 155 131 99 80 144 158 146 160 174 170 148 131 118 121 101 101 104 87 81 65 89 115 140 151 221 207 200 209 234 227 203 169 134
-19 18 33 77 68 94 146 243 272 196 86 102 92 104 93 99 94 75 114 138 148 149 208 130 110 118 145 168 185 180 154 160 180 153 140 130 119 125 66 86 166 187 209 187 191 172 159 235 273 239 190 137 119 92
-17 20 31 75 60 105 164 255 266 274 158 122 136 140 181 151 134 114 101 105 159 129 124 130 96 88 140 176 176 166 159 160 142 142 158 116 147 125 90 100 108 155 148 161 232 244 262 278 231 161 130 102 84 72
-16 16 30 73 57 112 150 275 489 164 161 159 264 320 242 192 134 99 173 151 140 162 129 136 174 165 141 185 194 180 203 171 139 152 133 138 145 144 158 113 133 127 139 215 273 263 242 179 112 95 79 74 74 73
-23 11 33 60 45 95 143 330 249 223 198 381 372 345 240 230 206 214 184 198 196 207 145 135 152 179 166 174 179 170 138 155 143 125 134 99 76 76 168 241 237 222 165 102 114 120 84 98 82 76 80 77 75 73
-22 0 35 40 45 79 120 274 349 251 304 328 358 353 298 250 203 174 174 198 141 150 119 196 257 200 179 194 169 173 164 117 98 103 88 66 39 68 112 195 226 201 145 106 114 128 102 95 91 93 88 76 71 76
-24 -3 36 38 55 76 103 304 365 263 282 420 437 336 289 209 208 153 208 280 249 125 159 189 297 257 233 187 170 125 119 134 117 95 79 61 63 59 95 165 203 192 156 146 183 162 127 127 103 85 88 88 84 82
-30 2 22 38 55 80 133 387 176 284 524 436 491 438 297 248 243 226 254 249 252 179 169 311 351 233 232 212 141 149 161 127 128 105 64 67 57 77 97 127 188 151 126 154 143 105 98 82 90 94 98 90 80 73
-26 14 4 18 55 95 125 512 391 324 462 448 405 345 300 279 254 308 235 257 288 204 310 327 309 197 256 196 178 174 150 131 99 95 89 60 58 97 118 128 168 161 136 123 92 80 74 84 100 117 113 104 95 91
-16 -13 -41 72 71 104 142 456 443 342 260 331 310 278 268 294 255 237 284 246 235 240 341 312 218 204 212 198 188 176 175 122 121 73 56 49 80 113 110 124 127 121 95 78 67 76 93 102 106 121 122 106 88 79
-37 -41 21 93 84 105 111 320 349 231 169 186 255 245 214 276 223 198 197 238 212 265 356 276 222 188 136 144 143 144 150 154 132 84 59 68 115 141 134 134 118 104 97 93 86 85 99 117 134 129 120 113 113 122
-45 -8 30 91 79 85 127 216 307 247 194 180 165 165 228 211 244 260 248 213 276 327 268 221 190 189 137 104 87 82 108 145 137 117 134 168 203 185 149 137 121 107 100 90 91 94 100 120 140 147 146 127 140 140
-28 -11 29 79 69 91 145 192 224 238 229 215 178 172 188 206 250 269 325 319 316 324 244 229 164 158 169 119 93 74 87 115 165 219 251 244 221 181 164 140 119 106 90 77 65 81 115 141 153 138 122 106 125 117
-15 -7 30 56 46 86 138 168 176 169 221 274 261 261 212 217 213 197 287 400 401 373 328 323 275 210 151 153 124 106 111 179 304 369 320 262 229 203 154 112 90 84 90 96 113 133 161 193 178 148 127 123 133 142
-42 -22 14 23 28 60 110 188 200 171 203 236 298 278 231 216 217 171 205 224 203 198 189 166 141 141 162 136 120 127 207 215 243 201 172 193 173 139 117 98 76 68 80 83 112 151 179 175 149 136 142 157 163 170
-44 -24 -3 20 38 64 69 121 167 163 207 220 231 232 287 298 261 191 160 182 181 166 135 130 133 165 205 256 269 258 229 234 272 244 223 168 139 127 114 87 80 102 118 130 160 178 168 141 135 145 159 174 180 177
-18 -23 -5 39 78 91 96 107 148 176 192 218 222 239 247 210 205 238 263 239 198 200 206 235 231 232 238 267 301 343 321 273 264 220 179 163 150 133 120 127 117 135 179 193 160 151 148 147 157 174 182 188 180 174
5 -11 18 63 85 104 97 120 124 155 159 189 207 228 255 240 258 228 206 218 227 227 244 258 232 271 292 305 319 312 282 206 188 197 161 132 141 153 140 170 193 192 162 145 151 161 161 168 181 189 183 178 164 145
5 -5 12 69 81 104 115 131 148 145 160 172 189 210 230 234 234 220 215 210 253 334 327 295 301 301 286 299 291 282 265 198 167 154 143 106 100 152 192 189 176 149 114 143 141 154 170 179 179 171 160 146 133 117
27 -14 6 19 73 86 93 144 164 175 165 160 167 181 187 206 226 216 197 249 273 347 401 391 361 365 379 322 254 226 183 147 142 165 150 115 116 118 117 119 114 108 97 109 144 158 172 162 152 141 131 118 106 95
37 15 -5 -3 27 47 52 57 83 157 193 178 155 189 210 216 214 175 191 279 302 358 349 325 305 284 247 217 191 175 144 126 121 120 125 136 123 89 80 81 83 94 109 134 148 148 144 128 117 106 97 83 80 81
31 27 13 4 15 30 47 42 68 117 139 127 136 176 181 201 186 205 206 202 195 183 193 227 236 210 187 165 133 119 134 129 143 144 152 174 153 138 134 142 151 161 165 155 145 131 114 99 88 80 80 84 82 78
31 22 33 20 10 10 28 55 59 52 62 57 79 92 105 93 92 131 150 158 164 156 170 173 184 145 141 132 124 117 103 85 73 91 114 111 108 140 157 171 172 166 152 135 130 112 98 87 81 81 82 77 75 75
42 30 55 52 40 6 7 15 26 29 50 58 55 64 87 82 82 86 81 78 85 93 93 85 86 80 70 65 67 77 79 71 61 55 61 56 70 100 123 145 148 132 115 113 111 116 105 98 89 84 86 81 85 86
35 49 46 38 34 39 43 55 50 39 38 54 76 81 89 79 83 94 99 91 80 69 62 67 77 69 62 62 70 71 76 72 70 68 85 129 139 126 124 125 115 105 101 100 97 93 86 83 82 80 80 87 78 64
42 38 48 45 31 38 53 62 70 63 62 50 56 55 66 73 83 88 106 100 89 79 87 74 78 78 83 95 91 87 88 84 83 88 115 141 134 123 116 110 96 90 91 90 85 82 78 75 76 77 72 55 44 44
47 36 23 23 27 24 29 47 45 56 76 73 78 78 75 75 65 73 84 108 100 103 105 102 108 113 119 126 135 134 128 105 86 105 128 133 125 112 98 83 76 75 78 77 76 72 66 70 65 51 35 36 37 39

GFSWCAN_con_3kmhel_015.txt.gz
Helicity
29 -36 -18 26 53 61 59 72 81 56 91 243 221 325 45 29 24 84 57 58 84 34 19 31 39 37 55 58 82 54 118 98 99 120 132 147 104 82 68 47 98 164 177 105 65 70 22 52 56 70 57 45 36 55
19 -30 -23 23 47 77 81 73 76 92 139 319 210 270 48 31 31 69 55 63 68 52 54 26 26 35 30 46 75 96 96 108 75 92 132 127 117 115 88 55 82 92 79 80 73 42 47 50 106 91 58 48 58 96
20 -21 -22 22 43 72 103 72 92 111 136 262 295 245 40 27 24 61 72 90 110 47 36 43 32 32 44 34 37 91 87 57 88 106 132 122 70 61 109 88 83 67 124 106 74 53 54 45 88 76 88 95 106 112
16 -14 -28 15 35 73 107 80 94 123 141 253 205 264 35 36 34 87 81 70 102 61 63 59 59 39 59 30 -3 40 55 21 51 48 120 157 110 66 78 90 84 82 92 85 81 61 64 63 90 117 155 165 189 197
12 -15 -25 16 33 78 105 75 95 146 127 234 286 147 44 38 51 78 70 51 78 113 60 59 67 70 73 42 23 -1 7 41 48 55 38 74 68 65 51 60 60 74 92 105 38 53 87 62 126 144 188 210 218 215
11 -13 -24 11 29 72 110 75 92 193 175 208 213 94 63 57 85 84 58 39 49 98 83 67 91 99 97 77 74 73 79 79 80 63 48 37 45 50 6 23 33 44 69 138 100 104 126 125 172 196 256 251 232 210
8 -11 -16 11 31 69 108 84 133 191 195 242 157 47 73 82 109 142 131 71 82 113 96 97 78 129 141 120 115 110 110 99 106 80 61 60 68 84 63 44 32 45 90 118 136 181 175 142 207 244 261 265 234 199
9 -7 -12 13 30 77 104 87 170 197 187 274 177 84 91 117 94 79 64 92 171 180 127 88 92 99 191 148 117 145 123 115 127 100 88 93 94 108 53 56 112 135 158 159 169 164 117 194 247 281 257 222 197 153
10 -8 -16 10 34 87 85 104 182 256 214 319 126 161 182 141 123 111 17 75 185 154 174 148 113 108 141 163 199 164 150 120 104 102 109 102 111 105 72 76 98 145 161 199 224 218 205 259 275 256 222 168 125 97
-1 -14 -19 -2 38 87 85 130 222 260 315 153 182 285 249 190 105 117 117 110 144 104 60 81 179 164 131 166 166 140 151 118 95 100 115 119 123 93 140 99 75 102 156 178 270 220 219 231 218 192 149 117 105 90
-13 -20 -19 -5 39 69 82 132 197 436 125 287 354 424 282 165 244 185 143 194 138 153 32 136 105 138 158 156 149 166 139 144 113 120 119 99 83 73 131 170 180 180 134 102 174 137 135 188 175 140 133 117 99 93
-16 -22 -21 10 36 61 55 108 161 252 224 221 296 335 370 307 244 195 188 250 181 160 149 192 255 215 163 165 162 169 158 132 104 116 128 103 80 100 87 139 196 200 184 198 187 178 179 165 134 126 111 105 104 110
-13 -24 -31 15 39 63 44 109 218 591 235 266 456 417 294 286 227 232 299 353 258 158 199 211 254 275 225 171 181 154 111 110 119 92 78 50 57 62 88 131 208 245 257 289 247 254 229 191 148 124 123 110 98 93
-17 -30 -24 15 33 44 61 123 283 375 313 420 452 501 320 233 250 268 248 210 223 199 142 321 377 247 276 267 153 141 148 119 121 101 66 65 69 82 105 132 183 223 249 264 257 244 221 177 159 134 104 88 93 89
-34 -29 -10 -12 68 63 87 105 182 365 303 399 361 396 320 278 286 263 205 193 247 202 255 286 290 207 293 207 189 166 132 132 104 94 94 89 114 117 131 164 212 262 264 263 229 191 146 122 106 104 96 93 97 103
-33 -46 -40 48 94 102 75 82 195 264 273 328 301 257 275 297 252 240 259 231 186 232 319 279 200 151 182 186 150 144 162 99 87 85 98 101 86 86 136 181 212 239 249 225 163 113 98 85 79 87 96 109 123 125
-49 -50 30 71 115 117 47 101 207 291 179 238 187 242 215 282 241 188 191 211 187 277 337 277 206 152 147 171 184 176 144 138 111 122 101 58 65 113 180 237 266 248 203 147 111 89 93 91 90 98 117 126 146 148
-5 -27 25 78 86 75 56 133 216 238 168 207 190 212 240 213 214 260 261 195 259 298 285 234 193 186 170 154 123 136 152 155 190 177 164 140 160 172 170 216 201 163 152 129 108 100 98 106 117 125 147 150 159 151
-64 -32 20 74 56 50 69 131 156 252 231 204 151 167 176 222 219 208 258 264 272 321 269 220 179 158 202 173 158 108 116 128 160 217 244 216 201 208 218 214 191 176 152 124 99 103 118 138 134 141 148 133 140 135
-11 -60 15 30 17 44 74 109 122 197 143 209 248 184 196 184 182 244 309 408 421 388 289 235 185 188 216 205 180 146 144 162 250 334 340 317 274 276 242 183 153 138 149 146 143 136 140 146 154 162 155 149 151 154
19 -13 -8 -6 5 29 77 118 160 153 204 203 209 237 209 204 234 221 236 362 372 398 353 343 307 292 253 223 217 220 217 223 271 300 345 335 279 244 213 167 143 131 117 103 106 108 119 132 164 177 175 174 169 172
59 -14 -30 1 21 48 62 97 135 184 201 218 213 213 246 251 246 227 245 241 229 296 259 243 253 219 250 286 255 240 276 312 335 316 261 220 209 197 162 118 105 105 95 88 88 105 144 168 166 165 169 173 170 167
29 14 -11 18 67 81 98 94 132 161 199 226 218 233 267 289 284 269 248 231 218 192 143 110 161 182 203 193 215 289 262 259 311 278 242 239 206 171 147 120 93 93 102 119 140 169 178 170 168 169 163 164 165 172
41 35 19 39 71 94 72 113 121 144 151 184 189 156 179 189 221 203 264 305 304 263 220 209 181 210 242 270 291 292 291 265 290 275 209 186 178 158 133 123 117 127 126 164 189 189 171 168 167 165 167 173 168 157
45 18 16 41 53 82 87 103 136 139 151 165 185 203 236 256 236 222 233 254 244 304 274 262 261 244 259 264 269 274 289 243 234 238 222 179 163 149 159 172 188 206 169 184 177 175 170 159 161 164 166 165 163 149
51 25 18 17 38 65 93 130 133 146 143 152 146 163 185 200 228 200 180 234 264 298 353 342 274 274 316 273 241 258 274 260 210 251 223 175 154 141 151 160 149 153 143 137 147 150 153 153 164 176 182 165 148 129
55 38 25 8 10 40 54 72 77 101 153 170 155 169 180 190 187 159 173 249 268 311 333 359 362 296 291 318 329 309 280 269 228 185 186 226 215 178 138 126 133 126 128 139 141 142 152 163 167 157 145 127 116 106
53 33 23 13 18 22 52 62 82 119 129 128 132 169 159 171 147 142 192 208 268 281 303 333 355 340 331 319 276 244 230 206 211 183 182 213 202 182 149 144 141 152 154 150 158 163 158 148 138 130 124 115 101 85
50 41 30 15 7 22 36 62 64 45 64 94 132 134 106 92 108 146 164 203 242 262 268 282 301 276 296 287 265 237 178 145 142 153 162 129 120 140 145 156 162 162 161 165 171 160 151 134 125 115 108 96 88 79
44 36 38 34 34 26 21 20 39 49 54 43 41 41 55 58 58 76 123 168 207 226 234 228 216 204 206 199 180 152 124 102 96 83 83 89 85 91 111 134 139 133 131 133 149 154 141 123 108 97 99 90 88 81
38 43 44 35 32 38 46 49 38 25 28 48 64 68 68 65 68 66 71 84 94 98 109 128 133 131 110 100 93 96 96 85 90 93 97 119 129 115 121 130 116 114 122 126 121 117 113 108 102 96 93 93 82 78
51 47 47 41 29 28 43 53 56 49 50 47 64 64 76 89 106 82 76 80 73 73 79 85 83 89 85 84 87 89 92 84 92 92 105 127 128 128 128 124 120 118 121 122 116 110 101 92 85 86 89 88 71 49
50 48 39 22 16 13 14 29 36 36 55 57 66 71 76 98 96 81 73 95 96 102 102 100 101 101 106 109 110 108 103 100 83 89 111 127 130 131 131 121 115 110 107 101 91 83 77 79 78 79 67 44 37 36

GFSWCAN_con_3kmhel_021.txt.gz
Helicity
47 15 -2 -2 -5 5 -14 2 20 63 80 91 150 136 196 269 231 86 74 54 57 21 28 15 4 -27 7 28 51 35 130 23 117 79 64 91 42 45 58 39 82 109 103 75 67 33 41 37 23 42 10 36 38 59
34 -0 -5 -1 -5 4 -13 1 17 65 88 92 166 182 148 197 188 116 61 62 72 39 27 23 18 -11 -3 22 35 57 85 82 -3 132 124 91 58 44 52 30 4 32 94 73 52 15 14 62 42 42 24 24 23 67
19 -4 -7 -2 -2 -0 -9 -0 24 62 101 114 145 191 161 206 227 98 77 77 67 40 23 -5 -11 5 28 34 62 50 49 159 115 129 72 78 85 57 58 34 53 5 58 51 71 32 40 35 48 69 45 59 67 86
5 -0 -0 -6 -9 2 -0 -3 26 53 100 145 149 187 215 201 239 67 68 56 67 30 15 6 22 18 2 47 29 30 54 66 121 121 85 64 68 65 85 60 52 55 102 59 65 60 63 53 52 99 116 124 144 131
7 4 12 3 -4 -0 6 2 23 62 105 159 166 176 209 287 208 67 75 53 73 60 37 31 26 10 16 19 13 29 55 86 72 77 74 26 24 37 65 60 40 78 61 41 3 36 42 31 98 152 156 122 126 171
11 7 3 6 5 8 5 -3 21 70 102 141 154 204 234 176 215 101 65 51 66 54 42 43 12 47 27 24 13 13 66 103 65 71 83 52 59 83 47 16 13 -1 75 52 70 85 77 105 198 168 205 196 194 204
21 18 11 -0 4 -3 -8 -4 28 77 117 123 124 226 279 214 166 121 89 53 79 95 48 33 27 35 72 43 24 30 71 83 40 52 56 63 81 65 60 37 29 33 55 92 113 173 144 136 98 175 244 240 270 267
22 16 15 2 -0 -9 -13 2 39 94 112 139 173 267 271 281 92 81 117 54 96 113 69 53 48 41 58 51 42 41 59 61 41 14 7 18 9 15 78 29 15 50 111 147 127 75 106 185 246 253 253 282 308 265
31 25 18 13 10 -12 -7 18 53 83 130 174 235 313 192 179 139 107 43 100 100 112 78 72 52 37 57 84 80 71 57 37 41 45 46 41 22 -21 -13 -6 45 81 93 141 211 218 206 239 230 227 257 256 276 218
25 26 28 25 -1 -14 -11 36 58 99 180 235 146 226 243 159 74 95 58 27 112 113 59 37 85 63 69 86 94 95 83 60 28 52 71 61 23 46 54 39 50 115 155 213 272 232 234 221 208 190 192 207 211 184
56 38 30 20 -6 -13 7 41 75 109 115 177 201 325 193 84 186 108 129 117 113 143 102 85 99 84 83 90 89 92 65 73 50 47 60 11 13 62 99 120 149 203 161 181 177 215 184 203 212 246 251 251 220 173
81 76 39 17 4 4 29 64 89 86 132 157 226 178 175 244 218 194 194 162 131 122 100 121 192 112 97 179 125 110 71 76 49 52 52 29 34 52 78 93 150 198 200 194 181 231 209 242 250 256 249 230 187 139
71 77 62 28 9 27 69 77 110 71 110 105 179 173 274 284 202 208 231 263 208 145 151 118 181 179 152 83 71 75 68 54 77 53 42 36 34 29 39 83 145 190 208 228 255 261 277 282 253 241 237 197 157 129
59 51 60 52 64 39 91 107 82 39 93 139 208 169 255 226 200 171 239 308 249 177 84 186 244 147 165 177 143 123 103 114 84 59 51 29 46 66 72 103 181 182 204 253 282 283 304 282 274 242 203 134 117 101
36 37 39 101 35 55 108 116 45 32 74 165 169 186 229 204 192 249 220 275 307 196 259 236 191 126 212 166 142 121 109 61 30 34 42 23 50 79 116 152 189 202 234 261 240 251 270 256 248 218 149 117 102 93
37 44 122 45 44 73 103 30 5 31 90 114 172 134 127 170 199 209 220 279 235 225 329 251 224 198 168 133 149 124 144 60 36 28 34 68 67 90 109 133 148 169 207 228 237 248 255 230 195 170 143 114 97 95
54 171 85 37 51 70 16 8 16 78 126 141 178 168 110 154 114 95 119 145 123 229 304 287 261 212 197 197 189 120 87 59 50 44 54 77 80 86 112 139 165 192 232 248 253 237 225 176 157 154 153 117 135 138
166 156 56 38 23 3 5 8 33 81 138 123 104 148 154 112 137 121 134 125 227 246 233 194 181 210 192 134 115 82 95 109 84 83 101 101 128 146 144 204 247 270 272 246 221 187 141 136 145 118 113 111 150 160
112 91 63 41 53 26 25 30 28 87 118 129 115 89 152 159 119 121 131 191 256 278 228 204 150 112 136 108 79 75 115 143 132 169 169 169 193 202 231 282 309 296 269 220 175 140 116 103 89 76 78 89 121 115
35 46 42 49 62 35 53 47 14 50 102 150 135 98 110 189 214 154 183 222 244 259 195 172 152 143 114 97 76 96 119 173 208 210 207 202 205 243 259 274 275 270 265 242 204 165 166 160 119 90 85 91 97 96
63 81 59 89 71 51 41 49 48 40 58 124 191 187 113 129 203 246 260 279 250 226 160 134 130 138 142 134 99 109 154 145 158 180 189 204 229 306 301 295 260 223 205 179 179 150 152 136 109 119 120 126 141 138
93 57 92 78 90 43 49 20 31 38 42 85 134 174 240 161 133 205 252 280 279 283 230 168 139 167 195 179 144 152 187 219 215 279 275 267 277 299 293 246 227 223 198 153 134 141 138 125 123 133 157 165 176 173
72 88 89 78 89 76 39 33 35 39 49 74 108 155 184 271 285 252 154 198 224 233 240 216 180 217 201 194 253 291 247 281 293 320 316 300 309 285 276 230 201 204 201 177 153 154 141 112 126 166 165 180 185 183
88 108 102 105 98 62 34 42 41 39 49 52 59 102 147 198 297 259 261 225 268 275 231 213 204 210 240 273 296 299 302 359 429 438 312 325 366 328 273 241 220 208 175 150 158 147 132 147 142 164 169 172 154 146
132 88 118 86 61 74 52 48 58 43 48 66 81 91 128 158 185 231 249 295 296 334 370 336 233 216 235 289 296 314 387 346 365 399 345 263 295 307 310 274 245 185 117 150 128 151 164 165 169 157 145 136 134 132
126 100 99 84 55 67 46 48 45 58 61 65 76 85 92 121 151 169 154 206 239 274 312 330 308 232 293 265 255 313 399 392 384 409 331 256 192 178 177 168 141 116 76 127 149 152 156 143 137 139 123 111 124 137
126 81 80 73 71 59 39 26 36 51 71 80 79 90 91 112 120 116 108 175 209 249 275 257 228 217 230 244 277 309 309 316 309 301 303 310 279 233 188 139 85 83 89 119 129 116 113 115 125 134 144 144 123 112
87 73 82 69 75 56 48 27 28 47 58 73 71 98 105 106 88 63 75 116 191 233 227 214 237 221 241 269 289 313 362 338 313 296 331 408 361 265 185 161 148 108 129 126 126 125 117 107 101 99 105 112 113 106
62 58 85 74 74 71 49 26 3 24 44 42 73 72 57 35 42 52 49 102 165 152 170 208 256 259 282 300 333 354 336 317 274 313 309 249 231 220 210 178 173 184 164 159 148 131 121 111 105 109 117 113 103 102
45 69 78 70 76 63 49 48 34 16 14 15 23 16 21 32 48 63 78 97 120 148 179 195 211 237 251 239 248 274 277 231 209 176 126 97 91 85 105 143 156 151 145 144 132 130 153 161 155 137 134 131 127 127
54 79 88 75 60 57 57 56 51 39 25 17 19 37 29 10 29 55 85 103 118 114 141 174 201 208 180 174 170 180 212 224 169 129 148 137 79 111 126 122 121 130 136 130 113 105 116 135 130 132 132 131 126 117
42 64 71 69 60 65 71 68 61 60 52 39 26 25 36 36 49 30 51 81 86 116 119 130 146 175 178 174 190 194 174 170 179 165 168 134 116 106 108 112 119 122 122 120 121 123 130 126 119 119 115 108 96 89
58 61 73 80 86 71 66 79 67 59 60 49 50 38 39 65 71 51 32 43 57 75 83 83 87 95 110 123 127 125 124 113 84 86 91 87 82 88 107 112 117 124 137 140 138 127 122 122 116 107 101 89 81 65

GFSWCAN_con_3kmhel_024.txt.gz
Helicity
64 58 23 -14 -16 -6 6 -10 -22 5 42 84 115 132 119 251 268 166 101 85 63 38 41 3 15 -16 -35 7 52 56 86 85 96 33 21 29 26 32 30 27 31 61 51 43 23 -6 29 40 43 50 15 27 30 15
53 34 9 -2 -5 -5 2 -13 -13 5 42 87 130 146 112 209 188 185 52 84 74 35 28 29 32 19 -35 0 19 19 78 71 82 78 75 62 46 39 45 68 42 38 56 31 24 13 17 36 43 40 14 6 17 20
62 27 10 -1 7 3 -4 -4 -2 15 46 76 128 168 130 171 247 168 47 82 63 27 5 4 -9 -4 45 12 56 29 51 92 79 126 129 101 50 54 14 14 29 16 16 24 10 -19 0 4 54 63 51 39 39 37
55 12 -4 -5 5 14 -3 7 6 24 41 83 123 173 173 168 249 229 48 65 57 31 25 20 8 23 9 15 50 33 26 29 89 127 171 106 98 53 45 28 41 29 72 35 -17 -2 10 7 22 53 86 87 97 93
37 16 11 12 3 9 -4 -6 -5 15 40 92 127 150 200 227 230 217 69 54 44 49 59 27 20 3 7 -4 -27 -3 23 46 92 109 83 41 57 68 54 60 47 69 71 100 105 22 38 55 67 79 97 88 80 116
33 17 8 9 15 12 -13 -11 -14 13 53 115 158 135 194 244 184 148 72 47 54 41 18 41 17 26 10 4 -12 -12 61 78 85 43 54 71 51 54 29 37 32 67 64 56 67 67 95 56 127 108 138 117 110 124
28 25 26 24 20 14 -21 -15 -6 24 73 114 139 195 197 242 214 164 76 52 76 92 45 23 19 15 32 13 -2 -14 62 114 103 91 68 88 42 57 57 27 81 27 61 77 86 125 129 93 67 123 193 185 204 205
38 44 33 38 34 24 -7 -9 7 45 78 125 175 233 223 217 153 130 98 29 98 92 64 39 28 23 23 14 14 7 49 89 82 83 92 112 86 71 40 48 2 38 56 87 74 46 60 154 186 186 212 234 260 225
56 73 72 47 32 18 -13 -6 30 57 118 150 201 169 155 148 133 76 35 81 81 94 59 45 37 31 44 33 30 27 34 77 70 78 75 67 61 31 37 22 10 19 24 54 114 129 137 188 195 194 232 238 264 213
59 70 81 78 41 16 -20 3 46 94 169 219 97 167 229 177 72 75 101 48 60 78 65 53 76 49 45 58 42 47 54 47 51 60 45 22 -4 15 -1 11 15 52 92 126 172 138 161 184 180 193 198 197 209 189
62 74 73 76 61 30 -8 31 68 129 107 112 155 223 210 102 205 124 117 106 104 86 70 57 73 83 47 52 50 53 43 64 36 30 37 1 -12 40 76 86 87 109 107 115 131 173 146 210 229 240 224 231 212 176
72 62 68 58 61 54 7 43 58 58 104 93 154 201 218 257 201 136 190 151 123 110 86 120 167 119 68 83 75 65 50 47 44 32 40 21 48 69 80 87 123 170 186 162 151 221 227 258 228 234 222 206 186 172
71 60 57 44 59 78 26 73 69 79 67 73 74 217 311 309 157 129 144 219 183 154 109 134 175 160 151 81 89 81 67 46 54 36 42 64 61 53 49 66 125 184 218 209 229 252 268 264 224 222 219 197 190 165
67 57 52 46 72 49 56 79 79 6 70 106 96 240 241 223 165 153 146 209 211 188 130 189 207 124 166 139 81 57 48 72 48 42 64 53 27 63 64 68 129 153 170 202 222 250 297 287 268 236 228 179 170 142
52 50 37 87 45 39 55 78 30 -3 65 94 94 115 206 225 224 179 131 148 208 216 232 216 190 128 183 163 129 128 111 52 24 15 28 15 28 62 72 92 126 145 162 199 228 269 295 256 287 272 219 178 151 120
45 50 122 56 31 25 23 14 -1 -1 63 85 96 134 95 109 160 126 117 122 156 217 282 246 216 221 214 183 132 99 105 62 43 9 14 50 36 49 84 113 136 154 190 239 263 287 280 271 254 226 196 153 120 111
44 126 95 43 50 29 27 15 19 18 81 80 47 44 101 92 105 74 71 108 124 184 268 241 212 168 202 168 145 106 63 44 35 45 31 22 36 68 117 159 179 202 241 254 289 282 279 246 222 204 189 134 153 153
125 137 63 54 57 98 60 14 42 42 73 99 65 72 76 74 33 43 67 96 169 196 219 175 189 181 154 125 130 69 98 100 74 55 55 75 111 124 139 175 167 186 232 249 265 251 217 192 189 158 149 140 177 167
90 76 77 58 110 119 95 39 50 77 53 60 76 72 39 43 45 60 122 114 158 145 157 169 109 67 77 61 68 81 80 105 117 124 132 121 129 159 190 216 230 261 283 246 215 180 156 130 121 100 108 110 139 117
37 83 72 69 111 115 90 67 25 55 62 49 53 87 130 72 58 82 103 150 153 178 166 150 126 108 67 90 78 83 67 73 161 217 189 184 172 210 214 229 263 281 304 272 240 184 175 176 131 99 84 93 117 104
60 73 67 95 108 117 128 84 27 44 36 33 30 72 110 62 57 118 164 171 171 155 150 180 174 138 133 107 77 74 75 83 123 134 182 201 207 246 255 294 321 275 242 195 181 150 142 124 97 106 113 119 131 146
71 75 91 88 115 96 107 67 48 14 25 18 25 50 97 57 98 105 207 219 202 209 173 172 148 119 114 115 104 70 85 137 155 199 223 220 255 262 287 289 292 263 213 178 168 163 173 160 152 151 161 164 179 179
87 100 111 119 107 97 75 72 72 24 6 26 35 36 59 84 86 183 172 221 242 281 276 197 166 164 153 175 164 137 89 147 175 196 233 278 299 280 283 262 232 246 237 219 187 177 166 131 127 171 162 180 188 170
103 136 161 152 118 82 78 75 67 51 38 38 22 41 49 77 114 167 181 159 211 277 288 345 211 175 166 150 117 158 211 237 254 299 292 357 406 390 316 305 275 225 204 180 190 188 159 149 134 152 169 175 154 144
162 113 157 163 106 99 79 55 62 73 56 52 38 24 33 39 57 74 127 185 190 242 290 324 293 187 139 157 187 192 187 199 286 384 393 427 455 455 391 316 279 234 155 192 169 172 152 116 147 158 147 137 136 128
180 163 169 144 90 87 61 55 56 57 60 64 60 58 24 33 44 64 76 81 114 152 221 249 232 218 166 156 156 189 204 184 266 392 392 361 287 264 237 240 219 158 108 127 137 132 147 148 150 152 140 122 116 121
187 174 153 115 94 88 56 46 54 62 56 66 84 89 65 65 55 53 49 34 64 101 150 175 175 155 142 169 192 215 249 333 382 427 399 355 332 243 162 148 136 127 92 104 139 146 151 150 149 146 152 140 98 75
143 140 139 96 92 73 58 45 46 46 41 40 55 104 117 79 61 33 26 42 81 116 140 127 144 163 182 199 218 257 318 366 414 467 539 571 479 353 312 268 223 169 169 164 169 160 150 139 132 124 113 100 85 78
130 89 103 91 76 68 50 44 34 35 26 33 42 59 50 37 15 20 18 45 68 83 114 121 148 169 210 267 309 316 283 298 348 392 429 414 395 389 308 252 226 198 177 173 136 133 136 132 118 108 101 90 89 103
101 75 93 71 75 52 52 66 61 35 19 21 16 24 11 1 -1 9 34 45 63 81 106 120 136 147 166 196 225 252 303 308 276 233 245 238 227 211 210 204 207 201 200 186 163 150 164 178 168 147 128 114 105 103
95 83 88 69 53 52 63 74 72 64 53 32 17 19 10 1 1 5 43 62 67 69 81 112 146 161 159 169 169 172 220 275 242 201 197 202 177 166 171 172 183 190 168 163 159 142 129 130 118 109 104 105 97 106
136 116 86 64 48 63 78 72 65 62 54 48 19 9 20 22 29 30 49 82 83 116 113 121 139 163 159 140 133 120 112 152 157 167 187 187 169 151 159 174 169 157 137 139 133 116 105 100 92 89 90 92 96 96
152 102 80 60 71 60 63 72 58 50 58 46 29 22 16 39 45 25 12 33 52 78 100 109 111 119 138 152 152 153 160 162 142 142 140 129 126 130 143 132 118 112 124 122 115 105 102 98 94 92 97 98 92 81

GFSWCAN_con_3kmhel_027.txt.gz
Helicity
65 51 42 11 9 1 4 7 -9 -18 -2 44 87 113 176 189 218 261 108 86 99 56 55 28 23 26 10 -15 -20 -9 74 89 96 37 50 36 40 27 18 28 6 22 4 9 8 -2 18 51 41 42 32 51 55 30
57 47 24 -3 -2 7 3 -1 -12 -3 5 38 85 113 164 151 152 264 74 63 64 70 43 36 21 48 33 -9 1 16 76 87 73 61 48 38 32 23 36 25 38 9 40 14 27 29 4 15 5 7 13 10 12 -2
24 19 18 8 3 11 8 -8 -11 -6 5 33 77 107 141 158 167 206 134 62 76 49 18 9 2 22 49 26 119 9 31 94 112 105 72 67 34 43 44 45 36 11 23 24 -8 -0 34 35 33 55 54 32 27 20
21 27 22 7 2 6 6 8 -10 -13 11 43 85 123 153 126 199 189 105 76 59 30 20 13 13 10 26 67 52 24 40 99 72 93 89 48 51 40 26 30 16 10 33 26 40 16 35 10 51 46 69 52 70 83
18 27 23 22 17 13 4 17 -14 -7 22 62 104 145 150 121 198 153 73 39 48 45 36 43 10 9 1 16 -11 24 6 95 98 94 112 99 103 50 33 26 2 39 37 35 17 31 29 30 37 41 68 63 59 96
19 30 37 39 31 25 23 27 3 6 33 80 124 127 181 159 143 121 47 37 25 31 28 33 10 12 11 7 -9 -5 10 32 45 67 70 74 74 57 33 5 30 45 65 65 57 78 102 44 97 77 98 80 97 113
35 54 52 63 64 35 19 9 2 6 38 79 133 167 224 205 98 134 94 90 90 58 39 22 35 9 11 11 13 -5 9 69 73 59 50 60 78 33 19 47 22 46 57 72 73 108 115 99 68 89 138 149 187 195
56 69 63 55 73 50 19 -0 -1 22 72 117 170 210 236 186 119 72 60 35 36 81 46 35 22 21 8 15 26 -2 12 54 80 89 82 66 60 48 17 -8 31 54 88 117 125 84 78 129 163 146 150 185 213 185
66 75 74 64 64 55 31 24 32 82 106 181 179 140 112 111 116 115 81 81 68 75 49 43 26 20 20 25 25 12 36 63 50 51 54 58 54 18 5 26 45 -5 21 49 101 88 108 147 130 130 161 185 230 178
68 78 84 73 58 57 44 45 68 96 148 147 116 153 173 144 146 22 34 131 136 79 71 41 44 30 19 28 30 36 40 66 56 47 48 23 8 -0 3 21 19 29 62 96 127 86 111 146 166 161 159 177 192 160
64 74 78 76 60 57 55 37 67 94 64 96 163 187 178 275 145 85 91 94 117 83 55 67 63 65 52 31 31 32 34 54 49 27 32 19 36 43 41 24 46 63 61 53 88 123 107 186 199 210 204 207 201 171
55 65 72 70 64 70 61 25 55 15 72 115 142 157 186 213 139 127 93 111 86 74 77 81 95 74 54 43 42 41 37 32 40 41 41 33 42 49 73 95 129 126 146 140 126 171 184 228 215 226 216 208 195 193
44 53 59 62 64 96 40 23 53 54 29 61 44 107 211 189 153 82 106 133 116 76 92 145 151 149 147 92 49 47 35 35 34 34 30 34 37 57 70 98 130 179 224 228 228 216 250 266 233 237 235 210 230 223
32 40 45 49 101 62 45 7 49 4 27 101 94 157 198 226 224 165 168 131 146 134 121 145 179 124 130 140 91 57 73 74 55 47 62 23 15 52 71 81 114 141 181 214 222 230 259 263 259 238 230 201 223 197
26 29 29 94 41 50 38 3 -12 12 36 113 99 144 176 122 140 160 113 124 126 157 204 198 180 123 125 115 137 133 104 69 24 15 21 6 20 69 71 87 119 151 177 208 220 260 280 290 302 286 244 227 206 162
21 24 93 35 27 43 49 61 -15 13 37 98 109 127 99 124 132 109 143 134 102 94 152 198 149 116 108 127 136 93 117 54 32 23 13 23 24 58 83 102 121 146 171 206 231 264 272 276 283 281 272 226 166 135
31 80 65 26 36 52 94 94 19 -26 57 104 107 71 35 105 131 32 58 120 90 80 186 218 167 118 157 151 151 126 99 58 41 43 34 15 31 53 90 136 157 181 209 237 266 253 267 272 271 266 244 174 164 152
85 90 43 40 51 91 96 96 80 43 -1 73 64 45 56 37 35 29 21 54 92 155 218 229 170 144 158 153 133 89 60 84 57 43 30 44 59 77 116 167 185 202 229 237 255 258 272 279 260 220 187 158 190 178
71 50 67 43 79 108 127 109 86 110 36 4 33 -0 16 68 23 19 51 99 113 153 189 196 168 101 139 107 89 89 72 67 66 89 111 83 84 124 162 196 211 222 226 236 250 259 242 191 182 155 142 138 171 142
37 84 76 64 85 113 134 120 102 107 83 -31 27 14 19 40 3 25 36 96 118 162 183 186 157 135 77 90 57 11 27 43 113 155 144 129 127 176 174 186 218 268 334 314 323 272 248 241 187 150 135 135 150 115
79 78 80 95 103 109 136 128 99 93 75 30 -12 29 28 17 22 -43 42 99 174 170 126 225 171 121 84 66 62 41 41 70 102 99 132 164 161 219 249 247 269 265 298 267 255 201 177 157 141 139 130 125 117 112
79 83 90 89 117 117 149 99 92 82 89 68 13 39 23 25 54 55 103 107 174 196 206 214 180 145 153 141 130 78 59 78 98 117 184 218 210 231 227 268 291 290 294 239 199 189 184 169 150 139 143 138 135 137
96 96 103 123 144 146 130 99 118 87 94 63 44 28 30 22 24 61 67 116 162 169 224 247 204 154 133 160 124 147 141 138 158 131 154 215 224 231 261 285 243 311 317 273 220 213 193 144 136 166 154 158 159 153
114 122 120 139 147 156 166 147 105 99 70 73 69 40 66 40 36 23 42 79 97 161 163 255 291 210 123 137 169 179 181 151 185 185 158 270 297 282 286 325 327 338 270 249 254 251 204 170 147 160 159 162 153 154
120 90 154 192 176 174 184 154 126 124 78 60 66 57 66 63 30 26 36 65 99 95 154 188 227 275 210 181 175 169 176 152 178 222 248 279 384 410 451 473 418 348 265 290 247 226 195 167 155 146 120 138 149 141
124 153 162 166 190 200 173 189 116 81 67 52 65 56 54 64 56 26 31 37 33 62 98 162 192 209 221 212 170 141 162 165 179 237 214 218 288 400 488 501 463 325 238 221 192 173 171 142 148 145 146 122 115 137
139 152 182 173 213 207 165 106 92 87 59 43 62 58 63 64 70 62 25 -10 -8 19 81 106 120 143 152 135 106 95 113 145 148 187 262 333 317 299 319 363 311 260 207 194 188 180 178 153 149 142 143 132 107 86
138 166 166 181 208 165 157 108 77 52 36 50 68 66 75 71 54 3 -19 -12 14 44 64 70 71 80 86 93 92 103 150 185 235 304 399 451 420 371 308 287 266 187 179 168 181 163 170 153 139 130 122 119 109 88
148 170 208 202 186 142 94 83 63 52 59 66 68 59 45 34 22 -5 -18 -1 24 21 39 72 71 90 95 112 144 166 177 168 196 290 376 403 433 519 445 390 324 244 190 155 136 158 166 161 150 146 149 140 122 113
170 164 192 180 181 129 80 76 68 66 64 60 53 58 45 26 3 -13 -23 2 21 36 38 61 77 106 121 124 163 232 278 260 235 256 321 414 486 429 372 271 229 213 216 231 213 192 200 217 205 192 167 133 104 92
178 175 182 166 131 81 65 70 75 82 75 68 61 60 30 13 14 -5 -20 6 26 33 39 65 98 134 151 168 177 190 218 216 157 168 286 358 311 261 242 229 215 224 237 232 204 183 178 179 154 133 115 106 89 87
166 140 143 145 114 59 62 66 66 63 57 71 60 58 40 34 11 5 -8 19 36 63 80 88 105 117 114 113 123 114 106 151 172 192 229 253 265 249 242 245 238 223 216 208 192 174 157 131 100 88 86 84 83 83
167 154 165 161 126 64 47 67 56 36 53 63 59 64 52 36 16 10 -17 -2 21 52 72 86 90 87 93 96 102 109 133 154 150 150 148 141 139 175 213 203 184 177 187 180 163 132 114 99 88 83 83 79 78 78

GFSWCAN_con_3kmhel_030.txt.gz
Helicity
26 32 35 11 19 7 -0 2 7 -15 -0 25 45 90 115 167 179 126 129 162 113 88 52 60 51 21 29 19 -1 14 4 48 75 86 55 57 18 22 28 14 -10 28 16 11 -8 14 12 43 31 -0 62 35 38 24
15 32 27 14 17 7 2 -0 5 -20 -14 18 50 85 106 148 158 189 108 110 57 88 65 46 39 23 -11 33 57 24 11 81 54 72 48 44 55 39 32 24 14 -10 39 23 53 25 17 10 -17 -12 47 29 21 -14
19 32 15 13 27 27 13 3 6 -14 -11 13 56 87 128 181 147 137 138 129 59 62 44 20 12 10 58 78 97 32 22 31 112 82 69 45 34 39 53 32 32 14 36 30 -4 -17 -12 -0 2 12 16 4 -18 10
22 34 27 26 40 47 28 18 11 -3 3 25 65 92 130 128 158 105 99 111 100 64 29 16 7 11 28 52 77 -7 23 64 51 52 73 29 29 29 25 38 38 9 14 21 32 10 2 18 8 20 36 21 41 49
18 45 49 43 57 64 50 24 6 10 19 36 66 105 114 157 204 111 81 33 48 77 39 32 6 5 18 -17 -12 -10 11 59 121 95 73 32 44 55 35 44 36 61 42 40 -10 -19 31 39 44 35 36 35 46 82
33 58 67 50 64 63 54 23 -8 7 17 40 72 123 140 165 203 76 78 41 34 55 3 31 7 1 4 -10 -25 -0 8 24 68 84 91 114 93 69 23 11 16 45 43 46 34 40 66 98 110 49 63 52 57 89
44 64 69 54 70 65 52 26 9 25 36 79 130 171 165 176 108 109 108 85 136 85 39 18 11 7 -8 8 -0 -14 -10 30 58 51 48 47 67 85 44 47 33 11 13 69 77 97 103 74 65 78 114 114 127 145
48 68 71 58 67 65 50 31 33 57 77 117 164 189 165 132 85 82 97 78 61 70 42 37 23 28 -11 4 15 -7 -10 27 68 73 50 51 53 81 15 25 39 71 91 97 82 83 74 120 147 142 116 132 182 152
49 65 72 63 63 66 47 32 52 81 97 151 171 137 82 89 82 73 77 23 44 50 48 30 26 30 -0 -0 11 6 4 21 22 45 45 22 16 31 -8 13 -6 52 49 70 99 124 120 152 151 138 162 156 190 137
41 56 68 65 61 68 57 36 45 95 108 121 96 174 156 126 155 120 42 51 77 72 69 35 47 29 15 -8 7 20 16 24 25 29 34 19 18 -8 -19 3 23 24 48 84 110 83 101 122 120 124 110 118 147 141
35 48 61 59 58 64 76 39 37 82 15 63 130 184 201 192 112 96 103 93 88 62 43 53 52 36 38 18 4 14 17 28 22 23 26 17 33 14 17 -3 39 28 50 49 50 81 74 126 147 177 175 191 200 191
28 40 51 51 51 66 88 40 26 27 23 63 116 105 145 123 110 90 83 97 56 58 53 54 70 62 42 50 31 28 27 26 17 29 28 12 34 30 44 48 87 52 84 89 79 118 143 182 179 211 228 239 222 211
28 27 35 42 47 79 62 55 7 39 3 39 44 111 148 117 135 99 78 109 83 30 11 52 79 76 72 57 45 26 28 28 21 23 13 13 15 31 44 59 99 142 169 165 169 194 221 252 230 257 264 222 229 237
21 19 26 36 74 44 59 55 8 24 15 75 96 136 139 160 149 115 107 94 94 67 68 71 98 84 102 95 58 46 46 45 39 31 26 1 -3 21 42 70 95 131 167 200 226 240 247 277 301 271 244 193 220 219
21 11 11 78 35 37 41 68 55 4 -4 79 107 157 157 124 124 147 93 105 105 125 81 105 107 90 91 85 84 86 74 52 20 36 16 2 -1 21 45 62 81 131 173 199 213 254 276 294 300 292 228 232 227 214
28 13 68 36 19 32 59 85 90 42 4 -20 110 154 140 129 121 94 125 114 61 76 116 164 151 83 69 93 116 86 105 69 57 23 32 13 -19 15 49 68 87 126 169 203 215 248 262 258 280 290 265 266 216 164
47 37 37 19 23 49 59 104 88 71 71 38 -39 63 76 78 149 82 37 50 126 157 192 216 148 111 136 126 152 134 97 48 30 43 38 25 12 28 66 101 121 149 186 212 253 263 281 264 280 299 290 231 201 164
54 54 25 30 48 65 56 85 73 69 101 73 -0 -99 74 52 32 22 37 41 85 124 124 262 215 159 133 117 140 67 61 77 54 42 43 33 38 57 82 116 149 176 201 220 242 258 261 264 282 289 249 205 216 185
51 45 51 45 60 77 62 90 83 79 94 75 40 -24 -69 74 79 63 30 43 83 123 146 186 205 131 164 138 80 68 59 49 79 77 83 68 61 95 132 173 193 202 211 224 238 241 243 224 235 216 212 167 178 135
52 66 64 56 89 80 62 90 120 80 78 80 75 44 -5 -31 76 79 77 30 42 112 121 198 234 251 182 152 125 132 112 70 69 103 102 105 80 114 120 154 172 197 254 266 298 302 302 320 262 205 160 134 143 105
81 69 74 86 98 108 111 129 136 104 83 88 91 72 40 23 4 58 68 45 5 117 127 126 164 264 246 200 151 118 90 60 52 82 95 106 93 134 167 202 223 213 238 250 289 274 248 220 197 181 153 150 144 128
64 81 87 98 112 109 132 138 122 111 115 108 90 102 74 49 56 83 67 82 48 90 142 134 163 212 265 201 162 114 82 38 62 83 119 146 163 167 166 206 246 251 246 223 214 236 230 212 182 175 185 172 164 157
88 85 104 117 116 124 114 110 145 122 121 113 117 124 86 53 67 71 79 56 38 87 89 89 165 209 237 289 244 167 120 94 81 61 89 133 155 175 211 230 225 260 272 245 232 258 253 201 181 210 196 197 194 177
114 109 100 97 116 116 143 154 157 152 145 156 153 115 90 71 78 93 95 103 59 28 48 75 83 126 168 176 205 204 185 162 142 152 149 174 183 183 201 236 237 238 265 291 305 316 268 219 178 202 192 192 168 147
108 82 117 144 171 164 146 163 174 183 164 153 152 101 78 91 77 79 95 73 52 -8 6 44 68 95 104 142 195 239 220 174 161 175 173 194 260 308 288 302 325 287 296 377 326 306 271 217 189 183 169 165 140 113
78 109 145 141 153 158 160 191 160 156 175 150 104 65 81 82 82 73 61 45 32 -5 -9 18 71 103 137 141 181 184 208 207 170 174 169 174 203 249 284 347 419 383 294 275 308 301 259 211 187 171 170 114 104 133
111 132 171 170 206 222 227 213 199 193 185 161 96 75 67 50 40 81 41 10 5 -1 9 20 22 55 99 147 146 152 157 158 175 166 195 246 237 211 231 267 345 395 375 347 293 250 231 204 198 198 166 149 115 106
124 148 137 158 186 200 233 221 193 164 132 91 96 75 60 60 72 34 -17 -7 -15 -20 -4 19 30 37 69 88 117 106 102 122 164 194 266 313 278 237 234 300 366 305 300 297 279 254 239 218 230 163 161 159 142 110
125 145 202 178 201 195 167 179 157 122 110 111 93 66 68 87 92 66 37 22 7 -11 -9 5 22 28 43 59 86 127 129 117 116 116 161 202 237 284 267 332 342 378 394 363 271 196 208 213 189 190 188 171 137 119
144 183 197 188 198 164 152 136 121 99 103 102 89 83 82 88 65 71 54 26 13 14 7 12 25 29 41 51 77 114 140 125 92 120 181 210 233 273 304 345 427 418 370 303 246 218 215 253 255 256 217 165 125 107
163 198 221 200 158 132 129 123 106 100 95 90 91 90 82 71 60 58 45 13 -2 9 12 20 20 39 59 75 98 143 154 156 141 160 216 240 260 305 364 423 390 286 223 275 252 214 210 226 203 174 148 127 98 99
184 187 198 173 131 109 128 146 120 90 64 72 65 87 88 96 67 54 34 21 19 22 31 40 44 46 68 79 115 134 134 142 146 203 253 272 289 313 335 292 226 231 256 255 251 225 212 184 147 129 116 110 105 102
199 198 189 168 151 142 115 150 122 47 28 48 53 86 108 107 68 46 35 28 8 -2 22 39 42 51 65 87 102 92 85 86 74 95 123 159 196 265 285 248 245 250 253 258 243 202 177 161 140 113 107 103 94 80

GFSWCAN_con_3kmhel_033.txt.gz
Helicity
27 35 24 24 30 48 61 27 11 7 -16 -8 31 63 111 137 183 6 113 106 111 42 51 44 38 37 46 21 -5 19 19 35 49 53 49 35 20 14 19 26 13 -6 -21 -7 28 26 36 0 36 30 97 59 26 2
40 34 23 23 44 59 73 45 29 22 1 -10 36 65 107 117 144 142 107 138 158 36 33 34 25 46 15 -15 79 -27 5 17 25 39 42 38 47 33 22 45 17 -11 5 5 52 37 38 42 94 81 80 96 36 -9
43 33 27 31 58 70 79 58 42 36 29 8 39 81 105 127 114 126 120 152 63 23 35 27 17 13 31 60 89 19 25 8 34 29 47 16 49 42 18 13 18 10 32 27 14 1 -1 5 0 26 21 0 -27 -17
43 38 40 43 64 75 77 52 36 18 17 12 40 79 107 130 137 154 104 116 58 35 38 26 7 -6 1 35 31 85 88 43 37 35 23 44 46 23 21 14 15 24 26 12 12 16 10 5 -9 2 20 14 30 37
34 46 49 50 68 77 77 46 31 18 -1 13 35 93 129 142 126 55 130 83 34 70 41 31 15 4 4 -8 30 -1 -22 10 41 28 38 32 15 20 16 23 62 104 53 34 -1 -16 -8 8 24 16 19 19 24 69
35 53 55 52 69 75 71 40 22 19 5 20 59 129 146 148 141 49 67 44 32 71 42 42 19 -2 -1 -10 2 5 -19 0 43 62 29 15 55 49 12 8 50 41 34 31 24 32 31 62 99 58 45 43 66 92
31 49 52 51 69 71 65 36 20 23 15 25 96 153 161 135 107 85 110 69 148 95 37 25 14 7 -11 -6 -8 -16 -20 8 20 50 38 60 73 101 74 80 60 14 18 30 59 90 72 49 68 81 102 121 122 125
32 42 44 47 67 65 61 35 23 29 38 52 120 146 122 86 79 66 100 88 34 22 37 35 14 26 -7 -18 -12 -19 -38 -22 23 49 47 44 47 69 40 96 45 41 61 58 82 59 78 96 146 134 123 148 156 144
24 30 38 47 64 62 55 40 30 36 65 89 127 101 75 85 68 55 105 60 36 55 40 27 25 22 -1 -13 -13 -9 -26 -20 13 40 34 32 41 30 -15 28 33 27 38 38 85 97 147 133 90 114 119 153 186 131
20 26 40 52 59 57 54 52 22 25 78 83 92 146 122 84 134 132 62 54 49 46 58 22 23 25 11 -1 -15 -19 -5 -11 6 19 19 23 61 59 -13 15 16 8 49 109 138 129 73 99 106 107 91 113 144 120
18 25 31 48 52 52 68 54 13 7 9 33 115 146 141 162 78 48 73 75 71 41 31 29 36 27 13 10 -2 -1 -10 -1 -1 2 14 26 31 15 10 -36 3 5 24 9 -11 -56 25 113 124 168 171 184 183 162
3 23 26 35 42 53 64 58 24 48 42 41 124 121 157 102 100 92 94 79 48 26 23 15 36 37 33 26 25 17 9 15 0 2 11 7 -8 0 6 12 43 22 23 23 38 48 109 159 149 187 195 208 204 208
-2 16 19 20 28 58 49 59 51 9 19 31 77 129 126 90 107 102 81 103 69 49 -5 -8 55 60 46 33 34 32 22 13 16 15 3 -7 9 14 8 33 56 84 85 90 111 138 180 222 205 228 255 227 222 215
4 10 17 10 33 25 41 52 67 37 -9 -48 86 128 114 133 156 149 143 111 101 72 31 15 36 55 63 61 45 44 46 40 35 26 9 -3 -4 1 8 26 62 111 173 192 196 209 245 266 261 260 260 197 238 230
10 7 6 57 10 13 23 58 76 59 14 -24 3 112 110 107 95 111 99 83 76 93 64 57 85 69 56 65 66 56 61 53 28 20 18 6 -2 0 7 25 52 90 134 166 179 224 254 279 287 298 239 221 250 247
17 24 68 32 12 13 39 51 77 81 53 20 -21 -13 130 111 108 107 128 125 78 90 92 132 152 124 81 63 55 38 70 35 38 22 29 23 12 6 3 24 51 87 129 168 185 237 279 276 282 295 301 258 265 222
24 47 44 14 16 36 43 58 61 56 49 49 47 -31 -56 96 112 94 91 39 70 133 142 189 146 158 191 121 110 83 100 62 50 34 43 31 19 20 27 58 74 106 140 167 205 245 294 291 298 321 318 271 267 227
46 38 19 16 35 49 60 63 49 44 65 63 51 36 -4 -66 14 103 57 56 67 71 101 190 220 208 181 122 143 83 34 48 46 48 40 35 25 24 42 73 93 124 162 189 215 243 269 277 294 270 269 263 262 212
37 41 37 35 50 69 63 62 45 33 65 46 35 35 40 21 -33 33 119 61 52 54 95 121 160 177 191 181 134 81 62 48 62 58 66 79 59 53 74 116 144 177 189 200 205 218 230 215 241 254 265 226 230 160
53 67 56 42 57 62 63 73 77 48 45 67 63 44 39 58 57 42 26 95 113 69 88 137 161 205 206 174 144 109 102 98 86 100 100 97 69 86 93 98 123 179 229 228 224 245 290 308 263 235 203 207 221 151
65 63 67 62 72 86 91 96 84 76 77 90 77 61 53 54 73 82 85 100 78 74 55 133 117 117 119 162 177 146 134 130 132 89 83 79 95 146 163 152 173 181 209 196 219 215 221 251 246 237 241 233 195 164
62 76 68 73 89 93 109 148 124 86 102 109 93 97 90 82 86 110 103 128 138 135 138 140 139 65 78 99 91 148 213 187 131 82 80 105 147 147 138 138 172 181 194 207 225 235 255 266 258 275 271 224 206 196
80 78 78 96 91 97 100 111 104 119 120 96 111 110 101 93 88 97 148 130 116 74 48 42 48 84 96 112 81 106 110 238 200 148 101 118 123 150 155 142 145 205 261 243 245 291 277 249 254 283 236 228 224 195
100 77 64 64 84 76 102 133 145 136 138 140 135 103 116 109 109 156 148 118 91 44 9 14 13 22 47 107 88 93 126 192 239 220 198 150 163 149 142 160 164 185 220 290 305 329 298 284 252 252 225 219 192 178
77 51 83 73 113 122 135 150 140 152 135 148 151 126 139 129 145 157 153 96 102 76 35 5 -6 -7 16 56 96 119 147 108 181 151 148 164 203 235 225 217 215 210 235 355 345 350 348 325 289 247 200 182 174 158
56 67 79 68 94 114 131 134 115 122 162 158 141 137 147 154 163 118 87 81 82 51 34 25 28 32 25 7 72 107 137 138 131 111 106 135 178 194 213 227 251 254 236 265 369 379 357 321 277 235 198 153 162 201
68 79 117 172 183 206 186 183 186 188 186 164 163 174 174 173 128 70 79 81 45 12 18 18 23 26 37 43 46 68 86 93 84 127 141 155 165 169 180 207 210 259 330 335 340 292 312 292 279 255 260 216 158 140
85 114 111 126 193 188 199 186 175 162 169 170 202 180 174 153 117 72 83 92 78 48 37 37 24 16 14 34 39 56 73 79 92 102 119 176 197 185 179 222 275 252 332 416 347 331 332 310 278 270 240 195 158 133
90 100 154 156 174 166 133 167 175 182 180 195 187 161 134 113 101 102 111 109 86 53 25 26 34 19 2 2 18 32 48 74 88 101 89 125 159 183 208 253 291 323 350 381 273 295 304 282 279 240 222 214 190 172
104 159 158 158 170 132 153 172 148 137 148 163 145 123 101 92 90 111 139 129 83 36 18 13 21 19 14 4 15 29 43 62 76 97 110 124 141 174 231 306 348 392 389 412 461 428 380 410 309 293 284 240 199 172
156 166 175 158 134 145 158 146 132 133 138 132 125 120 94 78 76 98 126 103 58 29 25 10 9 7 5 2 4 30 55 67 76 72 127 157 205 218 231 281 322 346 379 437 440 418 377 302 262 231 204 178 133 119
132 126 140 142 134 131 141 141 137 141 127 133 109 104 84 85 90 111 106 87 54 39 32 18 8 12 7 -1 -4 20 65 94 112 114 146 211 244 207 209 278 336 360 394 399 353 254 219 247 221 199 175 146 115 94
137 140 172 174 151 135 123 158 158 129 118 119 89 73 78 84 89 113 80 59 53 39 17 7 4 4 0 -1 8 26 51 77 97 128 174 195 187 197 247 279 283 319 345 271 206 216 251 242 220 177 144 118 94 74

GFSWCAN_con_3kmhel_036.txt.gz
Helicity
27 33 27 31 43 60 64 80 77 77 17 -0 29 68 85 89 85 67 87 81 74 55 37 48 25 19 30 9 -5 -7 4 7 21 14 35 27 19 25 24 29 14 10 -1 2 37 38 20 17 38 25 65 68 48 14
26 25 23 32 52 67 72 80 66 64 30 6 47 85 95 108 112 56 65 128 140 25 36 33 31 26 25 -13 17 51 -7 -3 -11 -5 20 27 36 36 25 35 -5 18 22 15 41 22 1 19 48 66 81 59 3 -12
25 14 22 39 56 74 77 86 63 44 31 -5 36 73 107 116 126 84 86 143 69 43 24 29 22 28 21 30 50 38 6 42 16 47 25 47 58 54 33 18 1 -1 8 19 11 12 4 4 30 21 22 13 -49 -36
22 2 12 41 55 74 76 81 60 32 23 10 32 74 102 128 126 168 116 99 49 27 68 47 16 15 25 24 -26 115 58 56 30 21 13 48 41 29 38 25 2 9 24 -7 16 78 12 -8 8 24 24 3 -2 10
19 5 16 35 51 68 69 66 49 26 21 19 36 67 111 138 149 169 148 115 50 46 45 28 16 16 8 -37 -16 29 57 73 47 13 30 13 34 33 16 19 35 83 29 9 -13 -21 -22 8 18 23 20 16 17 62
13 6 21 27 46 56 59 52 37 20 21 19 35 87 133 154 164 145 86 46 37 56 31 48 30 2 -1 -20 -20 39 17 -4 30 54 50 26 32 39 18 10 38 32 16 3 -19 5 5 37 62 68 59 37 49 57
2 -1 19 23 40 51 52 44 33 17 27 38 64 99 133 139 92 135 119 83 116 77 42 18 22 7 -11 -16 -14 4 -10 -3 -1 24 12 29 28 53 40 83 53 39 21 14 27 45 24 35 57 80 99 112 96 106
2 3 16 18 31 47 43 36 28 21 19 61 100 119 135 83 59 70 75 67 48 51 34 31 13 11 -11 -10 -6 -12 -20 -27 -11 28 40 33 22 52 39 70 70 54 36 -6 20 67 87 98 135 116 109 122 147 135
3 10 7 14 22 39 37 37 29 17 11 83 115 105 83 96 85 83 98 109 36 50 26 25 34 20 -9 -10 -7 -11 -12 -11 -2 15 29 34 65 36 16 18 26 29 26 40 112 79 91 96 92 101 112 123 181 130
10 9 5 6 15 27 31 44 23 14 13 63 85 113 126 97 129 111 47 55 51 31 28 14 22 18 1 -6 -9 -9 -7 -15 1 7 20 15 46 93 21 27 39 58 56 72 93 67 110 92 72 47 44 49 69 122
10 10 4 4 7 15 29 49 30 -1 -4 35 73 94 128 170 53 86 82 71 48 39 21 20 35 41 18 3 -3 2 -5 -6 -1 -6 8 34 39 -1 17 -33 -29 -3 20 2 5 8 1 55 103 136 121 114 120 148
11 15 6 -2 -4 -0 26 33 42 44 24 56 98 102 145 98 86 81 85 75 47 41 32 14 34 33 24 21 13 18 3 -0 3 -2 2 11 -1 3 11 12 2 -0 5 5 7 -18 33 84 121 154 149 157 155 171
22 19 7 -4 -11 4 3 20 44 14 -2 30 96 119 128 88 110 92 96 108 75 56 28 23 43 58 55 34 32 31 33 10 1 2 3 -6 20 22 14 19 18 49 22 29 46 63 102 153 170 197 210 174 192 202
34 17 13 9 -1 -2 -5 7 35 29 -11 -31 -68 -51 55 73 105 105 107 102 92 79 80 22 14 40 54 60 41 36 35 29 24 13 2 12 11 21 16 22 30 48 68 68 94 121 165 213 211 188 195 182 214 196
38 23 17 37 16 -1 2 10 28 52 10 13 -30 -51 -86 130 119 108 91 83 80 87 72 71 64 53 58 62 55 45 28 26 15 28 24 39 42 17 6 4 15 39 71 106 129 151 184 229 262 256 230 205 227 251
37 42 45 47 16 10 2 6 31 47 22 22 20 33 -44 -36 117 138 114 89 61 74 82 100 124 106 82 73 59 27 29 16 19 7 35 41 22 10 9 10 18 38 66 98 119 143 189 226 276 319 290 262 248 219
41 49 38 39 27 16 14 12 37 34 25 30 30 27 54 11 -42 91 139 122 93 121 123 134 122 144 175 116 143 115 57 72 79 81 74 43 15 7 17 29 41 59 83 112 144 168 210 249 302 341 343 277 290 200
57 40 42 39 25 19 25 30 51 42 37 43 32 23 30 57 84 51 23 113 130 141 122 161 182 173 165 121 146 135 77 64 33 23 59 72 52 29 22 39 51 73 103 134 167 215 245 261 279 288 307 296 279 278
56 46 51 46 30 36 34 31 38 52 41 34 23 20 25 32 39 54 69 67 48 73 144 167 171 154 172 206 192 144 108 64 45 52 55 64 52 56 64 78 84 93 122 146 165 191 210 208 226 274 292 236 257 221
68 83 70 64 42 44 47 53 48 64 53 51 50 51 37 35 45 43 47 79 101 110 119 187 225 214 184 154 145 120 69 57 18 68 72 69 84 75 70 77 81 99 150 203 219 250 284 268 248 265 223 222 247 223
94 89 81 63 58 69 61 60 63 65 80 63 66 77 52 46 52 65 66 104 114 166 172 198 144 89 104 49 57 44 38 40 32 -5 62 70 69 65 72 90 99 129 142 157 191 196 215 226 250 227 241 246 258 253
103 74 76 77 67 67 75 120 111 112 117 88 76 97 63 63 75 86 77 110 117 131 145 109 72 56 89 98 100 69 48 32 55 106 86 92 128 132 110 118 145 151 151 143 167 198 220 253 269 276 271 286 287 261
96 93 89 84 73 72 60 113 111 101 111 97 112 94 70 81 91 82 101 101 92 83 96 98 89 79 80 107 100 85 96 66 -15 1 81 96 113 95 92 101 122 160 156 169 197 226 276 257 268 325 300 312 310 261
127 109 77 74 83 84 97 98 99 111 142 133 103 74 88 103 115 139 126 129 106 94 81 73 72 82 83 60 74 102 97 99 79 56 44 25 103 172 91 120 123 121 160 230 231 257 294 303 313 334 328 344 294 231
104 75 91 91 102 103 100 98 119 121 126 126 119 105 124 137 136 136 143 124 109 92 77 78 72 57 66 89 82 77 72 55 75 89 108 105 75 149 187 150 172 182 207 275 280 298 310 324 327 316 300 297 259 208
86 82 91 72 93 84 77 96 81 108 135 120 98 123 142 155 144 119 130 104 91 77 54 49 51 60 77 44 56 68 76 55 43 51 86 81 78 108 189 228 221 192 157 202 301 363 337 313 333 308 311 272 225 232
107 83 83 90 113 116 120 135 172 142 121 120 148 162 168 155 122 115 98 75 82 83 91 95 90 88 98 80 71 63 53 40 27 31 76 91 91 103 160 215 177 191 188 209 307 366 311 314 346 330 331 289 221 210
97 110 91 108 144 157 144 144 137 110 124 155 197 155 163 155 152 115 72 75 90 117 108 90 86 99 87 74 70 66 54 36 27 29 38 69 78 82 84 125 117 101 222 224 258 317 320 322 322 308 299 297 284 235
98 114 146 135 143 118 102 135 130 142 182 210 199 183 178 155 113 101 86 104 133 136 115 89 69 69 53 43 43 47 46 23 19 25 41 52 78 109 105 128 147 191 254 264 198 312 375 355 328 310 291 328 273 196
88 101 106 105 123 110 126 131 113 141 154 187 170 148 129 106 84 101 118 142 159 151 126 91 58 53 50 32 31 42 32 17 15 23 44 58 72 97 125 130 185 223 282 309 360 368 356 428 406 419 411 332 233 211
115 147 140 153 120 110 116 134 140 148 158 143 142 139 125 86 49 72 115 141 156 138 95 69 59 55 40 30 23 29 34 23 19 36 50 58 78 122 157 196 225 271 321 334 428 461 467 488 460 381 281 185 145 153
158 132 123 97 84 94 129 138 136 133 125 135 135 141 129 100 43 49 105 127 134 92 65 67 54 37 30 11 6 6 -3 14 23 46 47 70 112 138 184 230 246 284 318 328 340 380 420 421 381 277 176 162 154 124
140 122 119 98 93 99 110 127 115 95 108 124 122 129 122 75 44 80 80 86 81 67 56 47 42 34 1 -15 -8 -0 8 10 17 18 31 62 100 155 240 282 284 292 270 292 339 358 364 318 242 156 160 178 142 114

GFSWCAN_con_3kmhel_039.txt.gz
Helicity
22 16 13 20 19 56 60 59 65 64 48 5 2 75 103 104 105 67 71 36 55 39 65 76 70 54 37 28 5 6 20 23 16 12 32 27 40 31 48 44 14 7 -4 5 2 -1 -9 15 29 26 36 16 28 28
14 6 13 18 25 57 62 56 70 62 34 14 -25 65 107 123 137 88 43 78 92 43 80 34 31 21 45 51 34 -10 18 7 4 -15 7 27 31 36 55 50 19 26 -5 -2 32 17 -0 12 37 51 72 64 -38 -11
17 -3 13 11 29 53 58 55 66 67 23 10 -10 43 91 119 132 106 80 75 62 48 45 31 14 26 25 45 47 11 61 40 33 36 21 16 50 57 49 32 25 -3 -13 10 -1 3 -7 36 20 10 11 12 -22 -26
9 3 4 9 27 47 49 55 61 56 14 3 -10 29 82 133 144 146 111 73 63 44 51 40 29 26 39 46 52 93 88 96 62 48 19 30 51 30 55 41 31 36 2 -4 8 44 -8 11 22 17 27 28 29 22
9 1 1 6 24 41 43 53 59 47 13 8 -3 29 77 159 171 162 145 100 54 40 48 64 30 22 26 -5 -4 69 45 70 67 60 31 21 12 26 3 26 -2 -9 3 -3 -12 24 -12 10 36 26 34 28 50 75
8 1 1 8 21 32 36 51 58 40 22 10 -9 56 96 157 161 190 141 96 53 22 28 33 32 12 -0 -6 10 9 49 39 77 79 43 30 41 41 36 8 14 29 -10 -5 -4 15 4 18 43 57 71 62 75 85
4 -1 -1 7 20 25 36 46 51 33 28 -2 -25 68 100 114 108 163 181 111 95 62 32 28 27 20 3 4 -7 8 61 22 25 17 27 44 22 41 38 31 34 38 48 45 35 37 13 24 45 80 106 112 115 117
-0 -1 -6 6 13 28 38 42 46 30 2 -36 49 80 91 58 53 129 115 69 78 36 31 26 15 6 -8 5 -11 22 3 43 17 19 26 26 -6 26 28 87 33 19 39 19 -12 10 57 91 111 124 124 126 111 95
-0 -1 -10 -1 7 25 34 34 41 17 -38 -27 75 68 81 94 122 105 75 93 51 51 32 30 24 16 -6 -9 -8 -17 -4 9 -0 9 28 34 31 32 32 37 34 25 33 47 62 63 94 116 116 114 133 107 98 87
3 -8 -1 -3 2 22 23 29 32 10 -59 -8 97 129 106 95 113 98 40 52 39 30 15 23 26 21 3 1 -10 -23 -19 -0 37 9 14 31 78 71 12 13 20 35 43 52 63 68 99 100 90 69 59 80 78 54
22 13 11 -4 -5 5 5 16 21 4 -26 -48 33 108 135 159 71 82 78 64 53 43 20 13 23 38 25 15 8 -2 -15 -18 6 9 14 38 58 30 25 22 9 -14 15 43 45 43 52 94 48 56 67 65 79 90
25 13 13 -2 -13 -3 3 3 19 9 -30 -45 60 123 147 120 88 77 79 76 72 70 43 28 22 31 36 25 15 6 -2 -4 -11 -5 11 33 15 15 18 31 2 22 20 -10 -4 -30 -10 22 47 86 132 125 124 138
18 20 15 -3 -11 -1 -8 6 22 5 -10 -23 -18 -14 139 85 72 59 68 81 85 59 55 51 44 41 53 48 28 23 11 5 1 -2 -3 -0 28 13 16 31 23 14 27 25 26 9 10 67 128 161 183 177 178 187
18 23 16 5 6 8 -1 5 5 14 -27 -52 -56 -32 49 119 101 92 86 94 76 56 58 36 31 46 46 57 60 30 29 21 14 12 2 27 32 38 30 26 33 26 42 48 41 46 69 108 138 159 179 196 220 220
21 23 16 16 20 19 -2 -9 10 25 -10 -23 -48 -9 -14 130 113 94 83 85 87 84 70 59 52 41 38 39 53 60 33 20 15 27 37 51 83 53 37 28 25 28 49 69 77 91 105 135 170 191 187 208 232 245
28 34 18 42 36 24 -4 -21 1 30 13 14 -8 9 6 13 52 123 117 107 92 97 90 78 88 78 61 73 56 30 44 43 54 43 40 60 81 60 44 28 12 10 21 49 76 100 121 137 164 210 235 241 242 241
31 48 21 42 35 13 11 2 6 31 21 25 17 14 12 24 56 111 140 144 124 137 154 136 120 112 143 85 99 101 76 73 57 55 57 69 75 58 38 35 26 24 28 48 75 104 146 199 248 271 279 257 273 280
58 45 24 36 31 26 29 30 53 46 38 41 42 39 35 34 59 79 107 116 130 146 157 177 167 170 169 128 154 166 121 85 58 62 63 53 43 43 41 54 53 50 46 64 116 166 203 220 242 261 292 319 352 350
58 47 25 40 41 54 41 42 71 55 47 47 43 44 39 36 33 48 57 74 96 124 157 154 157 160 197 223 190 157 131 88 86 108 105 55 26 28 41 45 63 65 70 69 73 97 132 176 235 281 296 314 349 318
58 76 35 60 65 67 49 62 70 62 54 61 51 47 50 55 54 45 37 62 79 104 124 176 217 242 190 148 119 118 119 71 20 30 32 12 19 19 20 26 48 72 78 90 108 129 194 225 237 259 281 290 330 248
112 92 76 81 102 93 70 60 71 62 59 60 66 63 60 61 70 58 63 76 72 111 125 146 152 134 93 72 51 30 17 -43 -8 13 37 49 37 8 40 37 38 64 78 79 92 92 123 183 228 264 286 308 282 260
118 101 130 127 109 92 69 96 91 83 74 83 74 83 69 79 96 82 76 101 108 119 144 130 123 106 89 75 70 67 77 92 58 5 -18 3 18 14 26 18 31 64 86 109 132 143 172 210 240 285 317 323 312 284
151 153 144 135 120 102 80 86 94 97 78 63 77 82 79 86 73 63 71 90 94 96 117 112 105 89 72 69 63 63 49 66 85 97 84 41 50 66 67 64 58 79 106 137 157 188 228 228 233 278 325 290 309 346
202 146 127 103 118 109 81 91 95 96 92 89 94 94 85 93 83 91 116 130 136 134 113 103 93 90 77 67 61 65 67 72 72 74 77 84 67 61 40 50 50 66 103 154 199 210 229 257 260 300 277 323 332 341
102 82 102 107 130 114 88 88 106 107 96 100 108 94 100 89 94 104 137 143 131 123 110 100 81 68 75 67 56 52 63 66 70 72 72 64 55 57 49 -5 -4 38 100 152 165 178 219 270 292 283 322 350 337 329
110 97 99 89 111 92 78 81 72 85 106 107 88 113 98 91 97 87 114 108 100 103 117 102 95 82 69 62 62 62 74 73 63 76 60 45 59 52 86 21 6 26 57 100 159 206 226 288 297 322 310 273 310 376
124 110 103 115 122 103 104 119 111 97 89 84 108 115 97 85 57 69 101 88 101 95 102 105 99 84 81 89 94 86 73 73 75 73 61 60 63 54 39 53 51 30 82 103 164 194 270 318 384 348 320 342 301 285
122 103 90 95 105 117 101 87 78 72 89 119 157 107 87 79 98 130 104 121 125 125 106 95 98 106 110 110 101 86 81 73 62 47 47 48 64 64 34 28 45 15 87 153 205 212 212 287 359 371 300 310 346 272
102 104 123 119 122 95 88 91 95 110 151 148 132 122 134 144 131 134 128 128 127 119 99 93 117 147 121 98 89 83 66 47 42 54 49 50 46 41 32 32 59 78 101 126 74 175 200 250 305 321 341 348 319 292
82 112 119 105 112 86 101 106 88 111 132 157 158 134 121 107 99 118 133 141 139 114 112 137 149 136 102 85 65 59 77 51 43 56 56 45 38 46 44 45 63 104 130 136 150 162 164 257 323 447 438 431 398 340
137 176 143 112 85 99 116 127 121 110 109 112 129 124 122 105 70 86 129 121 102 108 118 127 121 111 88 70 56 27 48 56 33 35 29 16 16 15 21 62 80 131 145 166 178 238 355 431 438 450 425 414 326 270
131 95 93 84 84 95 102 91 91 94 96 102 108 130 120 122 103 94 75 61 59 75 92 106 88 83 84 76 78 84 35 47 38 26 20 11 13 18 36 66 118 154 171 211 306 339 348 387 391 362 361 336 262 169
128 138 135 105 88 77 85 91 85 70 75 86 102 114 132 135 107 97 60 41 45 74 87 75 65 62 56 55 63 45 1 5 5 17 29 33 15 19 72 104 146 196 244 276 258 259 295 307 335 339 309 252 171 133

GFSWCAN_con_3kmhel_042.txt.gz
Helicity
19 26 21 11 3 9 26 22 49 52 66 56 9 -19 74 73 125 111 55 33 47 66 49 98 108 99 55 39 29 30 29 29 15 20 11 19 31 27 56 27 22 29 3 17 -13 4 -1 -22 -8 29 111 67 63 77
20 22 17 7 2 3 27 29 48 51 53 44 18 -3 -31 75 119 131 74 53 56 43 66 63 58 42 54 43 35 13 35 19 17 2 -2 7 28 39 51 59 60 33 2 7 -22 -13 -7 -2 -12 67 38 60 38 21
19 19 14 4 -3 4 18 29 47 53 51 31 16 12 -13 53 104 107 89 92 67 66 82 41 32 13 18 45 52 20 18 33 38 45 33 20 17 46 49 38 32 22 4 9 -26 -22 -21 -1 12 11 12 39 12 25
12 19 6 0 -6 4 20 30 42 57 50 18 11 19 6 34 96 121 109 97 63 57 70 53 23 29 42 56 67 69 61 81 76 51 31 31 34 50 52 27 41 37 44 -13 -10 6 6 45 14 30 34 34 41 49
7 14 -1 1 -6 -2 20 31 43 58 45 22 19 5 12 53 110 116 145 98 49 60 52 67 50 38 38 38 29 52 82 100 60 41 41 29 -4 3 22 -6 -2 19 5 12 -17 42 35 22 25 39 58 44 53 64
7 12 5 0 -8 -3 24 24 44 50 36 31 6 -6 38 75 124 152 149 98 47 31 25 45 41 22 28 13 12 54 68 55 61 63 73 48 48 37 35 7 2 27 30 -6 -14 56 45 34 34 44 66 78 91 96
10 14 12 5 -19 -8 14 27 41 39 28 -3 -33 -9 60 91 85 144 148 103 73 52 17 23 30 33 25 2 7 49 61 48 27 31 31 45 41 50 0 -11 64 42 77 57 75 86 52 38 37 85 105 115 121 107
13 19 12 10 -2 -6 10 21 33 30 7 -40 -6 85 88 62 58 108 89 56 62 46 24 24 15 12 0 -3 4 30 28 48 22 43 34 27 4 28 13 77 71 65 21 60 60 66 77 124 131 115 133 165 163 95
32 21 15 14 10 -4 10 19 27 30 -24 -15 51 93 88 69 87 71 76 72 49 64 35 24 23 20 2 -18 -9 -12 12 38 36 25 24 26 28 17 37 36 42 58 53 62 110 120 96 98 103 124 117 136 112 74
26 29 21 24 13 8 5 16 21 31 -27 18 58 99 73 47 80 97 55 56 67 45 20 9 31 21 0 -5 -25 -16 1 5 7 9 6 33 110 70 -6 -40 -30 12 28 58 60 61 89 111 110 84 83 95 97 78
56 28 25 35 15 18 14 14 12 48 -18 -34 -21 44 83 99 94 99 92 85 64 48 26 22 20 10 26 21 8 -3 -16 -19 6 5 33 77 103 81 36 27 14 30 43 8 32 76 73 96 103 104 75 78 85 85
53 27 33 37 25 24 21 18 15 22 -34 -43 1 96 119 100 91 94 97 86 65 57 54 52 35 20 27 34 14 7 -15 -24 -34 -31 23 64 20 19 -8 24 56 31 41 38 57 59 56 68 91 75 88 100 118 146
48 45 44 38 29 25 26 21 18 37 0 -13 -29 -32 66 80 62 53 57 85 79 55 56 53 42 35 25 40 27 18 -5 -24 -12 -34 -26 -16 -10 0 35 33 51 12 38 36 26 14 16 32 68 114 131 164 194 196
73 42 39 35 34 17 25 20 15 -5 -25 -22 -50 -34 -37 -44 68 73 76 105 82 60 46 37 31 21 24 32 35 28 19 16 8 1 -10 -4 50 68 38 49 62 79 23 18 28 27 57 117 141 159 197 214 229 235
36 38 42 33 31 23 21 18 9 7 7 9 -12 -21 -30 -41 93 84 74 91 82 83 71 49 23 23 26 24 16 24 25 23 17 20 29 37 79 80 61 44 36 49 73 67 46 56 77 116 159 199 198 215 243 280
46 63 45 33 38 27 0 3 9 23 36 38 30 -5 -12 2 46 128 125 116 93 91 82 90 101 81 58 51 52 29 28 10 40 46 32 47 71 82 83 62 37 14 13 26 47 65 94 128 168 194 225 245 257 259
47 76 20 33 28 8 2 -4 9 35 38 49 39 64 63 46 41 79 137 161 154 157 145 135 115 108 129 99 105 105 99 98 79 83 54 55 72 84 49 30 21 21 26 30 34 51 75 119 183 247 259 247 297 294
55 57 10 43 17 1 10 29 37 42 32 45 42 45 64 79 62 63 74 98 120 147 172 185 174 190 191 175 165 139 120 97 68 77 96 104 92 65 61 66 62 50 38 41 51 75 135 185 202 211 274 310 332 318
49 54 23 41 22 32 40 39 65 45 41 57 72 67 78 70 68 66 56 48 60 91 127 136 119 144 189 225 175 134 105 72 78 103 124 95 41 37 37 37 31 24 33 30 35 54 80 113 153 227 252 259 298 310
24 46 72 58 54 89 84 74 48 62 45 53 74 76 76 71 70 54 57 72 75 101 111 121 156 197 168 134 114 94 76 33 12 -12 -10 7 47 49 29 -8 -18 -5 12 25 41 86 132 147 151 186 220 245 280 292
154 108 105 105 122 132 121 101 88 71 59 52 67 67 68 70 73 72 75 77 84 89 76 91 142 160 163 124 93 64 34 10 3 -11 -11 -14 -13 -7 31 20 -13 -18 -8 31 55 60 67 100 132 177 205 222 235 282
146 130 114 136 129 128 105 119 107 85 60 58 42 60 60 75 80 82 108 113 99 96 129 126 127 114 105 96 99 103 88 79 69 61 50 37 14 -20 -18 30 43 61 46 32 56 90 111 129 164 218 254 286 313 330
190 155 149 163 147 115 96 109 101 92 87 62 60 62 75 88 81 100 75 68 61 76 120 127 118 112 100 93 83 72 57 49 64 65 74 73 63 59 58 65 30 35 60 59 43 81 140 138 154 272 303 323 315 394
231 115 80 77 97 121 109 108 120 112 112 106 100 84 70 85 90 82 85 94 96 128 142 130 123 118 113 107 103 84 79 78 70 71 53 50 61 73 56 70 89 101 93 96 91 92 113 163 198 243 305 341 334 335
142 76 94 105 132 127 109 112 120 104 90 100 111 90 71 88 82 83 97 115 102 103 99 116 112 118 121 116 113 94 67 85 83 82 76 61 50 49 60 61 65 84 83 107 126 121 95 174 201 242 274 310 333 312
146 93 87 81 119 116 101 100 86 94 101 106 73 85 85 88 87 60 79 60 74 60 68 113 128 131 128 134 141 127 76 85 101 94 98 75 59 46 45 64 79 84 66 81 106 118 110 151 176 202 229 245 232 291
152 117 117 139 141 137 136 133 118 94 98 79 72 88 97 74 43 61 58 58 79 62 96 135 165 166 146 130 121 104 108 117 126 137 108 98 95 98 97 76 96 101 54 80 88 109 123 149 151 159 225 261 271 232
146 138 109 108 133 152 103 74 76 73 73 79 129 93 59 50 61 46 58 115 122 145 156 153 152 148 134 123 119 119 124 117 110 99 93 90 98 93 85 90 83 26 50 61 79 103 135 143 127 143 219 269 307 268
163 136 151 144 157 103 75 63 79 104 139 132 98 82 95 105 83 84 108 133 161 172 159 141 112 129 129 119 137 137 127 128 116 92 84 104 90 89 62 63 69 70 69 65 45 49 112 133 155 162 240 302 280 347
130 144 145 109 110 78 84 107 82 105 133 155 147 128 109 89 84 119 150 164 179 166 142 130 120 135 111 124 122 104 107 122 136 122 86 77 76 51 39 31 36 54 58 94 64 52 16 98 126 255 369 330 310 338
193 197 134 113 85 97 112 115 108 105 112 118 121 96 76 71 54 74 138 159 178 179 138 94 79 96 116 107 105 78 54 70 82 101 110 95 69 53 50 49 55 47 66 81 77 91 95 204 276 305 344 295 264 335
167 132 130 107 100 99 95 98 98 107 102 100 89 110 98 93 68 58 81 135 154 106 55 71 86 77 93 90 95 107 50 88 103 118 118 106 88 71 66 50 41 47 56 92 112 164 279 282 256 293 343 290 315 308
165 169 161 96 66 67 83 105 86 67 70 77 75 81 92 89 64 98 91 74 75 67 62 58 59 64 57 60 67 69 46 69 37 14 29 16 53 52 55 48 56 63 106 159 176 230 252 231 242 281 286 257 280 258

GFSWCAN_con_3kmhel_045.txt.gz
Helicity
110 29 -19 13 19 19 25 27 26 38 35 31 38 34 5 -15 125 105 82 40 37 52 40 60 70 68 35 19 7 16 37 36 31 15 17 20 21 32 36 58 49 26 26 20 4 4 7 -5 -4 5 72 107 83 84
130 25 4 7 19 18 26 28 31 37 43 32 42 33 17 4 77 101 60 34 39 18 31 30 58 74 43 24 51 53 25 23 10 16 11 17 24 40 40 45 49 37 28 14 -18 -18 -1 13 5 39 51 62 73 90
35 20 24 3 17 15 28 22 24 38 42 40 38 23 25 8 63 101 55 32 68 67 67 62 43 50 42 48 45 40 34 24 26 29 29 20 10 35 44 40 23 30 30 19 21 -2 19 22 25 15 18 31 32 81
53 68 20 3 8 12 20 18 30 33 41 41 31 38 21 -7 43 108 58 56 89 99 81 54 42 46 33 45 41 50 36 69 57 53 48 41 28 55 47 43 20 15 42 24 30 9 29 36 19 6 16 32 44 68
78 64 33 6 7 9 7 14 28 34 47 39 38 15 -2 -2 78 112 87 72 55 61 74 80 62 38 34 28 43 62 71 73 76 52 48 34 30 9 7 19 4 24 23 23 1 -7 14 4 15 13 28 30 53 107
87 43 64 4 7 8 7 10 24 37 43 33 13 -14 -42 45 109 138 129 67 60 30 33 64 51 43 35 32 23 28 48 52 65 51 62 45 38 44 33 17 14 35 54 24 4 36 43 36 9 18 40 45 62 90
64 77 50 2 8 13 16 3 18 33 23 2 -16 -42 -11 79 91 168 159 96 64 44 32 31 42 33 23 23 7 15 55 52 44 43 52 53 36 47 34 66 57 44 51 37 37 87 41 59 31 38 72 95 125 125
46 112 52 8 8 21 10 -7 15 22 11 -14 -14 13 54 55 51 116 98 74 52 53 25 20 13 20 6 -4 -3 23 24 38 36 30 28 19 21 34 15 34 68 59 57 36 4 68 67 89 106 89 100 133 170 133
38 104 50 17 15 33 12 12 11 26 -1 -10 21 113 73 84 128 102 76 78 58 62 26 15 13 20 14 -12 -15 -22 11 39 42 7 17 18 25 11 34 27 20 30 31 21 54 80 97 82 75 93 101 128 144 94
109 85 61 22 23 37 20 18 22 39 13 -2 47 107 101 78 51 69 66 66 48 20 23 10 -4 20 10 5 -10 -33 14 27 30 10 11 18 74 44 17 -22 -51 -3 30 16 17 42 72 93 88 85 83 93 97 92
93 91 72 34 30 31 23 24 31 36 -33 -34 -60 89 99 87 102 88 56 39 36 31 24 20 -2 -5 16 2 12 -6 -20 9 20 -21 18 41 54 119 92 44 29 23 7 14 7 28 33 78 97 86 80 93 90 93
71 73 76 56 34 32 24 29 28 -2 -35 -25 11 100 97 113 99 85 68 69 42 34 50 38 32 18 9 26 12 9 -14 8 -13 -25 -4 67 53 87 93 84 93 89 62 62 63 27 49 61 96 124 142 73 82 108
44 54 59 64 39 31 24 35 27 6 33 -10 -37 -41 -38 -1 -50 71 50 64 50 38 45 55 39 27 23 21 15 21 13 -5 11 -13 -21 -2 28 30 41 63 79 77 48 69 133 85 31 38 87 86 82 93 130 140
19 27 50 52 42 22 32 41 29 14 37 15 1 -47 -41 -46 -84 61 58 59 89 75 55 30 30 25 10 12 4 11 12 25 12 2 -3 -14 7 62 66 68 61 98 32 17 62 18 5 41 63 73 139 160 170 171
14 34 62 66 49 23 33 36 33 20 29 22 38 -20 -27 -57 20 71 65 65 82 79 73 57 52 38 39 29 22 23 9 -7 3 16 24 25 58 66 82 74 60 62 62 66 20 16 21 49 95 129 143 174 191 214
21 30 44 41 69 45 34 33 37 39 47 40 42 35 45 24 6 43 78 94 93 82 73 78 83 75 62 69 74 51 52 17 26 38 34 52 51 57 64 55 44 37 27 22 19 32 51 76 115 145 164 173 183 209
35 32 44 25 88 40 41 42 53 61 52 49 36 53 72 48 43 61 71 123 122 121 105 113 104 105 131 105 110 93 80 87 100 89 99 107 87 78 82 73 64 47 36 29 23 24 28 57 113 160 174 163 196 205
46 34 26 12 92 80 50 45 52 63 32 39 45 41 55 68 68 81 96 119 111 124 129 149 140 147 155 160 150 127 122 107 97 85 93 95 86 64 66 69 88 79 58 48 44 38 43 93 114 127 174 208 251 237
78 38 9 16 58 119 127 105 80 77 32 58 60 67 68 68 67 85 96 95 99 113 128 127 85 100 130 167 135 113 109 87 81 83 85 59 27 46 51 60 54 44 41 45 40 35 40 52 82 126 167 196 218 218
26 29 33 50 55 106 123 125 113 112 78 45 55 66 75 73 74 74 72 73 83 102 108 129 139 124 93 78 92 96 84 58 32 -9 -16 -34 22 43 32 23 29 37 32 7 15 34 61 79 87 110 141 181 219 210
131 91 115 76 75 107 109 97 102 71 77 76 61 60 52 68 63 58 72 84 97 99 86 90 104 111 111 112 97 82 70 60 44 23 15 26 21 -18 12 51 63 52 34 30 24 31 38 64 81 104 115 133 155 201
98 129 92 85 71 90 92 116 88 84 73 57 68 84 89 67 62 71 115 106 90 89 119 117 104 117 126 108 91 95 95 91 84 82 56 48 63 54 50 56 81 103 111 106 95 65 45 93 111 118 135 167 197 224
170 144 107 79 67 67 67 107 109 108 87 59 75 69 55 55 54 96 80 66 58 66 99 104 93 106 107 108 99 77 72 73 77 72 68 68 66 65 63 60 50 63 99 140 126 120 112 91 88 128 166 190 222 248
179 110 71 50 81 88 90 97 104 106 124 106 81 83 66 54 65 57 59 59 64 92 108 103 129 136 127 117 89 72 58 74 76 86 72 68 73 79 72 68 66 64 59 87 114 147 155 129 103 136 184 209 223 292
141 86 96 90 115 107 88 83 100 97 90 101 101 86 69 81 80 80 60 49 81 91 95 108 100 93 97 85 81 82 72 96 99 98 89 79 93 88 85 83 70 68 66 62 80 110 141 157 147 160 165 198 217 272
152 98 97 88 95 67 75 72 67 93 120 101 67 85 84 80 78 37 28 15 21 29 35 31 46 83 79 105 105 122 104 100 116 112 104 108 105 101 97 76 76 90 121 91 80 90 130 136 156 170 167 152 143 263
198 147 143 154 116 113 96 108 113 91 75 63 79 90 91 67 36 39 30 37 24 -13 7 59 119 124 116 113 117 108 100 109 118 138 126 126 129 136 131 123 107 136 112 126 100 86 97 130 138 156 166 182 211 228
225 238 177 139 153 145 101 74 57 40 59 87 113 80 59 40 46 39 28 37 27 89 123 126 120 127 129 117 107 103 93 114 124 121 113 121 134 132 123 131 116 31 75 91 110 97 73 90 120 142 150 171 227 232
248 251 246 202 188 113 62 79 66 73 89 92 79 72 67 77 65 60 60 66 110 145 145 140 129 140 134 114 103 103 122 142 142 100 95 118 90 96 117 138 125 100 82 73 66 53 60 71 101 121 142 177 236 257
194 227 212 162 132 78 77 99 78 101 117 132 131 112 93 73 68 89 121 135 145 136 134 134 138 153 112 108 92 96 121 147 179 180 158 137 120 111 112 124 97 61 53 49 54 68 70 54 66 101 166 234 259 227
247 255 185 151 96 119 130 130 114 95 93 96 105 76 61 49 47 63 125 149 167 182 173 144 118 102 106 97 109 100 97 100 102 115 142 163 153 142 143 143 128 94 64 49 51 65 82 90 147 191 183 184 172 186
253 200 183 137 117 107 104 100 86 74 79 89 80 101 90 80 43 38 83 130 153 138 95 90 91 73 82 85 104 106 49 83 101 113 101 126 157 185 132 104 92 76 58 52 51 69 121 190 202 182 157 152 199 232
271 269 212 133 90 78 80 81 66 53 57 64 76 78 81 79 53 80 77 76 87 78 63 58 59 64 66 79 78 72 61 82 59 29 16 11 7 33 108 102 80 62 48 49 93 138 166 186 185 155 167 210 259 234

GFSWCAN_con_3kmhel_048.txt.gz
Helicity
130 96 53 38 56 55 -18 15 34 43 34 35 26 25 31 42 50 87 125 71 89 80 82 88 113 59 47 16 23 1 17 26 34 26 20 27 24 37 36 40 32 42 32 32 26 21 29 25 24 9 6 26 64 70
98 75 38 65 52 36 1 11 34 39 41 48 44 38 38 33 33 41 73 94 27 31 59 31 55 73 63 50 31 29 19 20 18 35 31 30 24 34 38 32 53 32 33 35 22 27 32 20 7 35 40 22 43 59
95 50 66 43 47 28 14 4 31 34 44 49 64 54 24 20 14 3 59 45 43 19 21 15 33 21 46 41 48 43 23 26 32 30 27 28 17 29 37 35 34 37 27 42 27 35 76 51 21 35 32 27 34 42
92 83 59 42 50 59 22 3 21 36 47 49 71 43 31 4 -13 3 18 -6 55 81 73 59 73 62 59 53 51 52 41 64 56 51 35 41 39 42 37 36 42 37 20 31 39 33 22 31 15 18 17 20 32 57
92 90 64 65 53 89 17 3 23 41 41 58 44 26 -13 -22 -35 44 26 26 56 93 94 88 70 42 40 41 51 60 71 75 66 63 52 61 44 40 28 21 19 28 26 42 36 2 -18 -10 2 7 9 14 32 73
107 94 67 42 53 82 15 5 19 25 39 37 19 -11 -35 -41 32 45 31 16 75 45 92 95 66 49 51 52 45 43 53 73 52 58 71 56 59 44 42 30 33 33 46 21 4 2 -2 17 38 37 17 24 35 70
98 78 86 46 83 64 11 15 9 -4 28 8 -9 -7 1 25 60 72 75 83 52 58 50 79 68 53 42 48 39 39 56 62 78 60 55 53 40 63 47 43 57 18 27 32 19 27 22 12 5 39 35 61 78 92
102 86 78 62 106 60 21 12 4 -8 8 -15 3 -6 16 47 52 92 86 114 51 53 35 42 37 45 29 26 23 31 31 39 39 56 57 52 64 56 51 62 65 79 112 58 80 56 25 42 87 61 54 71 99 113
90 78 57 98 97 64 33 17 18 16 39 1 19 84 83 120 81 74 75 55 56 58 31 20 21 19 16 12 -5 -14 3 32 37 17 36 40 51 38 55 81 33 35 57 77 64 43 40 50 52 58 69 75 95 124
63 65 87 101 102 63 23 27 32 39 54 32 72 -5 44 122 80 87 67 38 33 17 10 14 -2 21 23 18 8 -2 7 19 15 11 16 27 54 30 26 8 -20 20 44 35 28 34 59 57 71 73 69 72 99 135
103 84 82 100 104 77 28 36 35 45 26 -9 -58 10 64 41 49 69 37 36 32 22 17 10 -7 8 20 6 14 26 -1 14 29 14 11 28 36 48 60 37 52 64 60 53 13 7 -2 11 66 94 73 75 102 123
105 96 64 77 101 86 39 33 26 8 42 13 25 71 65 102 91 60 45 55 29 16 24 32 22 20 9 33 16 22 -0 16 2 46 6 34 50 84 71 82 89 84 95 90 67 65 48 37 51 88 97 109 97 94
118 78 52 58 68 89 41 39 29 24 86 78 32 -80 -76 -45 -87 -50 30 59 48 35 26 55 44 42 34 37 22 14 -3 -8 23 33 8 6 28 82 63 42 67 90 64 76 87 106 102 66 92 109 148 91 85 68
79 19 13 30 52 121 39 41 31 24 58 111 61 -75 -132 -152 -121 -47 58 67 65 54 56 53 51 61 50 37 19 16 10 19 -7 -5 17 7 1 25 40 54 45 80 86 59 50 81 67 14 32 33 31 78 68 78
77 26 29 48 47 53 47 44 33 29 31 79 94 -9 -45 -7 53 74 61 38 56 50 74 75 74 62 74 57 40 37 25 2 -15 -5 32 12 30 42 61 60 47 41 31 33 58 42 16 -8 -16 1 31 64 101 144
7 1 38 33 43 70 91 44 43 44 51 55 86 95 77 92 60 61 60 39 63 79 74 77 80 79 68 76 72 56 63 33 28 33 24 39 49 63 83 92 90 69 52 45 32 25 30 42 44 61 94 108 118 145
66 32 20 20 43 80 96 76 55 63 52 59 50 59 67 62 59 74 88 82 103 99 95 117 98 105 115 101 105 79 67 63 67 79 90 92 87 67 58 60 69 75 78 73 67 57 38 30 42 68 84 105 135 146
32 6 18 -2 40 85 124 151 113 104 85 47 54 51 57 71 72 74 82 98 110 110 115 161 143 143 154 158 141 116 111 94 96 91 87 81 74 56 64 73 63 55 57 60 55 46 51 54 54 61 83 113 153 172
62 29 9 -5 31 62 96 92 139 104 100 89 67 66 65 74 73 75 77 81 91 115 111 91 64 72 91 135 91 70 78 80 86 95 94 72 47 57 50 46 53 62 63 73 75 62 43 34 35 55 85 116 137 159
24 9 15 27 27 24 37 50 72 86 65 84 90 84 72 83 82 87 86 74 82 114 115 116 118 132 89 66 55 67 83 89 78 49 30 21 20 15 4 -1 18 56 76 82 77 100 65 48 51 58 79 108 144 144
90 66 93 38 15 31 31 46 68 42 55 63 70 71 82 77 74 76 81 95 110 110 90 78 89 103 127 126 121 103 87 74 57 51 42 47 42 38 50 53 49 49 50 73 89 121 139 102 100 83 86 91 115 127
90 96 39 36 23 41 57 77 61 71 71 55 64 65 67 74 97 85 89 129 109 95 114 101 91 125 148 126 99 90 87 83 82 79 63 67 89 91 87 67 62 69 67 68 74 92 122 160 166 122 106 111 114 158
142 86 53 42 38 46 31 65 78 90 75 59 71 65 49 57 52 79 67 67 87 98 116 116 109 128 133 128 111 97 91 93 85 80 77 76 79 83 86 88 81 80 78 93 88 81 86 116 142 151 135 129 174 175
139 83 44 14 44 37 67 60 56 74 91 92 74 76 61 52 74 67 62 51 87 91 99 100 148 170 148 125 84 75 79 92 83 83 73 80 80 87 77 79 83 89 92 79 78 82 84 89 115 128 141 156 151 168
110 53 61 50 69 60 64 71 77 85 65 71 82 83 60 74 69 62 60 56 70 73 94 110 109 105 95 78 86 73 81 91 79 87 88 84 95 90 85 87 81 86 93 105 96 83 75 92 106 125 128 158 162 141
92 81 77 62 98 68 41 47 36 56 77 70 48 67 74 66 68 27 36 34 40 29 54 53 43 44 18 53 85 90 71 89 117 121 115 97 98 100 96 87 78 87 95 114 121 101 90 96 98 111 127 103 95 140
195 158 154 178 149 111 69 82 92 58 38 29 49 76 71 53 23 35 38 34 31 16 -8 -5 32 42 47 81 84 88 103 128 134 123 107 115 135 146 149 136 121 143 125 112 117 110 91 97 101 96 115 137 129 140
266 242 187 190 189 152 92 80 44 17 30 61 99 71 41 28 40 39 33 53 24 21 32 39 31 63 88 92 106 131 120 128 116 86 85 115 125 122 122 144 142 60 97 106 106 110 99 98 107 93 87 113 115 122
309 252 289 264 229 157 104 99 83 81 114 109 63 66 72 57 40 44 56 69 75 70 76 81 99 148 157 142 127 117 122 127 131 99 88 90 100 111 105 127 144 149 136 125 88 76 64 67 94 104 73 93 112 127
220 215 268 223 165 133 132 131 93 106 115 138 125 92 62 54 56 73 100 107 100 86 96 120 147 165 131 123 107 105 97 117 146 160 144 120 128 111 118 140 157 171 160 135 96 63 47 43 51 63 71 110 154 156
168 237 242 192 125 166 183 168 150 122 107 100 106 79 76 63 38 38 114 144 168 175 171 157 142 132 136 123 112 98 83 97 118 114 125 138 133 130 138 143 159 168 148 110 82 64 58 47 50 64 152 166 124 118
232 201 190 180 176 165 157 142 122 103 93 92 86 108 100 92 52 40 85 119 133 122 96 112 114 86 84 80 89 88 75 105 107 105 99 123 143 158 173 142 143 150 116 91 69 45 31 24 60 121 138 137 112 109
246 259 239 172 145 133 142 129 95 48 45 67 69 82 92 81 57 79 95 83 81 80 83 75 67 65 62 66 69 78 77 101 74 43 42 48 37 38 84 101 110 105 75 49 38 37 24 60 94 123 141 126 128 120

GFSWCAN_con_3kmhel_051.txt.gz
Helicity
152 153 134 112 104 65 76 71 28 36 22 26 33 26 27 30 72 91 127 117 145 105 100 121 141 121 96 59 27 8 31 33 36 23 17 27 31 31 19 14 11 30 19 41 29 33 48 24 50 24 10 26 5 32
153 151 116 119 104 62 84 60 36 53 17 40 37 33 35 36 74 107 138 104 115 101 103 96 113 109 87 80 45 36 31 33 39 48 35 38 39 40 28 37 50 26 31 35 16 44 43 47 38 25 35 38 21 44
157 143 138 108 84 77 86 37 47 40 18 26 31 46 51 57 81 75 91 58 12 35 54 35 59 70 59 71 70 49 45 49 42 37 42 37 29 17 27 23 26 16 49 47 36 42 62 60 32 31 20 32 27 37
170 150 114 105 92 71 41 36 63 30 30 40 30 52 48 31 29 45 47 6 48 65 68 58 53 23 51 55 39 28 50 68 56 55 56 34 27 20 11 17 22 33 43 23 49 66 40 34 11 1 25 34 24 46
145 117 135 87 74 67 51 34 51 26 26 31 46 49 46 -7 -23 6 1 47 17 51 88 71 67 68 63 44 52 51 65 72 75 69 53 49 42 39 41 32 -1 15 21 38 29 20 16 15 -6 16 26 12 13 48
111 121 118 96 63 31 32 38 48 10 22 18 36 33 -8 -48 -22 -42 17 -65 14 11 107 105 86 72 55 34 43 55 69 80 64 59 73 53 73 45 35 32 42 87 99 55 7 9 -21 4 1 14 29 24 26 30
96 124 113 74 47 16 12 55 32 10 -7 7 23 -20 -23 13 -16 49 34 9 29 46 109 98 89 72 58 59 55 54 65 49 83 82 72 94 63 99 69 67 65 54 48 53 61 32 28 18 11 14 45 55 56 59
115 122 88 68 32 18 45 57 19 2 -16 12 -19 -10 22 -14 10 67 54 92 55 61 83 65 64 61 48 50 43 41 58 84 93 78 69 71 71 83 67 87 65 63 95 44 60 54 37 28 41 55 69 66 51 60
118 120 79 41 36 29 58 49 13 5 17 28 -7 89 97 99 129 83 42 20 35 56 44 49 44 29 30 36 16 6 3 14 48 58 77 72 82 55 63 51 46 43 33 59 55 59 36 34 18 37 64 63 52 57
107 101 56 47 34 35 71 38 23 19 53 21 -18 124 -29 87 61 56 70 31 27 9 10 28 17 30 25 17 13 17 9 15 26 32 35 49 48 81 33 33 19 23 23 11 -16 -2 22 34 31 37 56 58 60 70
85 72 55 40 49 80 114 33 38 32 50 2 26 63 83 69 70 92 49 33 18 21 -1 5 -0 16 40 31 22 37 24 18 21 21 20 18 27 45 27 9 14 26 28 21 3 24 24 -3 -0 20 48 77 84 83
79 79 61 74 60 99 124 30 36 24 47 15 55 58 67 65 88 57 32 41 29 27 18 33 30 31 26 39 38 29 14 22 20 47 -0 10 56 44 42 43 53 49 55 75 74 64 64 40 39 47 65 90 98 112
119 74 76 60 24 96 146 39 40 20 80 75 78 79 -41 -23 -71 -79 -66 32 31 27 32 46 53 52 57 51 41 31 11 4 40 25 2 23 55 73 82 79 75 67 52 53 71 96 116 96 107 96 94 127 145 130
73 99 59 9 8 46 130 31 35 35 92 85 118 -10 -87 -131 -81 -69 -14 51 55 63 67 58 62 67 56 62 46 37 32 34 9 4 5 40 14 7 9 27 38 81 56 45 53 68 74 73 57 48 71 98 112 68
67 48 9 -6 21 56 87 46 34 48 80 106 118 120 -66 73 76 61 71 68 84 93 97 95 80 61 72 77 66 61 50 26 8 1 26 39 23 21 30 52 47 31 16 6 16 40 38 14 35 7 5 25 64 39
55 48 45 27 59 72 70 78 51 61 69 94 109 121 69 105 113 98 72 80 77 95 98 91 90 83 73 89 85 68 69 40 43 44 47 55 58 56 57 68 73 66 68 67 53 27 3 1 17 16 24 29 34 41
51 39 14 42 42 58 56 135 113 88 64 81 83 74 73 68 83 97 99 89 79 111 113 125 99 104 106 100 103 100 80 62 52 69 69 72 82 86 83 86 79 62 51 46 53 60 59 53 30 20 14 32 64 90
40 17 35 36 49 62 97 124 162 160 122 51 64 63 75 87 78 76 81 95 121 140 145 150 139 128 123 146 118 83 91 82 78 72 74 77 74 64 71 72 55 48 57 59 51 43 35 45 49 47 48 44 61 85
32 16 30 21 49 68 66 78 123 131 112 105 90 69 58 61 83 70 81 96 107 127 141 141 117 119 111 132 98 63 64 67 81 103 113 103 75 63 46 23 7 7 23 44 49 58 66 63 58 64 62 54 65 80
6 -4 11 32 22 24 32 37 51 75 88 83 82 80 90 73 74 89 89 85 80 96 111 107 100 112 67 49 55 71 66 89 97 82 69 57 48 29 10 4 4 12 21 28 29 62 75 116 118 106 87 76 79 84
56 46 57 16 -3 -1 -5 3 19 22 37 64 79 74 61 80 92 79 83 101 94 121 110 96 111 89 92 75 93 119 115 96 80 79 68 62 58 61 52 33 25 21 21 33 41 63 66 67 96 127 123 107 95 100
38 46 13 14 8 13 6 8 1 18 32 40 49 56 71 71 72 77 92 111 93 75 117 106 103 118 129 119 104 108 98 100 95 85 74 72 76 76 68 56 61 62 56 42 38 54 76 83 82 91 97 111 112 121
84 45 30 30 13 12 -3 3 17 32 25 27 47 54 53 66 65 76 67 65 74 82 117 136 113 125 136 160 148 137 116 107 85 71 69 71 74 75 80 78 73 77 82 90 75 83 84 60 72 80 89 102 111 118
73 48 23 18 19 -10 23 32 31 33 42 52 50 55 53 59 73 69 62 90 121 123 122 120 157 163 181 189 130 92 93 105 93 88 74 81 72 66 68 76 79 89 82 86 91 86 81 86 79 86 86 88 103 114
73 27 37 22 36 33 25 44 53 51 49 36 39 43 46 62 60 54 82 105 86 95 102 115 120 121 133 111 111 83 85 107 105 79 67 85 87 90 87 87 83 86 73 72 80 81 89 92 93 103 106 100 92 115
78 68 58 59 54 35 26 30 23 5 19 25 13 41 64 55 54 16 50 25 46 49 83 102 90 87 50 52 87 77 58 86 111 95 82 95 109 115 104 100 99 93 42 74 92 87 89 98 91 90 101 111 107 86
152 112 127 162 118 101 67 65 73 47 16 -1 21 41 51 30 16 25 27 38 36 38 38 40 52 31 14 30 50 72 92 110 110 94 111 104 114 130 146 118 94 95 102 111 114 117 111 105 101 97 95 92 103 111
187 217 191 210 203 183 113 100 48 15 24 35 46 28 15 17 24 22 34 34 31 36 34 6 -9 13 43 60 81 126 125 125 117 102 84 93 114 104 62 75 83 32 83 113 115 118 126 126 118 107 95 81 87 109
349 343 360 293 262 162 106 122 89 95 121 146 79 64 66 75 50 40 21 25 46 61 74 80 65 101 123 135 146 145 150 136 125 104 92 96 111 76 67 87 101 126 141 142 92 83 88 112 126 119 111 106 104 113
327 327 320 261 217 164 153 133 103 138 152 159 155 131 94 75 56 56 63 81 94 92 100 121 148 167 138 147 131 131 112 128 145 150 136 115 91 85 106 119 123 129 154 152 131 110 80 110 105 102 84 80 83 120
281 343 277 224 180 191 181 169 186 159 144 131 138 101 87 55 47 31 105 139 164 198 202 191 180 157 155 139 128 109 88 100 108 88 86 103 107 113 112 120 138 159 160 147 141 129 110 115 116 72 68 54 69 82
270 222 207 174 150 123 153 163 150 130 129 138 114 124 101 85 47 21 67 105 131 131 102 117 124 100 104 105 99 89 84 97 95 95 88 109 119 124 128 148 175 227 172 134 148 134 100 83 73 51 37 40 64 105
247 276 242 174 117 115 138 135 135 106 105 81 72 88 95 77 53 87 98 95 87 80 69 69 78 85 83 77 70 58 48 70 61 47 44 43 41 56 90 110 100 139 151 150 135 89 55 34 33 30 46 70 87 91

GFSWCAN_con_3kmhel_054.txt.gz
Helicity
163 135 160 163 139 154 132 94 72 68 32 39 34 30 9 10 31 52 57 87 120 106 105 155 156 113 115 78 60 40 54 45 40 34 30 35 38 40 43 28 28 23 30 27 41 35 49 19 54 40 26 34 28 6
157 148 163 147 144 165 117 79 69 67 19 41 37 15 28 22 29 65 61 115 106 117 113 154 122 122 104 111 89 72 57 41 38 43 43 38 32 38 34 29 33 4 3 2 22 48 50 55 59 56 43 39 36 25
160 169 174 158 158 123 89 78 63 48 27 43 26 21 33 45 54 95 81 110 129 100 61 81 88 100 108 77 74 66 67 60 53 58 60 52 39 33 21 12 20 18 37 30 52 37 49 69 44 55 24 13 20 35
152 156 160 171 148 103 82 64 56 46 33 43 43 26 52 66 60 65 142 91 108 96 62 68 65 67 94 98 81 72 44 75 75 69 70 54 40 28 17 12 13 5 34 19 45 39 55 36 33 32 17 16 26 38
278 193 150 133 136 86 63 66 70 49 36 48 30 36 52 42 38 38 85 60 44 -51 -7 37 139 76 99 75 81 73 54 62 67 77 69 42 38 25 32 40 31 43 30 31 27 47 24 27 3 -1 8 8 13 37
150 134 108 137 114 77 65 49 32 21 27 26 27 38 20 4 8 67 -23 -23 19 -31 42 66 80 65 56 61 44 58 52 72 81 71 68 65 88 51 1 -6 25 55 92 52 -4 8 8 27 5 1 5 -6 20 38
195 128 114 137 90 68 44 35 15 27 7 20 6 4 -18 -16 56 -28 -69 42 8 37 38 105 84 85 64 80 68 59 64 67 77 69 72 75 65 37 76 75 53 64 72 53 34 20 30 32 38 28 12 26 61 72
153 118 120 117 78 57 48 25 19 18 -0 -6 -13 -9 -4 -24 -19 17 83 2 32 46 56 118 92 79 76 66 56 48 65 82 59 70 79 107 88 85 44 67 61 53 44 15 64 30 11 26 26 19 35 42 53 68
126 94 134 119 76 68 49 18 5 -11 2 3 -23 -9 -42 60 24 87 56 48 41 54 85 49 54 57 57 61 57 44 42 22 43 68 85 81 106 65 64 48 38 32 35 52 39 29 29 16 32 13 20 32 40 66
97 130 119 107 59 62 36 17 -5 10 17 5 -3 19 1 113 43 29 53 50 22 24 32 46 32 45 33 50 38 38 24 20 9 51 68 68 74 114 96 71 29 28 7 2 -27 -22 17 12 32 32 29 30 32 55
130 150 125 63 71 69 36 38 4 29 38 29 42 56 97 58 58 72 64 42 22 30 10 25 26 30 40 38 41 42 26 28 9 31 39 43 26 65 74 31 14 14 14 11 -7 -2 3 6 34 34 15 25 48 62
127 120 90 79 82 62 45 26 8 30 26 41 56 39 88 91 73 5 -5 39 32 34 29 26 20 42 38 47 44 37 30 40 9 40 26 -2 40 45 47 39 35 26 25 37 39 46 51 40 27 22 23 40 71 79
104 87 71 87 80 60 41 47 5 13 40 77 67 86 89 43 -63 -87 -85 13 31 24 45 52 57 59 63 59 44 29 12 17 57 34 6 -1 50 17 41 54 61 55 54 34 41 66 69 85 68 72 77 101 112 118
104 87 89 100 75 32 63 72 21 44 80 109 94 105 109 31 -32 -48 2 37 50 36 36 31 66 71 69 86 64 37 38 46 23 21 7 41 59 44 20 19 20 46 66 40 80 62 43 76 96 76 85 99 111 116
85 59 71 80 56 39 62 86 36 67 76 124 117 115 65 69 54 49 46 52 49 57 67 77 85 82 89 98 81 83 59 40 25 22 28 43 49 35 27 27 26 18 23 24 14 33 46 57 46 25 33 25 40 61
63 62 58 81 76 78 61 108 89 76 89 105 132 117 73 79 56 73 69 68 73 95 105 102 95 94 98 103 97 82 93 46 39 47 44 60 57 55 63 73 73 52 38 34 36 34 19 21 4 1 13 13 14 28
118 59 47 104 82 57 62 121 163 146 96 126 111 102 78 76 73 72 84 83 75 108 128 118 112 119 130 122 131 141 81 51 43 49 65 74 77 73 76 86 85 76 64 47 28 16 18 32 36 42 46 34 12 9
29 9 67 72 98 96 118 140 156 168 151 105 77 91 93 68 56 65 86 101 99 94 116 148 132 126 143 156 114 78 80 73 48 43 60 79 84 79 71 70 63 52 45 38 32 28 26 44 39 33 34 38 45 53
5 17 34 58 53 53 73 115 180 110 117 120 91 79 75 85 92 91 86 91 92 109 151 164 181 181 144 113 97 65 41 53 31 36 87 99 96 90 101 85 60 47 48 42 42 38 37 49 68 86 85 72 66 66
12 15 43 45 27 38 57 59 61 77 64 95 98 93 98 93 84 98 88 87 92 102 128 131 144 154 78 54 49 50 60 94 129 115 83 82 80 74 40 26 17 15 19 20 22 40 40 48 44 60 79 94 99 112
70 71 55 4 -7 -6 1 3 24 25 45 53 58 79 75 69 80 84 86 90 105 117 109 117 135 116 97 72 60 50 58 96 96 96 78 79 72 72 57 51 50 43 43 38 41 43 43 38 55 66 73 78 93 99
22 6 6 4 3 -7 -25 -23 -16 1 13 27 38 56 76 81 79 76 86 99 101 91 124 134 134 114 125 111 88 83 95 125 124 113 112 105 87 73 60 48 57 46 32 17 20 30 49 59 62 61 65 74 82 96
28 17 18 12 -3 -12 -23 -18 -15 -17 -9 17 32 31 35 49 62 74 70 61 64 84 127 140 131 119 103 135 136 144 130 128 106 92 84 79 70 67 67 59 52 49 49 57 46 55 64 53 58 67 70 80 79 96
18 21 20 19 15 -13 -11 -1 8 8 -2 -3 2 11 18 26 46 42 42 86 117 120 116 123 162 176 155 160 135 113 100 110 110 102 87 87 80 68 64 64 58 63 65 75 78 67 68 70 69 78 68 78 86 93
47 39 40 27 7 15 7 -1 -5 -1 -17 -17 -3 2 9 28 21 30 65 62 62 62 77 103 111 113 125 128 121 97 103 116 113 92 82 88 94 92 72 63 66 71 77 82 76 76 64 63 72 80 89 93 98 102
58 49 38 32 33 23 -3 -18 -44 -59 -35 -37 -53 -18 15 14 21 -3 20 13 17 27 50 91 98 90 69 60 83 90 80 99 127 111 91 92 96 91 74 68 67 78 66 92 92 79 72 69 76 86 100 101 95 119
107 77 97 146 114 101 81 71 60 18 -26 -45 -24 -5 -17 -28 -11 2 8 10 28 41 50 35 46 59 68 54 30 51 86 119 116 92 104 92 87 100 116 110 91 85 90 90 94 98 89 84 100 116 122 130 135 139
139 191 197 195 205 173 111 107 59 -5 5 2 30 -18 -45 -36 2 -3 -32 6 29 31 20 12 -13 -26 -7 6 38 79 115 129 128 100 74 77 112 111 97 91 94 43 72 99 109 113 116 113 114 125 132 135 146 176
236 279 325 268 237 156 109 110 95 96 124 127 68 65 44 64 76 59 36 32 40 41 30 39 57 90 95 95 120 131 141 161 163 114 80 78 107 85 78 86 84 96 102 107 64 64 95 117 119 133 131 150 144 153
279 287 285 249 205 182 170 159 132 141 155 163 171 172 137 110 84 100 109 101 96 71 67 78 112 174 172 191 147 131 131 150 161 168 139 112 86 87 111 109 98 101 122 136 120 107 77 113 118 127 113 103 104 112
244 265 270 232 202 212 234 239 234 179 173 168 177 148 119 87 64 35 111 169 154 180 175 169 173 180 200 185 173 148 111 116 131 108 100 101 93 97 100 108 120 138 157 155 151 135 128 143 148 120 106 102 97 81
223 179 198 167 184 204 219 208 198 183 175 169 153 170 138 102 44 21 108 128 149 120 80 105 123 102 127 141 144 128 122 109 94 88 85 97 101 105 109 121 142 164 162 158 177 179 154 139 127 115 94 82 76 68
297 274 251 197 174 155 149 146 135 122 126 120 99 87 113 100 79 103 146 132 110 77 74 80 91 103 104 101 88 76 74 75 62 45 35 36 39 57 88 110 128 144 140 149 147 160 128 97 73 56 50 53 49 44

GFSWCAN_con_3kmhel_057.txt.gz
Helicity
209 155 129 131 100 130 128 121 128 99 82 72 49 20 15 32 41 37 17 24 69 104 63 91 134 136 144 116 79 50 91 66 77 74 51 43 42 42 47 39 39 45 46 47 42 53 62 31 83 53 70 54 44 31
238 230 166 152 110 130 157 153 126 96 91 69 39 23 18 19 18 48 45 40 39 65 77 60 85 86 120 129 111 91 67 54 47 72 61 47 38 38 42 49 48 37 26 24 24 42 47 71 63 66 62 55 43 32
277 245 217 173 109 111 159 134 116 92 78 59 40 39 34 26 39 53 46 47 51 17 5 58 50 135 108 90 92 116 90 69 66 73 63 55 39 45 36 29 33 20 31 33 45 35 9 9 32 55 45 29 28 17
319 276 174 109 150 154 166 111 94 86 75 72 40 41 51 39 68 71 128 133 132 114 147 148 105 135 61 86 101 86 102 91 78 77 69 53 44 51 38 39 32 13 47 25 31 27 31 43 35 72 58 40 32 21
333 294 232 198 155 152 123 90 85 74 66 46 24 41 30 49 51 111 126 104 121 77 64 69 42 38 87 86 82 87 76 72 71 77 73 41 61 44 43 55 39 75 72 73 38 43 56 39 29 3 23 24 11 8
399 307 254 269 141 147 132 79 78 59 40 12 27 24 51 38 58 98 23 46 110 40 -64 -125 20 65 54 84 88 84 76 85 64 62 68 67 99 73 28 36 29 16 55 57 57 46 7 28 26 26 24 21 14 6
393 311 287 140 163 153 120 84 67 48 27 17 37 37 25 10 52 21 -44 -36 35 14 67 62 73 74 79 86 84 91 88 73 71 72 79 89 75 81 62 39 51 58 81 72 36 51 36 46 41 66 30 32 39 30
361 341 251 162 169 150 101 77 63 38 11 21 32 0 -14 -6 -18 -34 52 10 -1 9 54 96 72 60 86 63 69 71 65 70 64 78 112 79 88 99 32 68 84 81 78 65 100 63 30 50 51 40 27 29 25 17
320 282 217 201 204 127 105 71 55 19 4 16 -4 -12 -43 -60 -58 75 68 116 57 33 77 68 63 64 68 98 74 73 62 50 71 54 71 85 112 76 64 59 48 51 40 57 47 32 34 25 41 48 42 32 32 21
317 252 207 198 128 164 100 61 48 8 20 -7 7 55 61 -30 45 5 36 36 36 28 25 32 56 66 68 69 59 45 48 20 -10 10 60 73 104 147 142 126 87 56 33 33 19 22 21 11 30 44 44 48 47 38
358 341 213 164 193 124 66 80 33 28 25 39 29 60 47 40 46 56 27 24 11 28 13 28 32 48 46 44 39 65 31 31 -8 1 44 44 47 87 99 70 41 20 12 14 6 2 -17 -14 22 59 69 46 43 42
273 214 142 161 120 74 78 58 36 29 19 19 28 48 60 65 75 16 -73 38 38 30 32 33 14 39 48 61 49 38 26 21 -5 58 39 15 48 42 30 39 48 44 36 28 36 40 41 38 36 35 40 41 40 43
351 227 149 125 78 91 93 38 8 -1 31 28 46 87 113 86 31 -89 -117 -43 40 29 26 46 52 55 51 59 47 29 11 10 43 23 17 45 41 28 14 23 30 22 32 55 55 57 53 56 65 51 66 74 79 89
233 175 140 110 94 74 75 42 28 0 47 78 121 158 133 101 47 16 18 44 48 34 38 57 59 48 63 70 49 19 34 39 19 21 2 36 49 41 26 21 20 22 30 40 61 89 79 60 39 41 56 68 79 95
143 115 138 85 72 51 68 65 65 47 80 129 131 164 109 99 87 47 54 65 71 55 43 46 58 60 69 59 61 75 46 25 8 5 24 42 72 54 39 27 24 12 3 3 2 13 21 27 29 51 45 16 23 34
138 117 148 67 60 70 88 95 131 163 145 122 128 148 112 119 85 67 53 57 55 56 70 80 64 56 50 63 58 51 71 30 29 39 26 62 60 57 52 52 50 37 27 20 11 5 0 6 0 -15 -11 8 13 9
196 158 54 91 81 73 69 108 149 183 196 194 137 112 95 107 101 78 65 60 63 70 86 105 70 61 83 68 76 113 63 42 54 52 40 46 68 75 81 78 78 71 59 43 25 19 15 22 18 23 33 36 28 21
123 55 128 125 134 117 117 137 152 160 137 120 107 94 75 82 83 87 89 109 110 83 110 117 130 -5 -24 104 99 66 51 61 42 28 26 62 85 82 81 85 79 65 51 38 31 26 20 28 41 52 64 69 53 44
32 68 100 93 62 74 102 117 123 59 84 93 80 76 70 91 95 84 82 89 105 109 122 132 106 150 156 130 59 63 52 47 30 29 43 65 84 93 98 88 64 52 48 50 62 59 49 48 44 52 59 66 74 94
39 49 43 42 38 56 71 75 93 95 58 86 87 84 81 73 86 106 124 124 114 110 125 110 141 166 106 92 74 68 62 86 115 108 54 58 79 94 69 58 54 48 41 33 29 35 29 26 27 25 28 36 47 57
54 14 17 7 16 37 40 37 48 43 46 60 64 78 78 54 70 78 81 100 98 107 92 84 87 96 116 111 81 77 69 87 88 97 84 93 92 91 76 59 51 41 38 35 33 26 28 24 27 31 37 44 50 56
8 -6 11 16 1 -9 -16 -6 -14 3 14 28 36 59 67 84 88 76 81 85 71 78 96 91 99 85 98 91 73 76 88 118 128 138 141 133 125 99 64 52 60 46 40 33 35 34 32 30 30 34 42 48 57 60
8 -1 -1 -6 0 -3 -18 -19 -19 -24 -30 -16 9 20 29 43 57 73 71 50 52 75 108 101 107 95 72 88 97 114 113 139 131 112 103 97 101 103 104 74 65 61 49 39 43 37 42 32 39 43 45 47 46 60
23 9 5 8 8 -11 -20 -13 -23 -26 -28 -37 -37 -22 -1 16 35 34 40 60 73 75 70 70 90 130 139 132 103 106 113 135 141 136 111 112 91 75 72 67 63 61 65 78 80 65 46 41 46 57 56 64 68 66
37 29 25 22 8 10 7 -7 -17 -39 -57 -50 -48 -55 -48 -24 -11 1 15 24 21 39 40 41 61 76 74 80 82 74 92 122 123 93 83 100 118 119 93 70 65 60 73 89 81 78 65 65 65 60 61 65 66 67
41 33 36 22 28 22 8 8 -22 -45 -39 -52 -80 -59 -37 -40 -46 -43 -8 27 21 4 15 23 32 53 53 59 65 73 65 93 119 93 88 105 103 98 79 75 81 72 68 88 90 80 71 63 57 54 59 62 64 79
83 53 62 79 64 59 47 46 49 26 -14 -49 -34 -39 -54 -62 -76 -69 -60 -55 -41 -16 -2 10 27 23 31 43 34 24 45 83 93 82 102 93 84 88 101 89 77 70 102 99 92 82 73 71 71 73 74 82 94 96
85 80 72 88 112 105 80 72 43 9 10 15 38 -37 -64 -62 -30 -40 -40 -11 3 17 2 -3 1 5 -21 -30 -1 47 78 110 132 115 98 87 93 106 97 92 109 86 98 96 95 99 94 90 92 97 100 99 105 136
164 168 168 155 135 101 70 75 63 80 94 112 78 55 39 68 47 42 36 52 77 77 45 31 30 67 88 91 90 95 109 155 169 114 90 94 125 106 103 106 102 103 103 103 74 74 86 109 105 115 106 124 123 133
143 151 153 131 129 111 104 123 109 119 145 156 153 149 128 109 79 97 127 135 130 119 117 83 87 142 123 157 141 143 148 153 151 164 135 110 97 93 100 111 105 95 100 105 102 100 94 124 113 124 121 118 117 122
187 177 194 174 130 135 173 179 185 179 192 186 178 152 128 94 84 71 130 147 139 185 166 143 148 141 153 162 169 155 129 155 157 133 136 141 128 117 95 90 100 113 126 133 135 135 133 149 147 134 123 108 101 88
208 188 235 272 231 161 153 155 171 205 213 203 180 212 210 203 53 -20 67 136 151 118 100 96 85 77 116 127 124 152 158 137 110 95 83 86 85 84 93 111 129 150 157 155 158 160 161 150 144 124 104 78 66 53
222 245 251 239 175 126 109 126 121 90 118 137 128 136 156 113 18 31 80 127 134 102 65 72 76 94 100 100 112 112 105 87 73 56 39 37 41 60 93 119 131 163 181 181 174 169 145 112 99 80 56 39 25 21

GFSWCAN_con_3kmhel_060.txt.gz
Helicity
173 196 221 168 163 129 113 78 98 105 125 117 121 101 76 51 29 62 79 49 73 85 96 87 83 108 145 131 135 100 105 70 69 60 62 65 50 50 48 50 45 34 45 52 47 47 47 62 86 68 80 71 81 79
128 205 241 228 241 184 155 117 85 124 138 123 116 87 65 57 49 72 77 54 68 52 81 61 72 44 65 136 171 138 138 74 73 70 70 61 63 58 54 61 56 46 44 47 32 58 51 75 111 72 46 78 85 49
67 176 250 305 267 229 165 63 89 145 95 101 108 92 94 73 44 67 81 83 97 38 -12 25 45 37 45 64 118 157 105 111 77 82 71 63 59 52 44 33 44 22 23 41 41 34 5 19 34 22 82 89 67 36
-35 66 221 268 322 249 177 154 116 126 83 97 94 89 71 70 53 67 117 119 149 68 -7 1 111 92 139 105 91 90 117 118 97 80 72 58 54 49 53 57 42 54 49 23 30 13 32 31 15 32 68 77 56 33
43 70 192 280 327 268 199 193 157 113 96 90 70 47 45 47 41 100 126 127 135 123 101 67 46 101 123 106 109 55 73 107 87 75 70 53 75 60 51 41 15 58 57 58 34 23 37 41 54 75 55 52 61 34
46 56 171 323 313 272 242 188 140 141 99 85 56 35 56 48 120 123 50 54 74 89 9 -9 1 17 49 6 44 81 74 80 83 55 68 72 81 66 24 21 31 50 62 62 34 71 60 71 36 25 37 50 44 30
105 72 116 350 326 292 215 195 205 134 109 71 49 48 44 57 137 98 -8 -30 26 62 1 4 -26 -23 -10 33 64 78 96 95 74 50 57 66 66 99 86 50 32 50 59 66 76 52 25 55 78 97 64 54 48 42
120 110 118 252 273 249 219 200 181 111 82 62 40 40 43 70 55 -29 -2 -16 -24 42 68 8 37 36 -9 40 80 84 95 96 71 73 80 94 96 116 64 69 52 77 98 81 69 77 62 51 58 80 72 65 55 38
99 90 88 227 291 216 196 227 194 103 68 48 29 35 18 -12 3 -10 38 51 37 26 76 101 53 13 51 53 84 82 96 91 77 77 88 90 107 116 82 44 33 47 63 59 67 53 42 21 28 41 48 55 56 50
130 93 74 161 316 252 223 197 135 100 70 50 39 51 70 1 10 12 24 33 29 34 70 80 56 29 61 80 56 87 68 64 54 60 70 4 -15 108 169 170 137 96 68 59 47 38 55 46 49 56 63 56 57 64
87 48 19 193 192 223 282 155 102 111 106 76 63 42 17 28 34 52 40 11 10 35 19 27 51 89 79 80 66 60 40 61 -2 18 20 -8 50 83 93 104 87 68 45 29 28 30 31 27 36 45 57 54 52 53
45 -10 -48 152 359 214 283 173 108 119 88 66 48 34 40 57 68 65 32 29 23 37 18 28 42 68 64 68 53 68 20 19 3 47 21 -2 37 85 47 39 42 36 33 36 36 38 38 38 38 35 47 61 55 43
-10 -63 -6 268 409 262 140 85 84 76 74 72 69 94 99 99 89 72 12 39 36 29 24 39 40 65 63 63 59 34 21 16 40 3 12 24 55 53 19 14 21 18 16 22 32 36 43 36 41 48 54 64 68 53
-6 -10 508 376 245 166 84 99 87 83 133 125 121 146 148 131 97 64 52 46 50 33 25 60 79 48 49 43 33 10 30 27 9 21 9 18 35 40 24 9 18 0 24 20 26 45 62 58 44 35 40 53 76 78
194 583 403 208 152 131 123 92 86 152 151 162 150 139 134 131 80 93 69 53 68 64 33 65 80 71 76 50 40 43 19 8 -2 2 11 15 40 33 31 20 13 13 7 2 -3 -3 11 22 35 37 58 61 28 15
523 329 242 142 129 148 165 166 169 164 151 155 163 150 141 135 110 68 76 58 67 80 71 77 82 53 44 46 33 23 20 3 24 43 36 54 48 41 43 47 50 45 37 30 22 12 2 1 -5 -17 -27 -13 -6 -3
344 360 92 82 83 129 147 166 164 178 152 180 158 136 104 109 126 83 79 63 61 68 78 90 67 61 55 39 36 42 38 43 48 64 35 29 44 41 58 65 65 65 60 52 39 34 30 32 30 35 44 53 49 38
245 120 139 235 236 226 165 149 126 119 139 138 116 120 96 69 80 115 109 101 91 62 61 89 98 66 52 49 41 42 36 40 43 46 30 39 65 87 78 72 67 60 51 40 29 15 15 32 41 49 63 71 68 80
111 162 123 85 107 133 105 76 74 84 68 84 91 108 106 81 62 66 86 100 102 110 112 98 28 46 88 101 46 66 53 52 72 55 35 47 67 73 83 91 83 78 68 51 48 54 60 59 52 42 32 30 28 38
69 63 68 93 91 70 66 55 75 60 46 68 78 85 82 95 89 87 91 95 96 87 91 54 64 113 51 38 55 80 89 86 114 108 74 76 87 97 84 92 81 66 45 40 39 31 24 20 23 26 23 25 26 29
98 59 56 56 34 41 33 28 41 43 50 59 62 87 92 81 92 103 87 103 111 100 71 64 61 74 82 99 106 93 83 80 82 98 89 102 107 106 108 95 86 69 56 50 38 29 28 25 26 26 27 31 37 38
19 8 8 17 -27 -20 -12 14 -2 24 22 32 32 54 58 64 79 75 88 79 68 67 86 80 76 79 67 58 59 59 77 91 113 112 124 120 123 102 86 86 91 69 63 57 56 47 41 42 38 35 38 41 41 41
6 21 33 28 -15 6 -2 2 -24 -33 -46 -37 -15 4 18 29 44 64 75 62 51 49 76 77 72 73 57 52 55 68 73 101 108 108 113 107 103 105 102 99 89 82 67 56 58 56 58 55 54 51 50 51 52 56
35 22 10 -2 -4 -22 -1 -6 -17 -27 -32 -52 -60 -46 -24 -10 12 27 35 49 69 79 78 64 57 63 73 90 93 87 82 90 103 120 114 121 114 94 90 83 80 74 69 76 68 62 59 58 55 60 61 61 59 59
21 13 8 15 6 9 14 1 -12 -24 -32 -46 -55 -56 -53 -57 -42 -25 -1 26 30 44 31 29 33 36 57 70 79 82 81 97 104 93 94 92 113 118 95 78 68 65 80 79 72 67 63 66 64 66 67 62 56 57
38 27 14 17 17 24 12 20 0 -15 -15 -29 -52 -44 -45 -67 -75 -83 -65 -52 -48 -35 -16 4 4 7 17 25 41 57 59 69 94 85 88 102 97 104 96 89 76 70 77 85 87 76 71 77 78 69 61 48 46 62
56 46 33 31 36 32 37 33 31 20 7 -23 -19 -18 -25 -42 -65 -71 -63 -60 -60 -54 -41 -28 -27 -27 -18 4 -5 -5 25 41 62 61 70 64 75 85 104 91 72 74 91 93 103 100 91 87 81 74 70 70 64 56
75 46 30 28 44 45 55 54 36 16 15 25 37 -11 -23 -34 -14 -1 -38 -6 -18 -15 -24 -30 -25 -19 -5 3 5 20 34 52 72 70 69 72 79 88 87 97 108 103 120 122 114 106 94 85 79 74 72 70 76 75
53 45 67 70 82 79 59 55 56 59 68 89 67 46 32 49 52 28 26 20 30 31 2 -4 8 37 33 55 68 83 114 141 153 117 90 77 95 90 119 112 110 107 112 105 73 79 78 78 79 78 77 89 94 94
38 74 81 87 95 68 61 81 93 114 116 126 119 108 96 74 50 72 75 72 58 51 63 62 66 123 95 99 84 93 124 151 167 170 148 118 108 126 121 112 103 111 119 110 99 99 97 107 115 134 130 117 106 105
92 135 132 126 100 105 144 160 162 162 174 163 175 149 122 72 68 79 136 141 127 138 103 64 97 137 129 129 137 108 82 116 146 146 184 189 159 134 119 104 93 103 112 113 110 108 107 119 122 116 113 108 101 99
103 116 135 142 140 168 199 227 221 218 206 195 177 198 200 180 59 -24 50 137 164 151 100 98 77 61 72 100 116 110 128 117 116 126 134 137 114 96 89 87 98 109 109 114 121 121 119 112 114 122 125 110 99 77
129 137 143 168 168 168 153 168 183 170 167 165 155 156 178 125 24 27 83 152 170 164 114 72 51 76 85 88 85 109 121 133 123 102 79 67 51 57 81 104 112 120 126 134 137 146 138 127 113 91 77 69 54 34

GFSWCAN_con_3kmhel_063.txt.gz
Helicity
26 59 100 117 145 132 129 146 143 142 134 129 100 104 126 100 81 85 111 79 113 94 43 62 88 103 128 129 158 127 109 91 78 58 57 53 43 46 60 54 46 38 40 47 47 50 34 53 68 85 129 98 84 104
-25 5 44 91 119 128 171 165 187 174 181 131 78 104 99 89 87 92 127 87 62 89 63 62 79 69 81 101 156 160 173 121 63 63 63 72 60 77 52 59 53 57 54 59 36 52 58 39 145 123 88 100 102 75
-40 -37 8 54 102 130 171 171 198 188 213 135 80 83 104 84 127 119 96 127 104 82 -1 34 27 40 47 47 64 190 137 153 113 118 104 86 71 50 57 41 37 30 35 61 52 38 11 11 38 64 53 53 75 76
5 -15 -2 21 83 138 198 169 191 204 214 148 89 75 87 67 95 83 120 122 140 110 41 32 51 66 80 65 39 74 156 262 164 105 84 75 63 44 60 76 44 79 60 26 25 12 31 23 38 35 33 70 84 76
40 42 39 32 91 154 172 202 232 187 161 134 101 117 101 74 91 92 99 106 143 163 91 29 42 109 74 105 105 33 50 118 165 98 90 68 83 52 39 59 31 53 37 46 38 63 36 84 139 81 68 56 38 60
69 70 81 76 85 117 129 247 232 214 192 185 152 104 97 87 115 124 113 108 39 77 32 17 -5 -9 45 63 121 99 45 96 122 81 70 72 108 66 43 38 45 40 41 65 45 88 79 88 79 85 84 74 55 54
69 75 71 63 34 17 111 219 215 209 168 199 131 109 85 78 114 200 152 96 27 77 34 13 9 4 19 49 72 114 36 92 89 81 69 61 53 90 58 39 32 46 52 70 93 77 47 46 60 58 48 57 58 53
38 19 15 12 4 49 62 226 179 134 195 173 129 93 68 56 99 97 39 45 38 13 24 -14 -18 -18 37 -3 -21 38 12 31 62 102 75 55 55 71 41 23 34 46 111 80 67 87 101 94 63 51 66 83 94 79
35 31 30 33 81 89 80 200 215 220 285 152 124 93 56 84 83 42 4 79 16 12 -1 -7 -6 -9 1 -14 5 81 96 69 85 94 77 61 68 65 69 55 52 77 70 71 89 80 65 41 39 42 36 45 51 66
18 23 47 68 111 103 69 228 186 289 223 143 145 119 81 54 104 52 32 21 2 1 38 53 68 44 -12 7 61 74 91 63 95 82 80 68 91 72 140 159 161 143 95 93 66 70 80 66 52 60 52 53 53 53
45 31 49 121 128 96 73 253 302 303 248 223 157 104 73 45 29 28 41 25 14 19 25 37 54 36 30 47 70 70 48 66 41 42 55 46 40 70 115 117 137 122 91 75 63 71 54 42 40 53 64 62 49 49
57 91 109 75 65 26 -25 290 378 338 253 187 162 71 52 55 58 67 57 41 28 31 -3 13 17 66 46 73 53 54 50 47 36 52 34 3 51 64 71 57 51 41 43 37 40 47 54 46 45 47 56 56 50 45
49 46 52 29 24 2 232 297 248 262 188 181 175 121 78 79 82 77 50 45 28 1 16 31 48 68 63 71 73 59 39 19 50 16 8 9 63 94 53 40 29 30 34 42 47 52 56 46 37 41 45 47 56 55
23 30 27 33 -8 77 367 292 279 182 217 206 174 124 105 104 105 69 45 61 47 28 27 42 56 89 84 75 61 34 47 26 19 46 20 18 37 54 51 31 12 -0 14 15 18 29 50 60 51 44 32 30 50 65
26 57 10 4 201 443 412 283 185 261 241 219 179 108 94 117 78 78 75 61 66 63 54 44 73 64 56 39 37 36 19 13 8 21 27 19 38 47 39 30 10 11 10 4 1 4 6 6 1 -6 24 52 63 48
7 33 261 537 530 314 225 192 256 277 266 179 167 123 86 83 93 53 63 82 63 69 90 62 84 51 45 50 34 30 27 8 17 25 32 58 53 44 42 45 45 47 42 33 27 21 13 10 6 2 -1 -2 -5 1
262 253 411 360 254 287 272 292 243 215 156 159 129 113 108 81 95 69 52 57 83 101 91 93 72 65 60 46 47 39 22 34 39 42 36 25 43 60 55 62 62 64 60 50 37 33 28 26 20 27 32 32 33 38
372 389 292 295 317 339 310 224 163 121 100 127 134 100 89 80 69 90 67 65 79 99 96 100 97 74 69 47 36 25 16 28 32 40 33 20 22 53 67 71 75 75 64 51 45 36 37 40 36 38 38 48 53 62
344 300 174 120 205 254 178 117 121 76 71 104 102 99 88 89 52 32 84 87 83 91 76 51 71 50 63 56 51 50 50 54 60 59 64 58 62 67 76 95 85 71 57 54 55 69 66 58 50 46 38 24 18 24
129 160 190 176 160 137 104 82 85 74 73 82 71 76 92 84 75 61 36 84 115 97 79 59 59 58 52 53 48 59 76 76 96 102 93 86 79 95 90 91 84 86 69 57 42 32 42 43 45 36 28 23 21 26
229 158 150 112 97 86 58 42 56 51 50 59 62 83 85 74 72 60 71 92 78 97 101 73 58 39 33 41 68 101 104 100 105 91 69 90 109 104 100 98 103 85 65 51 45 45 42 41 42 35 32 31 35 31
94 62 84 90 32 20 7 34 17 28 26 36 41 63 56 61 73 81 84 71 71 71 70 65 86 97 58 55 67 61 79 79 81 88 100 120 107 115 97 95 102 83 74 69 67 58 55 59 50 41 38 41 42 43
54 61 38 21 16 17 -9 -2 -30 -30 -25 -9 1 13 19 26 46 62 69 58 31 -8 19 35 52 48 44 54 56 53 50 56 63 73 90 95 104 109 105 96 100 104 95 82 80 71 66 63 52 47 49 49 50 50
49 40 39 26 20 5 -6 -5 -5 -18 -42 -47 -36 -35 -20 -9 13 13 22 28 27 39 65 64 67 72 48 53 62 68 77 81 74 82 90 99 102 93 100 102 102 94 95 106 90 78 70 64 58 58 60 56 52 52
27 40 29 26 28 11 7 -7 -17 -25 -24 -32 -36 -45 -47 -52 -48 -27 -14 -14 -16 4 22 32 43 52 68 71 78 72 75 79 90 90 100 104 118 123 102 90 84 86 103 97 86 75 73 82 80 76 73 70 65 66
47 35 40 36 28 26 10 17 1 1 11 2 -8 -4 -16 -29 -41 -52 -52 -57 -58 -51 -44 -30 -19 -7 -1 11 33 42 51 53 73 77 79 95 102 110 105 108 98 89 95 92 98 87 89 97 88 86 79 68 53 64
38 45 39 35 48 52 61 59 51 35 29 15 15 10 6 -1 -18 -30 -16 -19 -24 -26 -25 -24 -30 -34 -22 -9 -6 -2 13 18 38 51 56 53 57 64 81 94 85 92 113 103 95 94 100 105 102 95 92 91 85 77
62 36 49 50 62 62 58 50 39 22 29 45 54 36 24 12 22 73 46 34 14 9 -9 -20 -21 -21 -26 -19 5 24 39 64 56 39 18 17 40 65 79 100 124 125 131 124 118 127 125 116 108 102 96 93 93 88
39 52 68 91 87 74 60 56 68 76 84 85 81 74 72 80 93 93 74 62 46 20 -1 -19 -2 41 27 31 31 39 65 86 98 82 70 64 82 79 127 146 163 158 152 138 92 94 110 109 104 98 86 93 95 101
62 53 66 61 58 47 65 71 83 90 89 107 114 102 97 88 80 92 83 73 53 36 54 49 66 98 61 54 39 55 100 140 155 139 117 106 116 146 163 177 180 173 164 148 135 131 109 107 107 118 115 121 121 121
70 65 58 51 47 68 88 86 81 98 118 129 158 147 133 110 107 118 154 139 114 94 89 72 76 124 105 98 101 73 51 96 134 131 140 183 188 175 175 174 179 167 145 132 128 123 119 123 125 121 119 116 112 109
61 61 61 64 77 92 75 104 122 124 129 158 164 168 171 140 96 27 59 111 124 97 89 100 125 118 128 109 143 160 110 133 123 95 90 113 139 150 153 147 140 128 120 117 121 123 124 125 132 127 122 107 108 111
140 135 139 127 106 82 82 77 91 83 124 165 166 166 174 165 91 113 149 140 129 140 152 146 160 165 166 150 150 122 103 139 122 110 112 117 116 106 107 104 104 106 112 118 124 134 131 122 108 99 102 100 92 78

GFSWCAN_con_3kmhel_069.txt.gz
Helicity
53 22 4 -1 10 16 18 18 15 19 31 41 45 55 60 67 76 174 141 152 235 315 204 143 92 115 79 66 85 143 115 37 163 159 115 101 78 54 54 43 67 70 60 63 60 52 28 51 69 45 35 49 54 64
42 3 -3 -2 13 19 13 21 34 45 65 74 69 81 81 61 45 106 185 136 181 355 292 118 131 105 82 55 112 59 155 103 115 116 143 100 98 88 79 67 104 80 74 61 59 40 28 12 28 52 53 52 51 55
21 19 13 11 19 26 28 30 60 49 75 91 108 103 117 117 93 121 151 181 244 291 237 151 73 -32 29 41 90 108 63 30 70 253 144 112 114 103 99 64 69 64 86 74 79 52 54 43 41 49 51 55 62 60
90 71 80 89 77 43 46 65 74 82 94 85 109 109 146 152 111 141 174 202 244 244 280 142 129 107 73 39 105 61 38 57 -34 -114 310 145 104 86 76 63 67 56 77 64 72 47 49 34 58 68 71 72 72 59
94 90 91 95 94 92 99 101 85 92 76 90 130 135 186 189 159 151 136 166 278 238 254 235 141 82 25 7 24 96 69 56 -15 -203 181 146 143 118 89 78 63 94 71 101 61 34 49 57 51 97 110 90 71 51
95 94 95 99 94 89 102 111 127 117 46 69 141 182 273 249 205 189 180 146 151 184 216 126 67 87 3 96 60 58 124 125 25 -110 -7 225 151 120 63 60 47 73 74 76 82 78 53 59 77 110 111 95 79 61
108 111 111 99 100 89 86 99 125 92 65 54 183 280 289 191 238 239 221 218 211 168 147 26 16 12 55 54 68 104 146 184 104 -25 -67 144 212 116 122 84 52 33 50 86 83 93 52 50 63 105 119 112 90 68
106 95 80 74 75 78 89 89 81 89 105 153 231 256 264 216 203 179 94 206 195 142 76 29 13 19 63 56 32 65 77 115 95 62 -68 -10 94 157 84 5 31 68 80 110 106 102 82 87 118 122 127 113 101 86
74 61 51 48 49 55 61 81 101 105 170 193 267 407 280 282 218 132 118 126 141 106 38 50 50 14 48 72 95 22 -16 56 78 55 -177 -73 95 108 32 26 37 53 63 93 141 135 123 125 135 136 112 98 94 97
56 46 36 39 40 52 93 102 80 149 250 388 538 361 328 239 206 163 127 123 105 86 135 94 84 53 44 68 95 76 24 -66 34 21 -25 -23 65 109 80 70 78 77 90 124 127 101 126 115 115 124 112 92 82 73
45 33 48 67 89 86 56 71 116 275 414 356 367 255 216 219 110 96 93 85 56 16 3 0 45 49 -1 76 64 30 21 36 34 45 53 11 18 32 82 134 161 190 176 173 164 173 173 157 118 107 102 71 60 61
26 47 75 78 78 59 76 106 177 251 213 177 140 260 230 121 81 85 96 53 -4 6 -15 -6 1 37 7 12 4 2 12 11 4 28 18 21 -3 41 61 80 98 111 131 159 166 150 134 106 89 67 65 65 68 65
38 71 57 71 74 51 42 81 167 316 242 181 101 32 67 99 84 77 92 12 -2 -17 -12 -7 -3 8 1 -5 7 5 3 12 29 16 6 7 27 44 48 79 90 97 98 94 94 87 72 68 59 58 65 63 51 43
39 58 73 86 42 58 27 67 235 252 147 91 14 -31 44 35 34 39 18 34 11 7 -5 -10 11 26 35 31 29 15 27 29 13 4 18 14 -9 35 44 71 48 28 26 28 33 41 46 54 48 38 32 33 44 46
56 76 101 48 72 55 51 196 239 278 191 77 65 51 27 18 13 -1 -6 -28 -29 -34 -25 -8 0 -1 26 43 42 49 32 13 -7 19 12 -2 19 42 51 40 25 5 -10 -15 -6 1 11 12 11 7 2 2 7 13
57 82 147 49 67 52 232 385 216 174 124 59 65 61 -13 -16 -24 -5 -6 -15 -10 5 6 11 9 9 28 57 53 39 38 16 25 20 24 18 21 19 17 9 20 14 15 16 20 19 19 19 14 10 21 24 23 24
41 183 192 85 161 405 428 220 136 66 43 87 70 56 64 61 21 28 20 21 35 4 21 27 15 28 38 39 59 54 49 47 43 40 20 -15 -26 17 23 26 27 39 48 46 42 38 30 22 19 26 26 25 35 40
184 156 125 252 603 539 297 236 179 139 101 75 40 72 90 87 89 30 56 27 24 24 37 50 55 39 35 20 15 59 71 56 42 44 19 5 12 25 28 33 35 45 59 60 49 31 30 31 32 29 39 57 71 55
140 101 220 429 386 321 202 194 209 94 64 94 101 109 95 71 69 51 42 47 33 32 34 54 67 57 55 43 35 31 34 52 59 40 14 3 19 36 38 51 74 85 84 73 53 43 37 37 43 52 65 59 35 24
299 253 338 255 242 213 179 151 194 156 71 84 106 99 68 62 66 63 66 49 46 51 48 53 54 59 47 23 32 70 62 43 24 28 29 30 38 65 68 83 80 89 89 76 61 52 56 41 34 34 32 27 25 23
383 299 329 311 352 236 142 96 117 96 126 123 110 97 71 65 73 71 62 82 89 81 62 62 58 56 72 50 23 7 18 34 29 23 29 48 54 77 90 91 108 124 114 87 60 35 31 32 38 46 36 20 25 31
264 252 214 198 128 127 96 109 85 108 96 74 63 64 52 51 55 73 87 83 76 73 82 80 94 75 82 62 36 24 36 50 53 45 42 48 63 79 86 103 140 111 104 85 80 67 54 49 63 68 61 39 41 43
210 184 148 131 107 110 86 111 87 72 42 24 44 25 21 32 35 51 49 46 53 60 64 61 75 78 46 47 59 49 32 33 46 50 53 51 59 66 84 92 110 112 87 63 83 81 71 61 59 68 62 62 65 59
227 170 131 115 105 92 82 76 45 23 13 8 -3 -20 -25 -20 7 23 9 12 27 49 53 52 78 106 106 83 53 49 42 24 44 64 63 72 78 75 76 74 85 88 95 69 83 80 74 70 61 76 76 72 67 67
97 97 95 118 96 70 65 51 35 23 16 -7 -9 -16 -39 -41 -34 -49 -59 -69 -52 -17 2 12 5 14 61 101 104 74 48 53 62 72 70 72 89 107 105 102 88 84 109 124 112 111 99 95 91 87 87 88 75 66
106 102 79 63 57 71 54 59 23 2 0 -7 -18 -19 -16 -9 -22 -55 -44 -38 -44 -48 -45 -48 -45 -29 -23 -3 20 10 -8 -8 28 50 40 40 59 74 66 68 69 61 99 105 120 90 79 85 84 70 69 49 29 65
69 50 39 69 67 65 64 65 43 32 19 4 -2 12 16 10 -9 -7 -1 -4 15 9 12 12 9 -12 -17 -12 -1 0 18 29 5 -5 5 9 12 33 57 54 43 48 59 97 113 119 103 98 97 87 80 91 81 85
38 60 58 40 72 73 72 56 41 25 22 28 52 40 37 30 31 29 36 64 94 105 76 44 41 49 41 38 28 28 33 48 48 28 6 11 53 64 70 70 68 50 75 96 112 133 132 126 118 107 104 96 90 103
58 57 54 66 69 72 61 62 50 47 52 68 63 66 69 56 53 55 61 87 122 126 93 80 76 103 81 98 90 98 93 96 67 30 14 15 5 25 61 89 124 140 156 147 117 139 148 162 148 143 120 114 104 107
61 69 78 81 81 77 71 68 71 55 54 58 63 72 70 76 88 119 145 165 178 177 175 168 144 128 92 90 70 87 102 121 135 111 62 49 50 53 71 83 102 134 178 184 177 201 176 189 190 194 173 145 133 119
75 86 95 90 73 48 41 38 46 60 70 63 95 109 118 81 84 130 212 220 195 180 182 123 116 147 160 149 133 66 47 71 70 70 81 100 95 97 101 105 120 149 172 179 173 175 189 190 174 158 147 128 115 126
81 85 77 76 49 40 47 47 32 48 51 63 41 97 106 106 63 32 15 36 85 98 118 174 216 191 179 168 161 139 83 93 72 69 61 86 97 105 125 154 171 175 172 154 147 153 155 144 138 129 125 113 115 117
92 76 59 45 31 10 4 15 18 -4 9 14 7 3 27 72 60 68 83 108 146 177 180 179 175 187 175 151 131 124 116 84 71 72 84 94 98 108 141 144 144 141 136 133 134 133 124 120 118 116 106 91 81 75

GFSWCAN_con_3kmhel_072.txt.gz
Helicity
100 72 64 57 44 28 29 27 31 37 41 46 51 38 39 68 96 117 102 100 166 197 188 178 196 176 119 104 67 55 27 61 75 113 151 129 118 105 102 63 69 102 88 93 80 57 33 38 78 51 32 44 40 34
89 75 77 54 43 33 22 30 48 46 49 56 51 40 57 105 131 143 129 98 121 248 368 316 196 110 132 88 114 95 106 50 202 116 120 164 162 165 127 99 115 71 85 79 59 34 30 16 29 35 42 42 42 44
88 75 41 36 36 37 33 34 47 57 46 61 51 33 70 116 117 171 140 121 155 239 292 205 135 66 77 28 62 136 81 33 -125 -16 125 240 167 171 147 100 84 82 97 75 76 49 46 29 38 31 31 38 54 58
90 76 47 37 60 54 46 46 54 66 61 64 53 57 114 139 125 152 170 162 195 227 351 281 218 191 122 102 136 186 86 86 -22 -180 -81 139 116 109 111 100 92 80 115 80 73 54 48 32 31 47 52 54 62 67
118 110 102 133 115 111 117 122 123 97 57 65 16 92 153 133 219 244 175 163 218 224 429 280 196 -0 36 56 88 200 83 52 74 -160 -127 17 127 159 129 128 102 95 91 130 83 32 59 53 47 69 68 57 48 53
103 111 115 102 100 103 124 125 104 115 101 90 54 113 157 190 363 239 227 125 85 152 203 224 140 70 27 46 81 156 101 99 88 -34 -114 -248 -47 96 150 112 79 66 88 79 61 64 48 33 50 72 84 78 70 60
120 108 85 95 99 105 103 101 104 100 100 97 132 142 197 354 397 289 249 190 234 193 167 85 21 5 27 67 71 79 67 99 112 69 -21 -88 -146 24 148 128 48 24 25 30 74 151 121 78 39 61 86 94 91 87
84 83 82 88 87 93 88 85 81 79 101 106 122 195 288 336 355 255 158 219 244 183 160 53 15 12 30 72 84 128 104 102 77 96 23 -39 -194 -60 61 64 94 78 65 88 73 106 60 99 114 117 133 125 106 94
79 90 75 62 88 83 68 54 70 103 150 223 400 408 389 395 340 168 84 92 191 195 131 80 68 11 40 75 144 149 112 19 27 63 70 7 -52 58 55 41 26 63 57 53 123 121 111 94 89 108 114 115 100 77
66 54 43 60 58 69 48 47 74 153 223 232 213 215 229 253 167 149 165 157 120 145 152 104 125 72 44 66 121 161 139 23 -4 23 61 38 84 32 80 71 59 80 90 112 140 117 108 104 91 100 109 112 99 78
19 51 55 33 37 29 14 50 152 225 188 156 148 188 216 125 48 81 88 78 85 49 42 28 24 96 -8 93 95 51 74 89 -19 -3 26 8 -45 1 107 154 130 114 122 135 129 138 145 110 121 127 115 108 86 72
39 38 34 56 54 31 78 137 116 141 104 108 132 149 91 57 68 87 72 50 44 5 8 13 31 89 15 11 15 32 7 5 17 -5 17 14 19 27 30 56 82 118 148 161 154 147 150 163 156 136 114 99 93 83
41 32 61 50 35 75 124 147 138 165 167 134 183 212 159 145 139 73 24 35 43 16 -18 -16 -21 9 -12 -12 -14 -11 3 10 -3 -8 4 -2 13 30 38 56 70 91 101 99 118 125 118 118 124 116 93 81 79 68
34 49 55 30 89 112 119 142 192 138 119 225 267 237 213 119 34 42 59 65 66 17 -15 -24 -4 -3 2 -0 7 1 1 -5 -0 17 -1 12 -1 9 22 46 62 43 46 54 59 68 76 76 68 67 73 74 76 77
24 34 46 43 95 108 99 127 186 155 141 229 180 141 87 32 58 64 44 -2 4 -27 -31 -0 2 13 13 13 13 15 7 2 -4 -1 10 10 -3 7 17 16 14 14 8 3 -9 -11 -3 9 9 13 17 15 15 14
23 31 74 64 90 80 74 270 181 138 164 158 97 61 38 44 30 51 -3 -4 -7 -12 -20 6 17 24 16 32 39 31 24 18 20 32 29 15 2 15 28 30 23 19 10 3 4 8 13 16 17 20 29 28 26 31
24 91 96 69 80 136 302 240 158 161 90 65 30 61 96 95 82 45 15 7 6 21 21 27 28 22 29 34 29 34 23 30 65 62 46 10 -6 -1 15 20 15 27 41 40 35 28 21 17 16 14 8 22 31 41
59 64 85 76 278 528 367 209 162 142 56 39 48 36 87 83 72 43 43 41 28 29 37 45 40 25 24 28 19 19 27 71 80 74 51 28 11 4 10 14 12 14 34 46 47 43 38 36 31 27 29 30 40 55
27 83 142 391 474 427 328 194 155 172 40 69 93 79 82 89 98 78 65 60 48 42 42 56 62 52 48 52 39 15 14 33 77 79 56 22 2 5 15 28 39 49 64 75 71 61 48 37 35 32 34 43 49 44
68 306 373 333 264 303 246 158 134 139 43 74 100 70 80 78 77 77 75 65 73 85 71 78 58 44 34 38 40 42 29 48 71 69 42 19 16 33 29 50 56 72 89 90 87 77 72 49 40 36 31 23 24 19
451 465 477 353 329 256 198 141 135 90 104 131 98 100 89 82 61 55 71 96 107 105 83 71 74 67 64 73 67 49 32 27 44 43 43 46 43 48 64 76 94 107 105 98 90 74 61 48 42 53 50 24 12 -4
236 250 318 313 203 156 106 90 92 72 76 50 51 48 51 62 64 75 90 89 87 85 102 91 91 99 114 84 62 38 38 40 38 42 46 46 47 56 58 76 111 99 111 104 110 90 70 52 58 66 71 37 33 25
272 231 215 148 95 89 84 143 102 70 40 30 45 56 51 43 39 58 39 39 42 48 70 68 64 68 55 42 56 53 48 48 55 51 50 54 58 59 65 68 80 96 91 81 110 95 86 64 66 83 77 74 73 64
216 130 87 53 66 65 93 89 109 94 72 54 41 27 15 8 18 31 7 7 15 31 47 42 68 72 78 68 41 37 33 32 31 38 38 54 57 61 67 73 77 83 101 108 91 94 97 87 76 91 97 89 82 79
66 73 77 115 120 93 91 91 98 77 46 37 34 16 6 4 2 -18 -39 -56 -76 -47 -21 -21 -19 9 27 32 27 24 43 60 63 77 65 63 75 83 75 73 66 68 99 114 106 110 98 111 108 105 97 96 79 67
90 101 88 82 96 88 74 85 50 28 29 24 5 12 5 2 -10 -43 -48 -37 -32 -29 -0 7 -14 -33 -36 -11 10 14 -10 6 24 34 28 19 35 53 46 42 48 41 74 98 119 91 79 89 91 82 75 56 35 59
90 72 88 99 98 90 97 59 50 52 38 25 14 16 28 21 -1 -4 1 5 15 11 25 43 58 50 27 3 4 10 20 42 35 15 19 12 12 24 38 34 27 32 46 73 94 101 84 85 93 98 91 100 89 88
70 60 65 62 59 45 48 64 59 50 41 34 48 35 27 20 32 37 38 42 53 78 82 74 78 82 72 62 44 24 23 54 59 35 16 23 60 60 82 80 72 39 67 76 83 103 111 116 118 117 124 113 103 114
51 71 79 76 88 86 66 65 56 47 48 56 55 52 49 52 52 55 56 65 102 128 118 107 72 129 93 83 78 78 78 109 96 44 31 28 25 31 47 72 76 82 105 123 98 113 122 150 149 153 143 141 131 150
64 70 66 61 57 54 57 50 55 51 44 43 50 68 71 77 71 100 109 132 151 160 158 129 104 98 68 59 56 75 95 117 136 125 84 52 41 48 72 72 60 73 109 149 167 203 176 209 208 208 190 182 176 155
86 82 81 74 64 54 49 45 46 54 71 71 89 98 109 83 69 68 116 133 146 178 184 162 177 198 180 167 156 129 118 132 115 95 93 94 71 57 49 46 66 97 129 160 185 193 206 206 189 175 159 140 129 130
106 103 93 99 75 53 52 60 58 75 88 99 85 130 96 104 83 56 72 130 177 200 209 184 165 167 129 131 141 131 104 130 126 116 87 85 73 68 72 91 117 143 163 176 187 194 189 172 161 148 135 117 112 110
85 69 59 48 51 46 27 35 49 29 41 71 81 70 64 84 94 71 82 97 116 112 111 108 101 97 100 95 89 97 112 108 104 93 73 64 57 70 91 118 134 150 159 161 161 165 152 146 132 113 103 97 93 83

GFSWCAN_con_3kmhel_075.txt.gz
Helicity
267 142 163 147 103 54 40 34 36 59 48 35 31 40 65 82 95 94 87 132 168 168 158 332 191 242 228 237 168 33 -41 45 65 59 77 162 126 107 113 79 91 124 88 151 133 81 12 40 87 59 40 37 43 44
228 149 161 150 89 49 34 32 31 65 59 35 27 32 69 95 101 114 73 129 147 236 240 308 143 92 98 105 91 63 51 51 76 94 146 138 125 135 146 125 140 104 92 107 83 38 41 12 31 43 36 36 37 37
138 175 174 135 75 44 35 19 37 56 38 36 46 57 80 81 90 130 115 151 169 248 249 199 139 117 128 86 145 178 81 39 18 -3 -4 106 84 189 151 142 108 101 98 85 108 47 24 20 31 20 27 32 47 43
149 169 153 116 76 43 28 31 34 34 48 48 54 82 95 99 119 125 164 165 205 246 311 237 232 181 122 161 147 160 124 85 59 47 -11 36 59 128 207 126 127 105 142 111 90 75 62 48 57 66 49 51 53 50
163 182 136 99 70 65 47 44 41 55 58 48 71 75 102 135 137 177 211 183 170 254 329 306 120 40 -7 57 94 130 132 118 123 96 39 -12 -29 -28 133 76 88 127 116 146 87 62 79 71 65 65 64 56 47 52
223 175 164 153 127 117 107 110 113 123 98 99 117 83 90 115 308 244 239 146 103 101 204 246 157 33 12 42 66 92 156 196 152 109 45 2 4 -14 159 133 64 58 74 65 67 57 66 68 46 47 69 71 67 54
197 231 193 136 116 85 102 102 124 90 91 114 91 115 114 256 297 231 249 211 208 146 191 139 49 18 29 45 68 92 117 144 139 110 75 91 69 -43 -6 107 99 156 37 53 63 98 93 75 54 39 68 97 96 90
222 170 142 113 85 86 93 106 91 68 114 98 88 93 140 282 355 323 199 206 171 150 144 86 55 4 37 44 49 106 155 193 154 140 92 62 27 -20 -32 -20 17 123 66 44 37 85 55 81 110 114 109 98 103 94
195 127 105 96 74 82 76 91 74 89 90 138 188 272 255 237 254 222 89 104 121 139 118 166 113 35 34 51 92 121 161 172 177 112 109 61 57 -0 -60 -115 46 98 44 58 98 100 92 92 87 86 91 87 78 73
99 100 70 64 59 76 78 60 26 65 108 105 115 114 140 153 127 124 187 191 116 92 93 73 103 109 71 82 61 120 144 115 120 34 34 47 79 1 44 45 42 38 26 86 137 95 106 100 79 73 64 73 73 74
68 67 68 51 77 63 27 16 63 107 80 72 131 165 164 132 180 225 217 156 94 31 24 41 125 171 75 97 53 99 112 127 79 59 -31 -14 57 121 112 14 84 90 100 134 99 102 89 69 84 102 101 100 90 84
78 66 55 39 5 25 9 -31 24 66 81 132 146 140 125 154 147 201 163 99 40 22 14 -2 44 112 56 37 16 53 81 62 41 93 8 -27 7 38 94 108 110 127 139 150 103 114 135 153 151 139 131 123 116 100
57 43 -2 -12 6 -10 7 21 35 115 166 153 160 158 106 136 181 243 246 108 33 46 33 -25 -12 28 -2 -39 -18 -27 41 17 51 -26 -10 -20 26 31 15 25 59 95 109 108 124 126 124 129 139 125 114 110 86 85
37 21 18 1 15 55 50 73 94 134 163 150 116 82 108 140 123 108 88 48 51 77 49 19 9 20 32 22 -10 13 -12 -13 -9 7 4 -1 20 23 34 45 56 56 66 70 81 91 98 93 88 81 77 73 69 71
16 25 23 60 50 74 71 107 129 159 167 162 143 63 109 90 60 45 51 30 41 45 31 21 39 15 19 24 14 10 11 -5 -14 -11 -19 3 16 14 15 11 22 14 6 -2 -17 -17 -7 -0 -4 -1 4 9 14 16
40 50 73 56 16 70 104 256 184 184 178 181 134 132 82 69 35 45 45 41 54 53 25 24 53 35 25 33 41 29 23 -5 -1 14 14 10 -6 -0 19 20 5 -14 -7 -4 -4 -4 1 8 13 23 29 29 28 34
29 67 24 36 50 129 283 225 193 200 190 225 101 57 64 33 45 53 76 63 71 27 37 54 73 79 52 51 45 25 16 15 8 31 22 8 -10 1 4 22 14 20 29 31 31 28 24 24 25 26 27 40 50 56
57 44 27 44 160 339 322 199 192 238 259 231 131 42 43 58 76 66 62 79 44 47 46 70 71 78 78 73 59 23 15 12 31 72 65 33 3 -3 -0 3 1 10 15 28 45 57 57 53 40 33 36 30 29 26
43 40 32 208 355 324 239 231 237 263 240 183 89 57 56 77 108 113 80 75 53 63 77 70 83 82 66 48 28 31 18 13 18 64 85 59 28 7 2 13 19 35 46 56 58 61 60 50 41 42 39 39 35 32
7 26 170 279 313 260 260 222 246 273 215 161 131 70 82 106 99 109 96 81 86 91 80 103 114 106 69 40 45 54 40 38 38 34 66 66 33 21 9 7 12 32 65 72 74 80 82 66 57 55 60 46 36 16
288 402 468 422 370 293 230 197 208 151 161 163 135 121 90 93 99 81 80 135 114 138 134 94 77 64 54 61 54 61 50 44 26 21 34 30 26 27 28 32 47 63 76 82 83 80 85 89 81 78 74 57 52 41
189 230 246 231 189 254 222 188 134 132 127 95 72 81 103 98 79 85 113 132 142 112 127 109 97 96 89 83 69 56 49 46 38 32 29 35 31 29 33 41 61 61 77 91 112 102 93 92 87 93 94 68 65 67
199 209 188 202 174 252 225 217 156 112 117 79 80 81 81 76 74 100 69 67 54 44 55 64 74 77 70 79 74 54 44 55 58 47 41 38 38 36 39 44 58 58 56 65 106 104 87 76 75 97 100 91 85 66
178 171 178 166 218 197 167 184 149 136 130 103 79 66 46 38 55 47 35 38 23 30 37 40 56 58 70 78 66 68 63 68 71 70 48 53 61 61 49 53 58 72 84 88 83 88 94 95 89 118 126 117 103 87
170 151 133 193 154 162 155 118 114 116 112 99 71 51 30 34 36 47 37 -3 -42 -58 -63 -44 -4 9 17 26 26 25 20 27 30 58 68 75 87 79 69 61 62 68 86 94 88 92 92 102 106 115 110 105 81 64
173 139 140 123 127 116 92 106 98 107 86 68 53 31 29 39 51 28 -2 -20 -39 -31 -19 -11 -19 -39 -49 -15 -13 -2 -16 2 21 15 6 2 -1 18 42 64 63 40 28 68 84 59 51 66 75 77 73 60 44 61
130 101 86 103 116 132 153 144 122 96 75 39 21 34 43 52 30 8 5 -2 -6 -4 4 22 67 58 39 40 35 23 29 39 30 20 34 29 31 44 44 27 13 10 25 31 47 56 51 56 69 75 71 92 87 94
79 78 59 95 113 106 96 102 99 53 20 26 42 37 29 19 25 24 20 22 38 50 50 60 76 81 75 76 83 67 50 56 45 33 25 18 46 70 83 76 67 20 41 57 64 71 75 78 84 93 104 98 107 134
84 86 99 91 76 73 83 68 36 49 42 38 48 41 33 25 29 46 54 63 68 87 78 72 69 96 72 57 48 60 81 111 103 45 35 41 38 45 77 73 64 64 61 57 29 59 89 108 110 122 125 141 148 171
73 72 71 53 40 41 43 53 59 47 36 38 42 46 47 57 48 60 68 100 103 85 93 96 105 110 88 77 55 64 90 129 156 153 124 96 75 82 90 94 86 64 61 70 75 107 131 172 173 195 194 198 191 174
81 73 66 57 47 46 47 45 42 46 57 62 76 77 83 67 44 63 94 109 126 144 156 151 156 135 118 128 114 101 99 106 111 117 122 119 103 90 87 89 84 92 95 93 102 124 172 182 182 178 176 169 153 141
74 62 62 68 55 53 66 63 54 65 73 76 70 87 72 103 89 94 105 116 134 129 112 105 100 101 102 109 113 112 88 110 94 94 94 105 108 105 108 114 122 123 125 123 125 147 163 164 168 164 154 139 123 110
108 100 86 68 66 63 49 44 49 40 61 74 66 75 73 86 68 76 79 87 87 75 68 61 58 66 82 92 97 116 123 108 99 90 79 74 68 79 104 120 138 141 133 131 134 145 156 169 158 143 128 113 94 82

GFSWCAN_con_3kmhel_078.txt.gz
Helicity
272 313 308 346 284 144 139 104 72 44 53 41 39 38 57 80 85 91 65 50 82 104 121 104 188 215 300 355 306 135 35 31 22 11 -12 68 28 89 177 105 100 116 77 112 169 101 14 63 115 76 54 60 45 42
324 376 308 296 320 150 136 105 78 53 51 40 31 39 41 61 70 101 90 66 82 92 110 167 116 122 184 189 162 193 98 26 38 24 47 48 72 62 112 118 147 115 113 87 74 81 72 36 14 33 46 44 44 36
351 447 380 292 244 150 122 105 75 36 56 41 34 36 40 59 66 103 97 91 73 32 137 76 101 119 104 94 172 143 97 78 66 37 -7 -7 -12 132 61 94 95 109 100 92 104 30 23 9 24 10 20 25 32 35
341 405 397 314 209 124 133 102 61 34 47 31 30 35 28 40 44 89 108 101 91 74 122 63 157 136 104 94 128 144 126 141 103 76 65 60 20 35 55 69 101 112 103 116 88 53 59 22 23 58 51 42 41 47
343 413 467 290 164 127 113 60 50 41 43 36 32 35 49 60 54 121 146 147 160 126 156 174 97 77 25 39 46 90 93 101 135 135 129 80 41 -6 -25 -33 3 95 52 136 81 73 69 50 70 58 62 62 50 59
370 341 268 272 138 139 94 88 80 79 85 87 76 56 56 71 226 148 86 84 104 155 146 127 147 35 36 36 53 78 116 135 171 182 163 110 102 98 30 13 12 69 66 31 85 51 34 40 49 48 52 74 71 65
536 316 251 165 182 194 189 169 142 111 90 87 94 90 86 205 221 165 155 149 145 147 170 180 137 53 44 33 57 89 127 150 183 192 200 156 55 92 53 20 49 130 113 90 30 23 51 34 43 57 64 105 119 115
457 414 270 226 263 252 178 139 108 98 84 78 94 73 201 285 245 256 224 206 147 184 177 201 130 50 49 40 38 89 126 157 183 204 201 152 101 86 -37 -63 15 66 75 92 30 53 39 34 69 75 91 103 117 97
458 423 312 276 238 177 146 111 97 69 44 79 87 241 187 169 175 160 147 152 119 168 251 192 167 47 44 60 63 62 96 135 163 209 215 149 167 -76 -71 -31 44 36 60 71 72 73 55 50 43 66 72 71 75 69
498 293 265 226 161 143 128 88 63 83 127 149 162 83 87 134 144 145 168 195 165 113 79 108 64 86 64 47 15 37 89 93 137 121 154 95 219 215 60 56 221 74 52 51 76 84 90 92 78 69 80 84 81 73
304 251 204 185 143 114 81 58 57 127 131 59 55 101 144 113 138 148 165 200 187 181 55 35 39 75 81 80 54 40 65 89 81 152 137 31 -45 -1 45 19 99 39 46 45 82 93 94 88 81 79 78 83 86 82
208 182 149 122 100 61 43 33 85 60 33 48 97 143 120 128 156 136 152 190 174 172 49 33 -12 51 47 58 17 23 38 48 44 182 88 5 -15 26 43 31 70 111 94 120 121 122 141 134 107 108 110 110 102 91
149 159 134 67 32 22 -30 -4 42 57 97 124 102 100 98 110 139 130 152 177 211 119 33 32 9 23 35 40 31 21 18 39 110 70 50 42 -29 19 57 70 108 101 102 103 125 142 135 122 141 124 110 110 97 92
136 76 59 46 -14 2 -12 -0 -7 79 90 72 77 108 78 82 69 129 150 134 72 51 50 49 31 -5 36 25 15 18 23 25 33 39 21 -37 -19 -5 -5 19 39 61 67 69 77 84 93 104 109 111 97 78 64 62
100 55 18 27 22 11 -0 40 93 91 83 84 90 62 67 88 121 114 59 47 39 43 49 40 35 6 21 23 22 34 26 20 16 11 -32 -30 -7 -1 11 22 37 49 53 39 14 23 40 41 31 16 4 -1 -3 -4
68 129 146 38 34 57 104 163 117 86 109 105 93 102 91 129 118 93 67 57 50 61 47 42 22 17 12 36 42 42 50 27 11 -2 -15 -22 -11 3 16 15 14 18 23 23 12 7 8 11 14 18 24 30 31 35
83 109 48 33 46 77 161 124 102 89 80 115 88 84 112 122 147 73 65 84 95 82 64 58 50 54 35 41 66 51 48 46 35 30 19 -6 -9 -1 12 26 23 25 28 18 17 18 18 22 29 32 25 35 40 46
112 76 37 39 80 202 199 132 88 77 84 141 116 83 82 71 86 73 77 98 107 81 74 81 89 63 70 55 60 34 17 6 -7 13 28 13 10 10 2 4 -0 -6 -8 1 9 26 44 44 33 27 38 38 39 37
78 -8 1 134 220 167 101 88 121 87 116 133 94 92 92 83 67 72 82 114 127 135 109 113 83 92 75 77 49 29 40 46 35 20 25 43 41 30 29 30 5 -6 -6 -7 4 29 43 50 51 50 50 53 48 45
25 33 96 166 176 132 112 117 138 155 144 119 119 97 94 81 82 93 105 131 121 133 144 189 170 120 72 67 45 51 41 41 49 55 42 24 45 59 42 28 24 21 11 9 24 44 69 65 77 79 77 70 57 41
114 58 197 381 281 202 141 135 147 97 101 140 128 140 129 112 99 88 110 132 152 167 208 177 184 105 80 82 64 59 56 59 40 36 48 62 45 48 31 19 22 30 33 31 33 39 54 81 89 85 89 80 71 56
153 275 284 292 215 249 203 164 136 115 117 92 85 103 103 102 92 96 105 140 163 178 206 154 122 94 95 76 76 68 55 54 71 69 45 42 56 57 44 41 50 43 52 53 59 56 64 80 88 89 92 74 80 80
222 223 189 204 150 225 217 303 260 163 128 74 84 76 61 50 42 71 76 79 76 78 102 92 69 74 73 73 81 68 61 65 69 64 61 58 51 55 56 48 51 46 37 41 59 60 68 61 69 90 98 101 111 100
185 132 77 105 149 184 194 299 217 194 183 140 89 61 48 39 62 75 57 71 56 44 48 47 59 41 40 50 45 52 55 61 59 65 63 80 84 70 57 62 53 54 65 74 62 62 69 73 64 97 121 123 118 104
73 103 87 208 204 261 300 209 178 159 137 89 105 76 59 75 66 43 34 37 21 4 -18 -19 -17 -3 -2 -21 -18 -1 17 47 45 38 16 24 38 54 58 59 69 68 72 83 78 72 65 70 68 78 89 100 82 73
171 187 240 247 242 234 174 156 119 121 139 106 63 88 85 60 52 34 28 9 -9 -30 -30 -30 -32 -35 -66 -22 -21 -10 -3 15 20 -0 -19 -4 4 4 3 18 33 25 2 25 50 35 30 36 40 39 48 41 31 66
184 150 145 162 160 153 172 172 166 128 91 80 96 92 77 76 32 28 24 13 -5 -10 -8 11 50 53 42 36 53 40 45 44 29 18 27 45 78 105 93 56 34 20 36 27 28 28 21 20 23 28 31 57 68 88
113 99 87 94 139 128 106 103 99 83 92 99 105 81 44 20 31 23 14 31 38 52 52 48 56 71 79 97 106 100 89 89 76 58 57 76 121 123 127 110 96 37 49 65 62 67 72 63 51 49 55 54 67 99
106 93 113 132 123 98 77 80 71 78 81 53 40 39 35 27 29 30 30 35 49 54 48 47 65 80 77 86 85 85 83 98 89 54 51 70 80 81 91 88 91 82 73 65 43 40 60 75 76 82 87 92 99 140
70 65 85 69 68 61 71 96 104 48 37 43 48 46 40 39 28 36 34 30 28 35 42 53 67 86 85 100 107 124 107 78 83 82 68 53 35 54 88 113 120 91 70 67 71 83 86 138 142 135 138 152 158 160
87 85 91 89 61 63 48 32 41 50 59 57 60 51 46 18 6 49 72 76 97 124 116 100 85 68 75 82 73 82 100 124 134 127 121 90 78 81 92 91 91 95 103 99 98 103 136 143 136 129 123 117 121 132
76 56 42 40 46 41 47 49 46 48 51 53 53 63 53 61 37 47 82 110 115 96 65 71 85 79 77 93 99 101 65 100 108 108 104 107 107 101 99 96 97 108 116 119 124 133 143 120 123 116 110 100 103 108
73 77 86 78 66 50 39 31 50 51 58 60 51 58 70 61 27 62 87 92 80 55 46 35 50 75 78 79 91 101 108 110 107 118 123 117 100 100 103 98 97 105 110 123 131 134 126 126 117 109 111 111 106 97

GFSWCAN_con_3kmhel_081.txt.gz
Helicity
180 290 365 370 290 239 243 227 141 124 105 78 76 77 67 66 65 72 49 37 74 74 33 69 98 141 141 197 221 123 77 76 57 63 26 -10 -39 -2 60 45 61 101 97 116 131 86 53 126 169 108 35 47 28 33
182 285 372 398 359 342 258 269 141 115 96 83 83 73 59 56 66 60 63 31 73 55 37 55 53 154 157 219 123 80 67 35 53 51 35 -0 -45 30 66 63 151 130 87 70 61 21 23 9 16 7 32 26 23 30
203 343 410 374 327 312 222 264 185 105 111 102 92 64 39 28 23 63 36 36 50 -0 9 43 15 121 108 99 116 83 63 55 66 70 45 24 -25 52 54 74 71 110 77 84 80 23 14 -1 24 17 23 20 18 20
227 280 355 403 354 316 293 229 141 115 88 92 74 44 22 18 21 78 -5 -33 -7 -17 40 -31 112 96 40 31 75 104 98 94 98 75 86 93 42 49 45 43 35 39 100 66 47 23 41 17 12 28 33 35 35 30
234 368 459 449 464 397 260 232 118 104 83 73 48 30 25 11 27 44 60 6 70 42 21 26 51 93 17 37 40 61 85 111 127 117 129 140 131 87 58 26 1 73 58 67 41 47 47 31 40 44 54 44 36 41
289 464 509 434 426 332 256 177 103 71 82 70 51 33 22 30 91 62 87 64 73 94 56 3 92 78 62 63 62 76 96 102 136 172 180 170 142 133 60 47 4 47 65 62 22 50 60 31 39 40 35 44 70 61
348 513 579 396 298 227 178 166 55 103 116 108 101 74 72 96 112 114 98 102 87 109 105 79 101 70 62 49 58 74 103 133 157 186 235 244 223 186 149 91 56 173 137 71 118 62 67 32 38 43 53 73 113 117
438 508 508 409 353 273 223 158 200 214 171 160 151 125 127 171 197 158 161 176 145 147 128 139 132 153 45 57 46 65 80 117 135 133 184 187 193 212 139 237 196 73 69 69 106 87 47 32 55 62 74 81 123 122
506 545 569 354 448 333 309 250 222 204 181 169 158 117 99 147 95 114 193 185 153 170 180 177 173 150 40 29 32 36 60 64 98 129 178 171 227 202 130 112 199 176 44 90 94 110 68 42 49 54 77 88 79 80
550 565 468 416 367 366 279 233 210 186 143 152 111 150 129 95 171 164 109 94 113 120 94 118 125 136 64 40 20 37 51 38 73 78 177 127 120 95 42 51 50 197 133 65 81 113 77 62 57 69 82 83 71 64
650 706 577 395 405 332 223 188 159 162 186 171 179 151 101 123 88 80 84 88 97 99 115 100 102 108 44 56 57 34 44 45 51 71 114 93 88 -21 -44 9 43 109 122 32 37 68 77 61 83 112 108 96 83 78
924 604 422 304 275 212 165 157 154 239 167 82 128 138 124 62 72 66 67 75 83 84 146 137 73 54 34 51 42 23 24 39 31 141 88 66 87 7 -11 19 25 52 84 62 74 76 110 137 126 125 111 106 90 85
614 457 403 216 122 120 117 141 140 118 120 217 131 103 50 57 68 48 43 61 82 134 100 75 58 44 40 37 48 26 21 27 94 61 70 77 4 -30 4 20 52 51 69 67 75 88 112 137 161 141 121 115 106 97
441 300 119 103 90 107 154 43 57 200 184 119 111 129 70 51 38 65 72 87 108 113 86 51 50 58 56 39 35 24 21 35 36 39 28 13 -29 -14 -14 1 47 78 66 64 86 103 116 125 128 115 107 101 93 90
149 131 110 125 111 49 34 38 122 133 92 96 98 83 44 66 97 102 105 151 98 84 57 48 57 60 57 46 30 29 25 25 30 19 8 -22 -22 -32 -17 2 17 38 63 78 62 49 52 52 52 47 37 24 16 13
253 262 137 44 43 -16 63 121 157 133 105 93 50 63 61 87 71 106 133 130 78 69 61 44 52 61 54 66 67 50 54 29 41 13 -9 -24 -19 -32 -12 10 21 33 53 51 37 8 1 3 7 11 17 26 26 26
253 277 28 39 87 115 135 160 147 128 108 67 38 57 79 91 102 124 121 108 73 97 96 83 77 51 76 80 88 37 38 75 47 11 -24 -22 -16 -23 -26 6 15 30 34 51 24 10 8 14 20 24 26 28 38 44
162 21 13 96 207 211 212 186 133 114 85 71 68 45 63 94 125 126 102 107 142 121 118 97 113 111 102 115 97 51 14 10 -3 1 -9 -14 -0 -9 -25 -9 5 27 16 22 17 14 17 16 11 11 22 28 35 38
36 -23 18 141 144 190 145 125 122 71 64 52 59 78 98 98 106 113 111 126 127 131 138 105 98 127 81 68 45 40 50 49 26 30 26 21 14 16 17 10 4 4 5 15 13 2 -6 -1 13 27 35 50 43 44
45 37 102 109 117 152 120 95 77 44 37 40 59 70 97 106 113 128 144 157 165 155 143 216 204 150 94 82 80 59 48 41 53 46 41 38 44 45 35 17 19 28 22 26 24 10 20 12 23 50 65 66 67 50
90 6 108 134 112 90 56 15 50 52 43 64 68 91 82 83 109 133 144 146 186 166 206 190 139 116 130 145 112 89 77 71 69 60 51 37 31 34 30 33 42 43 44 38 27 23 18 23 28 58 73 65 68 64
146 234 187 168 97 97 70 97 63 74 68 64 74 91 115 123 120 123 122 152 165 188 249 198 145 121 127 123 86 100 93 81 60 54 46 55 59 57 42 31 44 45 51 52 60 52 49 50 43 55 70 61 67 84
148 196 183 199 90 86 53 144 120 111 96 70 81 94 99 104 96 80 98 101 115 107 118 123 115 109 96 91 94 80 76 69 55 56 56 59 60 64 74 73 66 66 63 59 57 51 52 48 45 61 77 79 97 97
148 144 115 111 106 100 106 171 170 153 167 132 123 110 89 69 79 105 103 98 100 73 72 73 72 60 55 55 45 44 42 55 51 45 50 63 56 55 53 63 67 76 81 86 75 65 54 53 53 69 77 81 85 81
116 126 105 122 126 152 157 140 148 158 147 119 126 102 73 75 89 78 72 52 37 20 12 22 28 15 7 14 4 -8 3 37 32 18 7 31 27 21 15 12 24 34 53 75 67 60 61 61 57 55 57 64 54 50
168 165 168 159 172 169 146 152 124 148 138 117 98 110 107 98 87 45 45 27 5 -4 -7 -14 -16 -18 -40 -39 -54 -31 -15 31 47 22 -5 16 16 25 21 25 19 20 3 17 21 12 10 13 19 17 20 14 1 25
148 153 138 141 140 122 145 158 169 145 107 97 96 111 96 75 53 49 17 19 23 18 14 5 11 6 -2 -16 -3 13 62 88 81 61 45 53 82 123 137 100 70 71 79 76 59 46 29 24 29 28 28 44 40 47
101 82 85 89 127 116 95 77 69 58 78 100 130 92 80 84 57 24 31 55 54 62 57 49 40 36 35 41 57 76 98 112 93 70 56 70 124 129 133 121 103 58 83 98 92 87 82 71 65 61 60 54 57 71
74 64 99 112 100 80 56 60 57 74 97 99 89 69 51 19 36 41 35 23 18 28 41 59 56 70 64 68 74 74 85 103 94 68 51 42 35 33 60 76 90 106 117 120 98 81 78 87 82 83 70 72 78 102
67 80 92 95 90 64 74 75 73 65 50 31 12 19 36 36 34 31 25 27 34 37 43 56 68 80 68 74 78 93 89 84 103 112 106 97 79 82 80 88 100 118 130 131 121 109 100 128 136 119 106 108 110 117
102 108 103 94 74 60 48 39 25 14 12 16 28 27 35 29 30 34 51 68 74 86 80 76 39 13 19 32 48 73 90 123 137 129 116 112 106 102 106 115 112 106 103 110 124 134 139 152 151 135 117 100 89 102
105 85 74 71 40 9 -3 5 11 18 23 27 28 45 34 37 41 50 80 94 115 112 80 57 55 60 58 75 73 77 48 93 99 106 103 113 120 124 133 141 139 127 119 112 107 112 117 117 130 123 111 87 83 81
48 36 31 43 36 19 25 29 47 47 48 54 48 41 45 55 46 57 73 105 111 81 66 58 59 68 54 43 57 59 44 53 45 40 51 52 54 85 136 145 115 107 104 114 116 124 111 121 118 108 100 89 78 73

GFSWCAN_con_3kmhel_084.txt.gz
Helicity
520 608 482 255 331 332 314 243 225 242 202 135 169 141 134 121 104 108 97 65 55 55 5 -12 87 122 110 123 107 111 57 43 21 67 68 67 24 -44 -84 -25 18 31 39 48 53 47 37 81 151 89 72 55 40 35
491 498 510 216 374 383 357 262 270 301 157 159 151 136 127 115 104 86 103 37 59 24 44 31 23 97 80 100 124 95 50 27 32 34 60 47 32 4 -38 -87 64 48 88 66 43 42 45 -17 12 6 27 22 21 31
248 482 237 323 400 421 382 307 238 245 203 145 131 146 117 103 109 104 72 29 42 15 25 61 53 120 72 39 25 85 38 28 53 56 60 58 32 29 -32 -6 53 60 63 111 84 33 13 11 -1 10 7 -2 8 10
458 466 200 339 475 441 431 308 286 319 268 105 128 140 114 89 109 104 91 58 12 -26 30 26 100 98 51 35 60 38 59 64 81 77 81 89 87 84 49 53 48 44 56 79 23 29 61 45 29 26 18 12 15 27
359 418 205 325 509 455 414 336 352 267 213 105 122 117 75 56 106 109 68 -9 -31 5 8 26 76 86 57 98 80 64 67 70 80 91 107 115 105 108 120 90 45 49 46 46 50 88 87 73 73 53 19 21 25 35
504 453 114 355 502 435 339 412 357 273 188 92 106 69 51 59 81 55 98 -0 -33 28 -0 8 84 69 92 92 81 80 79 80 90 111 140 122 110 128 152 152 127 9 99 118 70 73 62 103 70 36 29 27 39 56
423 379 268 423 545 440 378 403 311 231 68 94 82 43 48 87 104 110 84 56 62 37 21 54 71 79 87 67 67 74 86 89 105 132 112 119 128 181 218 197 64 28 89 206 188 95 80 79 88 59 38 63 78 106
295 147 224 434 564 531 415 339 264 156 81 96 97 137 161 151 108 139 132 132 98 53 52 54 52 97 85 91 68 61 64 77 89 70 96 119 125 180 124 67 -27 118 -50 153 194 60 116 107 96 57 48 68 82 100
361 134 449 520 503 421 409 247 250 253 206 283 270 203 180 151 126 94 143 126 111 81 81 64 58 68 78 68 49 44 48 39 59 53 65 97 104 107 159 7 31 82 6 158 184 78 109 127 74 53 44 52 65 69
116 522 492 592 494 473 383 361 365 275 269 271 284 217 217 146 117 96 67 51 55 68 52 25 69 69 82 71 62 30 43 29 31 36 82 71 54 67 106 16 21 64 84 50 142 126 103 114 101 66 47 54 65 74
368 535 575 574 696 550 474 440 425 255 266 263 270 265 140 35 75 53 56 42 50 33 30 34 48 79 59 87 60 47 27 35 27 37 44 63 67 103 27 -34 18 64 53 52 46 96 123 123 101 86 94 104 101 88
562 724 653 653 611 490 381 421 329 271 193 140 176 151 89 83 69 78 51 43 37 26 49 58 58 39 45 51 41 42 18 38 17 71 46 51 77 -9 -35 -10 31 90 82 45 19 34 72 95 87 119 135 130 118 110
837 810 777 721 434 349 334 265 192 188 261 276 210 162 86 69 107 115 88 39 19 35 41 58 66 33 47 37 40 26 17 20 62 33 40 47 57 -26 -25 -11 13 43 50 37 38 34 68 111 140 146 141 119 102 110
929 763 819 560 338 340 255 136 164 257 291 259 216 152 126 121 102 73 55 45 49 63 87 79 62 55 48 62 48 46 32 35 19 33 27 48 -22 -34 -9 17 -7 26 35 56 57 72 92 112 135 142 131 122 101 95
885 637 464 357 284 174 188 247 235 202 212 135 106 143 116 91 68 59 84 104 96 102 104 86 63 54 70 65 51 50 57 37 44 35 41 6 -28 -26 -25 -13 5 30 65 96 100 92 104 95 96 95 79 70 57 44
763 536 351 210 196 237 265 271 211 131 136 95 105 128 76 112 92 74 72 114 101 110 98 84 99 105 98 61 67 61 92 89 66 45 40 -13 -25 -18 -21 -15 12 32 51 85 111 61 21 6 7 11 16 24 25 25
671 701 175 178 203 243 234 223 219 125 99 133 122 100 64 87 55 62 94 120 111 147 130 136 126 111 102 81 63 65 82 87 58 63 28 -8 -22 -21 -27 -36 16 22 10 14 32 53 49 31 20 18 19 22 24 32
606 216 161 161 167 188 239 141 104 105 157 116 120 103 92 90 92 114 116 149 170 146 175 165 151 155 150 127 96 91 68 48 33 10 13 9 3 3 -4 -11 -27 8 25 26 35 55 34 12 15 19 17 17 19 25
30 9 62 49 141 180 120 132 124 130 115 129 124 70 80 81 112 137 127 128 172 199 213 186 171 112 73 89 71 81 72 45 31 54 62 30 11 16 19 17 8 -3 -0 15 23 13 10 14 22 18 14 21 16 30
70 92 53 128 148 155 144 117 118 117 123 93 91 85 85 96 119 126 145 157 177 225 253 206 174 129 99 90 54 72 82 65 57 57 59 54 38 30 23 29 30 34 27 21 21 12 32 35 40 35 33 28 33 25
198 158 160 128 186 160 123 120 121 93 50 59 75 88 96 116 124 119 131 153 200 223 204 167 153 117 98 93 113 121 96 90 71 65 80 86 78 51 36 23 25 37 44 46 40 39 43 54 51 52 48 44 45 45
255 191 199 150 132 122 114 105 96 60 76 80 83 93 91 80 91 106 113 151 154 162 202 174 147 108 91 100 122 135 117 105 82 81 64 56 61 60 57 58 55 51 51 54 54 41 44 58 60 63 71 52 50 59
103 117 106 95 141 139 97 71 60 89 79 80 85 80 78 86 98 86 105 92 93 106 124 129 125 119 94 100 105 90 89 89 75 70 56 50 51 55 56 52 51 61 69 70 64 63 60 61 66 60 58 61 70 71
87 62 85 105 96 83 57 71 94 93 92 88 81 80 75 87 79 96 88 92 85 85 89 88 86 74 60 53 43 50 46 64 51 45 46 47 39 33 37 39 37 43 62 75 69 63 54 50 51 64 68 65 64 64
59 99 63 67 50 42 47 62 75 73 78 94 108 94 86 64 86 89 89 63 64 56 41 35 37 28 21 16 13 1 -5 -3 -5 -8 -1 3 7 -1 -6 2 11 1 13 19 12 6 13 29 42 50 50 48 44 41
91 77 65 51 66 64 44 50 54 89 101 111 108 99 86 84 96 71 50 46 42 29 14 5 -12 -30 -47 -36 -27 -22 -25 -15 5 4 -0 19 21 22 10 8 -0 21 26 50 56 44 28 24 17 15 17 17 11 20
73 52 92 122 88 71 84 108 114 115 121 119 106 104 99 113 73 51 42 32 21 16 15 3 12 -1 -5 6 6 15 31 52 69 83 93 73 57 59 64 63 50 64 58 55 70 69 56 47 44 47 44 50 45 43
93 86 65 73 103 95 89 89 85 79 93 85 104 88 87 71 68 50 41 49 60 66 53 44 44 40 38 38 47 57 71 92 89 81 72 71 79 82 85 73 67 43 58 81 87 86 82 79 71 63 63 68 68 72
96 80 110 133 126 98 80 84 68 54 61 61 73 72 79 61 33 33 38 24 18 20 34 52 66 76 70 71 69 70 79 88 94 87 78 71 73 89 119 101 97 98 99 110 123 132 134 127 115 97 96 90 94 96
88 76 109 107 104 91 70 67 61 80 100 99 82 72 47 9 17 28 22 21 35 52 70 83 84 89 77 75 65 67 77 84 90 109 117 114 112 110 99 101 108 114 112 106 107 114 132 142 152 192 143 124 111 105
88 113 112 101 75 68 69 85 88 82 77 54 10 -3 -15 -12 17 34 46 64 81 75 85 95 73 53 37 38 42 58 81 102 109 102 96 107 105 101 102 106 111 108 107 118 128 129 136 141 137 145 137 121 104 100
114 89 78 74 60 72 71 72 64 52 19 -0 -13 -2 8 27 32 40 74 99 115 110 88 74 53 31 34 44 50 55 18 64 86 95 98 108 112 108 113 123 141 148 130 129 138 148 153 130 129 112 113 104 101 95
110 104 105 90 76 54 19 15 7 -10 -11 -7 7 35 46 46 32 64 80 76 88 88 84 71 54 47 31 31 50 59 66 86 78 65 64 64 62 82 109 125 129 123 120 128 139 149 132 128 120 118 107 88 74 71

GFSWCAN_con_3kmhel_087.txt.gz
Helicity
-7 -129 53 209 465 73 362 243 184 161 129 134 130 192 155 169 216 194 203 137 127 159 146 100 109 121 91 77 84 146 114 87 44 53 44 46 42 2 -58 -49 -7 -1 -2 87 50 60 28 98 81 53 78 63 40 17
38 -79 46 271 532 229 416 230 189 169 138 127 162 211 172 161 156 228 209 136 152 170 157 103 121 98 83 88 98 125 123 65 40 33 36 28 50 49 33 -82 5 -31 70 68 63 68 59 -8 22 22 10 39 40 41
18 -77 61 374 459 370 326 253 262 240 215 155 181 191 176 168 139 136 176 112 123 148 116 89 117 94 65 42 44 115 93 39 39 35 46 54 49 57 52 48 29 28 60 57 80 73 66 50 16 17 25 19 25 25
51 -102 101 285 338 130 321 349 382 295 243 214 147 185 191 172 163 170 170 103 133 148 107 86 114 78 62 56 54 41 63 50 46 44 57 69 63 75 71 70 56 31 53 65 59 13 114 86 103 91 61 16 13 17
81 -75 -48 293 306 187 410 339 428 344 305 291 142 187 233 239 219 204 189 158 124 96 85 84 119 100 69 71 71 61 49 48 45 47 59 73 73 73 70 55 68 48 45 27 55 94 117 149 108 117 87 58 26 11
43 -8 51 258 192 351 470 473 479 327 353 310 269 197 195 188 164 154 164 120 83 49 53 88 96 97 99 94 92 79 48 57 50 50 68 67 60 90 100 146 95 67 91 91 121 77 105 96 103 98 81 65 41 37
46 -82 136 271 89 426 621 541 431 360 369 319 340 124 155 183 170 166 143 95 48 40 46 78 79 84 97 90 84 83 67 67 45 49 59 67 81 103 141 151 133 109 70 82 86 48 33 59 86 126 91 60 48 78
-83 48 254 255 249 439 554 451 414 471 335 311 214 135 155 125 130 204 179 122 68 61 67 79 74 82 87 100 106 62 66 52 50 47 57 76 71 86 64 115 126 -28 5 32 49 78 118 77 100 122 91 60 44 62
-12 176 243 86 383 538 526 461 391 362 341 387 337 162 186 150 160 116 98 86 98 91 56 65 72 63 86 97 90 63 37 75 55 45 50 73 55 40 106 128 117 -9 7 40 104 87 67 71 125 145 94 69 42 51
133 223 261 295 501 579 489 444 394 413 487 377 323 340 256 161 67 76 91 52 47 81 74 75 75 57 67 92 96 83 42 59 69 48 55 55 27 17 76 116 91 -33 22 75 79 98 56 51 112 109 83 79 62 63
210 199 134 384 518 532 521 482 468 485 533 585 478 420 145 105 123 94 77 77 68 86 50 65 40 54 57 66 92 51 79 65 97 70 35 43 27 93 68 58 47 -6 8 32 44 75 63 55 69 102 99 94 89 90
213 231 256 525 627 612 624 535 503 804 602 384 310 212 183 174 93 110 109 87 86 101 60 61 47 57 60 44 73 68 88 76 130 73 44 42 60 62 33 24 12 2 48 51 48 27 34 60 79 122 131 123 130 128
244 256 471 651 588 659 550 463 560 433 283 312 332 256 208 137 130 104 85 94 127 47 48 58 56 61 50 37 71 80 107 93 67 62 69 46 49 34 16 9 21 11 34 57 22 21 36 64 86 90 103 112 136 136
224 462 600 695 725 728 561 440 344 312 354 461 468 361 229 156 105 108 76 98 76 64 88 69 70 54 56 65 68 91 100 74 125 131 82 68 33 28 10 9 13 -3 33 34 28 37 41 44 73 107 117 122 117 106
583 755 896 824 836 587 429 486 369 235 506 495 361 250 157 125 113 74 76 105 104 110 112 89 68 61 69 73 70 104 124 142 97 103 70 46 34 27 5 1 -0 11 33 57 69 75 75 84 115 115 105 87 71 60
995 1037 850 671 587 486 449 389 352 311 393 414 369 241 93 103 106 79 87 127 123 118 110 66 63 58 67 71 103 115 153 159 131 95 74 41 30 24 -3 -8 -2 4 17 37 72 107 132 89 42 21 18 23 24 29
982 959 644 625 477 434 320 444 443 491 377 282 199 86 81 106 70 90 104 100 100 119 72 67 60 66 104 92 106 140 137 127 114 82 48 30 25 18 4 -6 -3 -9 -3 5 6 24 53 54 38 28 22 30 31 37
1001 593 476 506 496 390 409 350 280 255 289 121 121 111 103 60 92 104 109 126 128 90 97 95 109 107 94 112 152 163 94 91 85 65 29 1 -0 25 21 21 22 13 -3 3 18 7 21 57 60 29 33 30 26 20
796 608 419 266 251 319 162 39 90 190 130 151 134 148 128 121 137 130 121 143 125 125 124 113 84 73 119 137 168 120 111 90 82 89 74 60 49 45 44 31 33 23 19 18 19 8 9 9 20 30 39 45 32 33
308 241 223 140 198 168 111 131 121 117 160 134 146 159 151 153 152 144 130 158 150 143 126 119 136 150 132 98 91 108 97 119 100 81 75 82 70 66 46 34 29 36 38 37 39 37 51 51 53 51 69 62 53 46
212 201 224 191 200 112 117 134 176 141 125 153 158 159 151 151 145 120 114 138 133 147 117 114 133 120 124 127 124 110 111 124 108 97 89 90 83 56 55 52 50 48 41 42 41 38 36 43 44 51 66 79 77 74
263 190 306 254 206 158 139 158 143 125 147 148 155 126 120 112 91 89 128 115 103 126 153 144 120 96 97 88 83 98 109 134 126 114 104 90 70 60 53 54 57 53 50 53 58 63 65 68 70 67 67 64 63 79
203 200 224 210 160 171 170 170 208 201 198 164 132 144 109 78 80 116 74 66 70 92 113 99 95 103 99 111 112 109 109 112 102 91 85 76 62 61 55 45 39 38 53 54 54 63 70 59 62 62 66 68 75 75
229 220 197 183 168 166 179 200 174 193 152 144 123 104 75 68 78 64 50 71 79 76 67 68 80 79 85 87 80 77 74 81 67 72 70 62 53 45 38 30 16 7 15 22 26 29 29 37 40 60 65 63 60 62
188 180 164 193 181 188 206 187 160 130 116 91 84 78 86 91 71 52 63 73 61 49 41 49 48 50 56 56 48 38 34 30 30 13 19 31 25 13 4 -0 1 -5 -4 -9 -0 7 12 24 34 42 37 32 35 41
214 141 150 145 145 154 118 137 82 74 84 100 109 116 105 98 73 50 72 70 56 57 46 26 20 27 24 14 10 3 -1 -12 -9 -9 11 33 44 46 28 6 -4 4 40 14 15 25 33 43 48 44 45 41 32 32
145 120 85 70 60 45 44 66 85 99 99 95 95 107 111 88 62 73 58 52 63 65 44 23 11 18 22 19 18 21 21 30 42 48 62 80 86 81 68 50 43 66 68 54 64 68 64 67 65 62 57 61 70 71
82 26 35 58 78 85 63 75 79 76 99 107 128 104 93 90 90 67 54 51 62 69 56 50 46 44 42 49 50 46 48 55 52 53 59 71 96 112 125 123 115 96 72 59 65 79 88 90 87 88 88 88 91 91
48 62 88 100 106 88 71 67 56 77 82 88 94 96 92 63 64 63 56 51 53 54 57 56 65 65 68 64 53 52 51 56 69 70 67 72 80 112 145 134 119 111 107 110 106 95 91 102 113 123 125 132 139 135
84 103 111 110 96 88 90 94 93 84 75 76 71 64 65 65 70 55 40 27 23 32 40 58 69 79 72 67 59 53 59 76 91 102 100 100 114 116 95 96 99 107 116 121 120 118 127 130 127 160 159 151 137 132
138 135 123 119 102 100 93 90 82 77 76 71 71 69 73 65 44 17 19 29 49 69 75 83 77 72 67 64 56 57 60 96 122 126 112 115 109 103 110 118 126 121 113 105 107 113 119 136 138 125 117 129 127 115
143 123 116 120 107 89 70 62 65 67 68 64 71 62 57 51 51 16 33 54 73 94 102 95 88 74 70 73 81 87 68 97 105 105 94 98 107 107 109 122 131 135 133 125 124 123 124 125 139 137 144 140 135 138
140 130 128 112 91 72 67 67 75 74 67 75 75 69 69 65 58 49 58 54 85 101 96 86 76 76 72 70 66 70 74 90 80 61 56 55 52 65 91 104 113 152 148 150 147 136 130 129 134 129 126 122 122 126

GFSWCAN_con_3kmhel_090.txt.gz
Helicity
33 -8 -31 -37 -50 96 179 248 127 305 237 232 200 128 62 82 107 170 103 180 148 154 143 147 140 138 131 121 114 150 139 120 110 143 100 57 44 21 26 -9 8 26 16 19 21 33 50 79 82 40 67 69 62 43
18 -15 -41 -53 -171 -110 81 268 163 249 262 357 201 126 89 54 98 139 166 222 217 177 137 155 202 180 185 135 141 154 155 139 93 121 73 38 43 35 30 35 32 25 31 -6 6 84 85 25 72 48 56 50 59 61
2 -22 -17 -49 -46 90 316 118 294 297 294 237 216 60 81 158 156 118 171 208 175 159 158 153 105 131 147 95 84 151 134 97 79 37 44 45 56 44 51 66 30 67 28 23 59 79 93 139 74 129 99 62 51 44
-15 -43 -4 -5 48 245 499 137 281 306 196 162 77 117 145 178 138 149 213 197 176 140 126 121 101 126 109 87 96 123 124 78 51 34 40 57 50 64 71 70 56 62 48 52 46 80 108 141 165 159 132 80 54 33
-21 -21 9 44 60 184 547 107 261 337 224 200 112 156 162 146 168 284 278 260 195 116 95 75 132 159 109 83 105 101 110 79 48 53 53 57 50 55 58 59 75 31 76 119 90 120 93 114 170 184 140 85 75 55
-11 13 24 32 108 123 510 137 277 369 329 307 179 150 139 128 196 243 193 221 190 143 88 92 114 129 128 110 116 105 92 63 36 41 41 44 43 77 86 102 58 91 109 113 112 88 37 81 22 73 106 101 86 65
17 28 80 35 181 154 81 282 317 407 347 334 188 197 236 218 235 172 89 121 160 142 98 87 86 97 90 120 102 98 89 67 36 31 57 54 75 96 104 116 95 187 175 118 84 31 -40 22 10 80 114 99 71 71
15 73 126 60 81 124 323 348 339 423 419 438 380 224 189 145 216 227 282 184 135 106 70 77 92 100 73 106 105 77 91 62 51 53 48 64 79 85 71 79 90 139 120 76 28 -23 25 51 17 63 100 94 59 45
47 105 144 152 147 140 451 464 429 474 496 499 453 399 308 166 130 144 127 142 126 92 77 70 110 93 85 113 110 91 71 96 68 81 69 71 74 60 78 108 115 97 121 62 -51 53 71 106 58 22 64 97 82 58
104 92 102 102 171 357 534 497 468 481 432 425 528 332 251 190 63 109 129 102 113 93 117 118 118 108 83 99 86 95 73 80 115 83 55 74 51 10 53 91 84 66 50 13 -2 -23 41 129 106 62 78 109 104 95
140 122 68 252 286 483 552 504 449 456 439 613 540 392 207 104 168 161 79 84 78 97 93 146 128 129 83 87 81 56 91 98 93 100 108 109 76 70 78 65 69 48 23 -6 -19 -38 17 83 82 53 71 110 111 120
139 136 194 111 430 498 444 458 444 648 572 470 381 293 287 257 194 151 123 91 80 96 76 118 127 98 76 56 61 71 84 101 64 121 123 127 68 51 57 46 55 48 26 19 17 7 16 38 44 46 92 136 173 179
86 116 170 386 538 451 498 472 567 505 500 538 482 389 283 222 175 132 111 82 90 76 82 115 136 76 66 41 65 71 77 77 124 121 118 93 77 53 41 45 47 42 32 37 27 44 33 25 38 68 89 91 93 90
144 319 268 505 514 519 553 523 474 604 669 568 418 326 180 116 104 114 93 94 85 89 128 135 119 79 59 61 61 61 92 117 92 86 102 119 69 48 38 49 37 30 37 51 48 47 45 17 27 37 39 53 57 60
190 172 503 571 594 674 571 582 603 713 743 459 326 189 190 214 173 106 113 125 110 92 136 164 120 75 80 74 55 77 83 59 91 110 149 81 65 47 43 32 27 20 12 40 57 60 65 58 50 59 83 91 76 68
145 428 598 688 725 712 667 687 692 589 579 371 288 215 168 173 132 108 114 178 108 151 151 110 95 82 82 69 79 66 91 78 110 140 117 91 68 49 54 30 28 31 10 14 26 47 64 81 92 75 37 24 20 23
564 692 804 845 748 702 626 682 669 587 379 323 325 280 186 130 132 146 126 131 104 146 143 102 111 81 81 78 75 79 95 121 122 107 102 77 66 57 42 26 22 41 21 12 12 1 4 23 47 47 46 34 29 29
669 777 931 849 881 703 762 699 636 401 395 387 299 201 121 108 146 159 114 99 124 118 101 101 84 94 71 68 65 95 134 106 81 92 79 73 70 67 51 31 38 39 36 14 11 12 1 13 12 7 23 44 24 25
782 867 916 861 750 956 753 592 516 461 429 343 210 174 151 159 138 126 146 154 129 127 122 94 87 53 74 92 102 123 138 129 104 76 84 79 74 83 80 67 50 37 32 27 27 32 37 23 35 20 10 37 46 33
1085 992 721 639 625 774 682 527 385 310 245 175 142 169 152 131 129 120 138 150 139 127 110 95 80 96 86 85 119 163 171 141 118 96 96 86 91 119 93 75 58 51 46 40 43 24 44 37 48 50 44 55 69 42
971 760 719 694 812 621 411 370 241 131 126 122 145 166 169 182 184 161 142 124 141 104 82 75 98 99 111 127 155 154 128 112 102 101 110 122 120 126 108 81 59 49 53 53 54 57 49 55 53 50 51 49 50 50
954 552 605 499 495 354 233 269 237 151 146 149 189 159 148 165 167 151 125 132 98 82 95 95 103 103 109 103 92 94 95 108 111 132 158 169 149 130 114 85 84 73 59 53 57 63 71 59 57 61 67 69 59 67
255 274 251 200 188 180 168 154 188 216 176 155 182 179 153 147 136 129 98 66 55 77 117 107 98 102 99 89 93 95 108 119 108 107 110 115 99 95 95 77 66 57 47 38 31 40 44 30 42 49 51 57 69 72
275 248 219 218 180 193 162 220 189 200 182 184 186 185 161 148 100 109 79 39 53 79 82 82 91 90 78 81 81 89 82 97 87 87 92 102 83 60 61 57 47 26 21 15 6 -1 -3 -4 -6 11 17 27 37 52
192 188 160 209 195 192 206 204 226 219 222 201 202 179 142 108 111 76 44 31 62 79 73 72 72 71 83 82 81 72 57 70 72 46 19 53 42 36 36 26 17 5 15 19 10 8 2 4 13 24 31 35 31 34
219 206 201 207 212 223 199 211 185 190 213 214 182 124 87 94 87 39 28 49 76 83 70 59 60 67 57 51 51 35 15 -10 1 7 -2 17 35 40 37 36 34 33 78 54 26 11 14 20 29 37 45 47 43 50
203 166 185 168 199 198 213 200 175 182 176 141 108 100 103 96 45 53 71 83 89 82 78 62 49 46 47 34 26 21 18 25 35 39 47 63 73 81 85 71 58 57 58 47 39 30 30 40 48 58 59 63 65 70
181 109 125 128 142 150 169 168 142 122 104 78 104 94 60 60 69 78 90 66 76 99 99 82 68 55 48 50 47 47 48 53 45 48 62 93 114 128 140 143 130 118 91 76 67 67 67 69 73 79 84 91 99 106
151 112 128 156 132 89 76 73 70 84 89 76 91 102 103 85 74 78 61 62 76 94 94 78 73 74 80 75 67 72 74 77 78 78 73 71 81 103 140 117 91 84 81 83 95 99 92 99 107 118 112 122 123 130
111 74 102 83 77 70 69 87 86 82 93 97 88 77 76 67 58 59 68 76 75 61 48 51 57 72 74 78 71 76 85 81 76 76 80 81 85 92 90 91 93 95 99 105 113 127 136 135 130 142 142 146 150 144
98 95 88 92 78 90 84 90 88 88 83 79 79 83 87 79 74 66 64 59 67 77 68 65 70 68 70 74 78 82 79 78 96 100 89 89 91 100 106 105 108 114 119 112 109 106 107 126 132 126 122 108 106 109
129 109 98 97 101 100 86 90 86 85 87 87 88 88 90 93 76 34 23 67 86 81 64 67 69 62 67 71 67 68 58 86 87 78 68 76 92 103 114 125 128 132 132 123 135 128 111 101 109 115 115 112 119 124
158 166 160 135 123 98 86 91 93 81 85 81 88 88 84 75 57 22 27 33 56 70 78 77 73 71 66 63 66 61 61 70 62 68 75 72 64 64 80 85 98 119 115 137 137 127 105 84 82 81 87 95 106 112

GFSWCAN_con_3kmhel_096.txt.gz
Helicity
-69 -82 -45 4 47 51 20 25 72 71 109 151 160 266 234 34 29 166 258 278 168 95 112 110 92 68 93 80 50 59 53 41 87 105 123 117 115 78 80 41 63 66 103 78 43 40 -20 72 90 116 97 120 73 54
-55 -89 -72 42 39 55 33 28 17 49 117 115 107 364 155 5 93 162 239 269 176 105 92 111 122 142 80 73 88 74 45 80 100 121 89 100 103 79 90 86 22 58 67 78 92 63 12 0 43 157 187 138 108 86
-55 -106 -87 47 39 56 54 49 18 114 117 19 113 254 183 87 156 178 227 221 167 102 123 120 140 153 161 93 79 68 37 91 92 74 72 65 96 72 117 74 51 45 84 98 80 100 68 9 64 66 219 158 131 107
-42 -112 -95 49 38 56 51 64 43 144 198 66 98 154 165 203 226 231 270 241 105 72 66 89 87 104 115 99 121 97 94 123 115 68 56 60 71 34 70 61 72 68 62 93 95 51 45 112 104 7 30 124 85 140
-25 -101 -95 46 45 70 72 67 56 150 19 124 84 182 183 276 256 269 231 194 120 74 65 110 126 150 135 129 186 161 133 132 109 69 53 58 27 45 48 60 72 93 118 163 169 151 97 32 107 102 24 8 72 108
-36 -85 -91 46 45 74 48 125 172 -33 130 157 222 233 283 279 324 355 400 133 116 72 68 39 83 112 134 172 179 145 119 104 78 65 43 22 21 49 81 92 61 99 130 143 169 167 144 43 13 38 34 6 30 74
-58 -98 21 35 54 47 89 188 76 175 177 300 353 333 334 374 401 508 239 104 139 111 101 54 59 139 190 172 109 92 109 87 74 53 55 36 19 50 79 91 96 138 108 100 107 144 155 85 17 38 54 29 37 69
10 -25 45 45 54 63 47 110 102 187 333 311 395 495 560 442 449 353 199 188 198 131 114 51 30 47 66 48 38 56 63 63 59 61 42 48 34 43 58 43 40 66 63 82 93 133 115 63 47 -2 39 12 16 63
7 45 46 49 67 55 94 206 207 206 303 430 408 359 407 407 370 196 147 174 189 138 121 63 35 10 74 100 64 48 54 53 56 68 50 57 64 53 62 51 72 67 77 89 68 69 42 20 -14 -37 56 69 21 68
62 42 64 58 57 71 156 262 340 388 401 384 469 528 583 424 180 135 137 136 155 140 129 43 110 73 72 51 42 43 25 52 57 48 50 62 17 12 21 62 81 73 82 76 71 73 22 -32 -46 -20 47 47 32 68
69 63 74 67 81 145 205 402 444 419 384 522 541 533 412 212 195 174 142 86 106 5 35 103 156 127 60 36 43 26 38 43 60 53 72 49 24 47 55 65 66 72 73 59 59 50 46 19 -15 41 64 24 29 54
70 83 74 59 12 133 449 497 475 484 405 463 430 388 364 294 217 102 57 76 -4 -37 44 127 245 249 191 103 61 24 66 54 72 69 60 43 47 49 59 58 48 50 46 40 46 49 18 -8 -28 -14 49 56 57 64
96 59 -55 117 169 261 500 471 329 366 493 573 553 465 312 171 116 69 4 40 18 24 72 166 235 185 121 50 42 47 77 80 81 64 52 38 67 67 61 80 66 49 33 31 41 50 14 -9 -25 -8 22 39 47 54
45 -76 122 124 339 508 586 357 289 464 588 214 243 114 124 93 52 31 39 55 95 101 168 226 219 129 91 104 55 98 91 93 92 97 43 53 67 87 78 66 53 44 32 25 29 29 36 9 -9 31 43 57 54 62
-103 -47 236 301 513 560 414 296 402 479 299 216 138 77 99 66 91 88 81 115 167 128 220 211 179 104 150 126 74 100 102 106 75 63 43 57 83 87 71 60 60 59 43 26 19 24 38 45 25 41 51 61 58 39
-114 166 155 383 499 385 396 416 476 439 291 193 144 122 124 138 97 108 118 150 144 199 190 160 149 143 142 124 117 120 139 97 75 45 49 87 88 75 69 59 55 61 66 49 33 32 28 37 33 33 48 63 78 85
27 207 376 504 477 459 409 453 429 219 128 170 202 149 141 145 144 160 130 118 130 168 169 160 158 122 112 118 125 105 99 79 49 48 59 79 79 69 67 64 47 51 51 58 48 36 28 22 18 19 38 32 26 37
298 414 563 554 606 609 573 286 185 170 219 238 212 179 114 83 102 119 124 117 124 124 152 138 122 133 127 115 107 68 45 60 69 64 72 69 66 72 75 68 51 45 50 56 58 51 50 41 33 28 30 17 16 14
352 521 598 641 615 411 246 203 214 251 254 249 231 192 179 186 171 133 169 185 124 134 155 151 141 109 114 92 81 59 46 55 61 72 83 82 75 77 84 85 82 67 57 65 78 79 65 44 32 23 40 52 47 47
507 525 617 562 397 274 239 228 246 179 220 243 246 224 172 146 152 150 173 152 164 181 169 141 101 94 95 72 51 64 55 74 112 124 114 107 91 111 102 102 92 87 88 92 85 66 65 55 52 40 50 56 56 49
777 704 676 518 411 278 203 270 227 184 224 236 251 258 180 179 166 145 139 142 144 132 92 72 84 84 83 68 59 74 98 107 108 121 126 121 116 124 123 121 127 116 105 104 101 82 64 56 53 51 57 59 59 64
706 615 712 535 311 262 156 255 254 225 254 205 179 127 115 107 102 123 144 142 100 60 71 90 96 95 95 90 91 97 103 108 121 128 136 138 148 156 154 142 156 119 106 97 92 70 59 56 53 54 57 47 45 45
658 506 429 302 169 159 191 287 289 269 123 168 218 161 121 93 101 156 113 81 48 54 77 101 113 128 118 112 102 97 98 109 110 108 110 113 114 122 131 129 116 116 97 83 72 62 44 16 13 16 15 15 13 14
697 416 253 212 175 155 218 249 227 217 190 177 146 125 123 112 145 165 108 80 80 106 102 104 126 137 116 103 87 83 87 89 96 99 93 101 90 77 76 64 65 71 76 74 59 31 12 1 9 19 26 29 27 24
344 362 248 206 232 215 225 219 224 209 191 178 161 126 84 123 126 110 84 77 94 91 88 91 104 103 102 99 90 79 75 77 78 64 57 51 55 44 35 39 58 68 52 60 48 39 21 13 26 34 31 29 31 35
255 209 244 205 248 298 245 203 154 149 195 170 142 130 139 138 139 100 97 90 90 80 70 71 82 95 90 89 95 89 68 43 43 49 31 20 27 42 45 66 85 91 97 82 69 50 36 34 35 34 38 44 50 50
156 152 215 261 213 246 261 248 186 195 152 107 117 136 159 147 121 118 82 84 96 79 78 70 78 86 81 77 71 62 54 45 51 57 54 64 77 80 87 99 105 114 112 102 87 75 70 70 65 61 59 71 73 66
128 140 97 179 216 220 218 260 192 144 152 137 164 180 151 152 128 70 64 63 69 76 101 108 106 95 93 91 80 65 66 74 89 103 110 116 122 131 141 137 128 136 128 115 107 105 99 95 97 97 97 91 93 105
132 150 141 176 172 161 166 159 169 182 167 143 198 173 139 109 84 72 68 67 76 88 110 107 109 110 131 126 129 127 120 101 101 103 97 89 98 97 133 130 130 131 128 132 134 127 118 115 109 107 103 105 104 108
155 166 159 176 175 151 139 143 160 137 163 150 122 125 128 124 114 99 88 89 87 78 73 77 77 75 75 83 89 100 106 92 85 88 90 89 96 114 129 135 137 136 138 139 135 138 149 146 139 146 138 123 113 102
184 190 206 208 186 157 156 154 155 149 139 128 134 126 126 115 101 85 72 68 74 93 107 107 103 79 84 75 75 77 73 66 89 104 103 102 106 112 121 126 130 129 128 123 117 115 112 121 124 122 119 114 113 117
172 169 160 171 181 160 151 159 145 133 132 123 135 129 129 125 111 61 39 75 87 77 62 63 75 51 48 64 68 71 81 81 79 87 94 101 101 101 105 117 139 153 145 134 133 121 111 98 93 88 83 75 72 67
168 188 192 198 196 172 127 119 124 111 116 107 113 108 98 91 79 48 56 52 47 37 48 55 72 78 68 64 64 68 80 77 74 71 65 61 61 80 98 113 114 114 109 100 87 86 73 65 54 39 36 37 37 35

GFSWCAN_con_3kmhel_099.txt.gz
Helicity
107 61 30 5 -71 2 22 30 34 83 89 87 149 121 66 236 106 83 106 126 84 122 231 154 91 68 65 32 15 25 27 15 54 72 85 79 89 80 81 82 103 143 157 88 75 69 50 -26 -23 -19 53 70 75 115
108 53 25 -7 -65 28 46 33 32 89 98 100 149 146 257 247 218 142 203 181 104 148 154 104 94 100 69 37 28 38 -3 28 62 83 70 80 80 72 87 71 40 104 77 93 101 70 53 -19 -32 44 41 40 97 110
124 65 16 -30 -74 32 63 34 41 71 92 102 163 97 326 191 103 210 219 211 156 193 168 139 155 176 147 89 16 40 11 56 74 95 87 75 77 78 105 71 80 60 78 102 67 81 88 78 40 41 48 39 65 142
158 84 30 -53 -85 38 66 35 54 57 57 163 171 66 230 166 125 152 240 230 180 115 98 118 122 114 149 99 45 31 94 112 134 113 81 78 71 42 56 53 75 82 77 113 115 91 121 167 125 116 98 52 29 65
95 82 20 -57 -66 33 67 47 66 81 82 67 65 89 314 230 207 126 200 159 143 144 71 78 113 141 132 120 154 144 127 109 102 82 68 64 41 50 32 32 59 92 123 171 137 133 158 145 81 11 58 54 31 -6
59 39 31 47 54 45 77 61 67 69 8 121 31 100 200 211 209 173 249 162 145 169 51 78 90 109 160 155 166 157 119 102 91 77 63 49 30 45 52 41 21 53 90 130 142 160 155 123 74 16 -19 75 28 23
47 11 -16 14 40 51 84 75 73 41 123 47 178 217 268 268 283 285 275 223 134 88 76 15 57 82 108 121 122 115 114 87 80 66 61 63 50 58 64 56 40 85 92 91 117 134 138 152 116 53 34 24 47 43
2 1 -10 9 34 61 87 65 64 91 150 293 300 303 285 310 338 350 269 303 278 153 120 -16 22 55 42 54 56 67 70 76 66 67 48 50 50 56 52 39 38 49 74 93 134 139 137 80 44 62 18 -50 46 57
-1 53 13 28 54 75 39 118 81 327 391 391 421 461 515 460 493 428 164 275 237 145 129 40 -22 -23 79 84 61 57 65 48 56 64 48 57 59 61 63 62 57 80 85 54 72 83 85 61 31 13 -10 -31 -56 51
41 47 37 74 72 27 88 280 403 464 483 462 538 512 412 468 313 240 339 227 183 157 101 78 120 79 105 48 33 35 38 37 42 33 46 50 26 28 50 59 60 70 56 67 61 71 60 17 -12 -10 -21 26 41 28
125 59 78 89 63 44 200 179 389 435 448 522 471 396 305 389 499 473 258 159 182 141 81 139 165 83 77 34 12 16 12 25 61 36 75 48 31 39 72 76 56 56 61 57 52 57 64 44 20 -10 -42 -7 41 43
68 79 104 100 65 77 137 393 341 444 303 294 310 327 434 309 274 211 175 176 80 66 101 162 237 240 214 153 72 -20 22 49 67 51 73 72 43 51 79 58 56 64 50 33 34 33 54 29 4 -18 -36 -33 29 33
74 115 103 96 48 151 292 333 282 206 175 479 493 458 319 288 176 108 106 154 60 66 116 171 248 285 267 204 89 45 85 82 55 88 87 60 43 57 61 76 82 58 45 27 27 39 43 46 19 -3 -17 -14 46 63
139 103 70 67 118 295 358 288 127 322 574 375 373 337 186 149 78 41 53 56 97 112 148 287 307 144 166 139 82 112 96 97 102 105 91 51 23 73 90 90 65 47 42 33 33 38 33 39 46 30 8 1 22 60
124 84 -32 148 152 382 287 191 319 383 351 321 193 176 101 97 75 114 161 189 210 108 238 248 246 133 169 128 102 114 92 92 70 80 67 36 66 111 104 90 61 53 56 47 44 53 59 55 47 45 36 32 27 65
103 15 52 255 230 301 289 382 412 348 300 230 163 119 85 88 151 158 155 146 209 192 235 206 171 136 140 118 112 103 125 86 69 48 45 81 103 102 96 81 59 53 56 50 38 43 51 53 50 36 33 36 35 37
81 56 127 145 254 403 414 420 331 224 137 162 146 97 107 118 120 121 106 152 138 199 246 181 162 129 97 116 109 100 97 68 54 42 58 70 94 84 81 80 71 57 54 51 49 42 46 48 46 45 39 43 35 29
201 159 286 380 498 572 547 320 214 123 80 70 112 146 134 123 115 106 126 151 176 185 178 164 131 133 123 89 57 51 42 54 79 69 76 81 91 91 89 89 82 63 57 53 52 58 67 64 62 65 61 52 43 39
133 203 394 493 590 478 197 191 176 85 126 155 172 153 139 170 190 164 186 241 219 188 162 151 120 100 88 59 62 49 37 47 65 81 87 84 95 106 99 99 99 77 59 64 77 80 82 75 70 64 59 57 52 49
178 318 450 429 398 254 180 193 167 166 183 198 222 215 149 134 142 162 246 215 184 175 160 143 112 81 74 83 65 59 50 69 106 125 106 108 111 125 106 111 101 89 81 76 80 68 83 82 79 71 63 58 53 47
507 512 598 478 411 203 148 256 234 181 225 230 243 230 182 196 172 162 187 197 162 142 129 107 98 89 93 81 67 62 65 77 89 115 127 127 116 119 121 122 129 119 106 100 91 85 86 86 78 70 63 50 41 45
558 494 604 409 221 177 108 181 239 190 223 262 254 218 186 158 144 142 137 118 78 62 76 94 86 80 91 88 87 88 87 109 125 131 142 146 139 133 124 125 158 115 110 98 100 95 83 70 60 47 41 22 15 20
522 499 389 278 176 160 143 221 258 228 182 216 218 194 173 146 131 148 84 48 41 46 80 105 105 116 110 109 111 113 114 110 102 106 111 113 116 124 135 137 132 123 94 82 94 90 76 59 34 17 9 12 23 26
490 314 224 171 150 148 184 178 184 232 127 191 148 120 115 99 113 97 47 45 57 91 113 116 143 164 161 146 116 98 96 99 115 120 107 111 99 83 83 85 85 71 64 78 90 80 67 38 18 2 -9 9 31 36
219 210 164 119 191 147 181 178 179 168 174 123 111 124 114 88 77 56 51 70 91 93 108 139 145 140 111 106 111 99 95 93 100 96 83 73 79 72 75 68 70 63 58 81 76 76 59 46 30 18 23 35 37 38
172 160 152 116 174 172 140 152 145 131 135 152 133 95 97 87 85 53 44 77 93 95 87 91 114 130 118 101 97 95 87 83 84 94 66 48 49 63 63 74 84 85 109 117 116 101 85 70 56 52 59 64 67 69
131 121 198 231 182 206 179 179 158 152 139 95 87 90 95 68 48 44 81 106 126 99 86 82 86 83 91 103 121 117 100 87 84 79 72 83 90 85 87 96 99 114 126 135 130 116 104 104 102 95 87 95 86 75
113 96 89 198 243 228 205 196 145 119 114 91 67 49 33 47 62 88 84 97 109 128 152 146 134 130 136 123 104 94 106 92 106 103 104 117 124 135 138 134 135 149 146 136 134 136 128 117 111 105 105 103 104 107
125 145 165 164 188 207 201 173 176 178 179 111 137 113 107 129 110 102 102 89 77 98 130 142 164 155 167 149 142 124 85 73 91 92 86 75 87 82 111 121 133 141 147 151 139 128 107 102 97 92 101 97 93 95
132 140 134 158 141 88 89 101 117 128 146 163 132 147 152 142 109 93 93 87 76 69 86 101 93 95 91 99 100 115 107 80 64 71 73 70 78 101 124 136 143 143 141 134 126 130 129 136 130 142 136 118 108 95
179 165 153 146 122 121 126 141 144 163 170 161 161 163 172 135 116 102 106 104 104 115 121 112 93 83 92 86 80 81 66 49 76 88 93 95 101 111 113 112 117 124 127 123 117 116 116 118 115 103 94 85 78 76
196 176 155 153 178 177 187 193 190 186 197 185 194 160 151 153 148 96 80 98 105 89 66 68 88 59 47 67 68 67 90 72 62 71 88 98 98 97 106 114 123 129 129 121 107 99 98 89 79 61 44 47 56 57
199 206 201 214 202 190 179 197 206 193 199 179 174 151 141 133 117 91 68 57 56 56 55 54 69 71 60 56 58 66 78 79 72 72 71 69 76 86 98 96 99 107 100 92 92 85 54 34 45 44 45 53 61 63

GFSWCAN_con_3kmhel_102.txt.gz
Helicity
96 98 94 82 87 58 -19 -90 52 41 77 58 66 203 60 -102 40 170 107 62 144 42 156 140 150 73 69 44 -1 0 23 -20 13 14 36 46 64 73 76 89 103 130 150 132 134 129 101 17 10 18 -5 43 41 54
102 92 101 93 75 55 -22 -85 62 45 64 77 117 196 197 -4 65 124 75 127 93 133 140 137 154 138 98 46 33 21 -29 -5 16 40 38 69 72 73 84 75 78 95 105 117 142 106 67 51 26 -5 0 36 52 39
125 109 116 102 65 39 -25 -36 69 59 70 74 112 173 210 -20 164 176 111 88 133 160 155 148 167 171 137 77 28 2 -35 14 46 76 84 79 71 79 90 70 85 65 83 110 83 62 77 88 101 79 36 4 54 59
121 137 125 81 48 20 -16 43 74 67 74 72 76 197 107 119 126 160 146 137 140 149 87 105 128 123 167 92 37 30 55 73 94 95 85 68 65 49 63 62 77 82 97 115 110 85 100 128 135 99 60 60 79 62
160 137 90 51 52 31 -9 54 70 73 75 77 91 163 99 245 185 231 231 218 147 129 57 104 115 162 150 111 149 139 121 82 60 65 61 56 64 63 58 53 73 108 129 167 126 114 147 137 134 79 20 -15 -27 32
115 102 89 63 32 30 48 67 80 77 72 76 134 108 95 307 251 303 252 178 183 185 63 63 117 106 127 140 163 167 119 78 61 67 63 67 66 63 68 60 32 50 65 91 107 114 129 117 103 93 76 44 23 -8
121 111 91 65 29 17 35 77 91 77 72 99 109 179 134 229 318 303 254 217 199 233 197 73 56 91 105 114 106 105 102 73 67 63 72 77 74 89 83 77 52 67 84 92 87 90 99 121 113 96 99 96 38 2
99 87 67 55 19 33 22 79 82 64 64 26 165 209 331 342 330 290 342 228 276 357 211 63 72 60 78 77 68 53 63 71 78 67 66 62 72 85 53 36 55 83 80 75 84 100 94 80 52 43 44 52 23 -14
104 90 49 41 39 37 33 87 78 59 25 186 238 375 479 468 436 321 275 258 254 273 155 125 63 11 71 76 53 38 41 54 58 68 63 64 68 58 49 54 67 50 66 81 65 72 88 67 29 17 18 31 17 -10
87 76 40 25 63 40 57 91 53 48 85 452 493 439 292 360 422 317 373 317 358 264 134 81 130 62 79 74 44 20 26 39 22 25 53 55 41 19 45 69 84 81 74 64 69 69 83 59 41 5 -3 -11 -21 -31
50 73 42 92 57 57 90 91 92 157 481 592 441 424 305 401 516 482 358 296 288 171 109 135 144 102 108 90 59 27 31 42 53 20 80 55 48 32 71 91 84 72 60 56 61 53 55 64 59 22 -5 -19 -31 -20
77 73 77 63 80 85 149 42 236 444 348 309 355 442 496 384 262 217 202 279 80 100 89 211 285 203 155 128 86 28 46 65 62 56 80 79 57 47 104 129 98 73 64 56 51 45 44 58 60 41 21 5 -3 -25
75 42 56 106 90 151 93 298 333 202 175 389 449 397 247 228 164 116 167 224 169 109 193 211 315 307 258 166 103 73 71 77 93 95 101 78 71 81 91 109 103 77 62 57 51 61 51 48 54 53 48 33 13 3
39 71 98 84 102 216 300 220 135 352 469 431 462 304 135 121 90 98 129 171 222 168 171 281 298 146 198 171 117 105 120 144 115 124 86 63 59 78 95 99 93 73 58 58 56 58 57 56 47 45 47 40 35 32
56 109 -5 2 121 173 140 135 323 489 444 355 317 183 142 162 153 148 174 249 320 237 284 261 306 172 139 119 123 158 114 99 75 55 63 59 67 117 108 93 84 74 64 61 59 60 60 60 53 46 48 35 36 38
86 105 163 115 172 214 228 309 351 379 324 270 205 120 202 209 171 175 185 254 271 211 258 199 157 96 109 110 108 113 173 107 80 48 33 72 111 113 106 91 71 70 66 62 54 55 53 51 55 50 38 35 39 44
152 166 63 43 159 272 340 358 292 196 100 162 229 185 202 208 157 155 186 171 183 236 251 163 117 96 114 151 137 109 130 89 57 28 57 67 101 91 92 88 80 74 80 83 73 60 51 51 52 59 58 62 54 49
181 134 307 258 406 482 445 297 177 157 87 146 213 153 168 209 184 211 166 171 232 270 233 170 139 146 133 87 72 69 54 88 87 62 77 103 111 104 95 98 88 81 83 84 72 67 69 73 75 80 77 74 58 56
56 66 147 302 428 393 190 207 146 86 133 207 200 152 163 244 191 118 140 237 220 224 208 193 141 116 120 80 73 58 50 52 74 99 111 110 106 104 104 110 103 88 83 88 82 78 77 79 82 79 79 79 71 67
-19 111 211 276 300 272 146 151 129 112 157 211 162 209 195 176 156 140 221 207 169 185 182 156 133 99 120 118 81 57 46 68 126 140 114 93 95 123 121 127 116 100 98 88 87 83 94 93 88 83 79 75 77 77
460 343 502 340 305 124 89 158 162 119 153 110 136 157 149 183 145 187 220 201 165 165 134 131 127 120 99 98 84 67 85 79 86 92 91 97 104 119 120 115 131 130 120 117 114 104 101 101 99 89 77 57 48 46
373 386 476 396 192 142 95 146 152 129 166 193 213 182 116 129 164 157 167 140 102 95 116 104 91 87 110 118 112 93 78 109 121 131 154 162 143 129 122 130 162 128 119 114 115 108 105 108 100 82 70 44 22 12
296 403 397 298 184 106 136 129 198 195 126 178 203 149 136 138 128 146 120 83 74 73 86 90 100 128 135 134 121 127 106 103 106 107 111 119 134 147 150 135 130 135 109 93 105 105 107 109 100 85 51 24 13 8
258 218 182 130 71 87 148 164 124 204 157 167 176 141 137 125 135 119 107 81 94 87 73 91 163 201 177 142 109 104 95 103 118 120 115 128 130 115 104 94 93 90 90 82 92 106 107 110 91 62 36 16 11 5
200 176 101 98 151 108 112 109 135 172 193 165 133 153 124 131 121 110 100 106 91 63 83 133 155 159 143 129 121 103 98 96 98 101 105 107 113 107 101 91 92 87 80 105 109 123 132 126 109 92 68 46 27 24
213 165 146 112 159 146 102 114 100 120 131 171 137 114 92 115 128 115 92 85 67 68 73 105 146 154 146 121 119 100 84 91 111 124 100 71 67 74 75 88 96 93 109 113 128 142 144 139 129 112 101 94 83 87
158 148 199 222 179 186 164 137 111 85 91 75 60 83 123 105 90 81 67 67 77 71 76 95 106 117 127 129 140 143 135 123 122 116 91 90 90 80 79 91 93 93 102 123 132 137 139 136 138 135 123 130 128 114
127 106 126 189 209 206 129 126 75 96 88 57 59 109 87 93 111 69 78 82 111 156 193 173 157 151 149 145 143 155 181 146 136 113 99 105 111 119 118 114 105 121 119 120 132 139 143 141 137 139 141 131 123 130
156 150 141 170 181 169 154 122 121 81 88 74 114 112 93 61 50 73 93 97 100 120 172 188 215 209 222 201 173 138 100 75 94 96 95 80 78 66 91 104 116 127 137 145 140 133 106 109 116 117 131 108 95 93
92 98 96 121 122 121 116 134 148 149 144 146 83 62 89 112 113 106 111 104 94 99 118 120 107 121 127 143 146 139 93 64 59 68 69 52 44 63 80 96 113 117 120 120 122 125 122 130 121 117 101 92 88 74
146 130 125 136 123 118 118 105 111 131 149 145 123 109 123 127 134 123 113 96 94 103 124 117 127 108 117 103 93 93 75 46 59 72 77 71 69 76 82 89 95 102 106 102 97 96 95 99 94 76 52 50 57 67
191 138 111 106 110 112 129 142 140 132 140 133 131 133 145 165 164 119 97 105 102 85 75 82 102 58 62 87 90 81 80 71 41 39 60 74 71 67 74 74 89 101 92 88 92 101 91 56 42 49 52 54 59 65
171 178 163 131 125 120 127 146 151 149 159 143 140 148 158 166 154 109 91 90 86 75 73 73 102 121 90 74 64 72 79 66 60 69 62 57 63 69 75 73 81 83 92 100 97 60 37 42 52 63 64 65 68 69

GFSWCAN_con_3kmhel_105.txt.gz
Helicity
171 160 130 111 90 94 74 51 -47 -70 47 38 30 120 169 96 121 160 150 106 47 88 34 83 94 35 55 46 4 1 17 -17 -6 -28 15 8 36 49 54 66 87 107 122 109 137 136 140 44 46 83 46 19 -2 11
176 139 120 105 97 90 70 36 -47 -49 56 57 55 126 153 101 47 95 121 96 77 91 53 96 86 74 76 61 21 40 -25 -41 -21 36 29 56 56 63 70 62 67 83 98 119 146 141 71 74 71 58 38 26 13 -3
157 124 109 97 94 87 88 18 -51 63 70 77 93 143 133 142 53 175 154 105 109 96 87 118 131 125 112 78 46 16 -6 -21 -16 11 60 68 54 86 73 58 84 58 83 98 91 78 91 81 87 116 99 74 26 9
142 119 102 100 91 86 89 8 -55 66 76 115 116 159 165 114 52 135 118 85 95 105 92 135 112 123 155 95 47 32 18 64 72 45 58 70 66 62 62 67 83 89 125 107 100 84 95 103 146 164 118 67 36 4
141 114 114 99 86 67 74 39 -53 -28 95 116 114 171 152 82 147 194 96 99 100 146 44 83 110 122 136 109 123 105 100 76 56 49 60 56 83 88 72 71 77 139 130 142 87 94 131 142 164 145 107 79 50 28
118 131 132 107 75 56 59 68 -9 26 96 116 101 166 137 76 253 322 262 125 125 108 56 65 86 94 134 134 129 131 102 87 67 56 57 69 76 76 65 55 29 52 61 80 84 94 99 102 106 128 106 103 88 71
134 139 119 92 73 49 43 62 8 66 113 123 92 100 178 88 257 310 278 209 154 208 116 47 44 103 135 112 101 101 104 87 74 69 79 82 78 96 93 108 72 81 87 88 88 92 92 108 90 77 85 85 61 48
134 128 120 98 57 39 44 59 2 84 112 117 76 9 203 62 330 316 277 226 286 235 195 60 30 26 79 79 63 85 79 87 88 71 71 70 81 87 47 41 60 102 107 84 83 88 83 61 72 54 54 47 6 10
131 129 115 76 43 43 55 45 10 93 112 103 40 46 168 355 401 373 236 282 307 246 165 145 85 2 58 69 75 78 68 59 62 71 75 72 80 60 48 67 82 92 85 84 83 71 62 69 54 42 36 32 15 -3
101 83 86 85 60 36 50 29 28 96 105 97 62 201 289 374 300 393 441 393 344 282 252 171 185 122 68 80 76 60 39 42 33 46 78 58 56 -0 57 70 83 87 91 100 94 74 72 65 69 54 33 24 21 -8
58 57 73 109 84 50 46 28 66 106 134 185 187 213 255 362 357 311 209 226 280 271 204 253 228 140 127 67 57 35 33 38 29 25 74 41 41 41 77 107 104 100 91 71 56 56 67 73 77 69 45 29 15 8
29 46 60 103 69 42 75 73 92 228 239 151 150 379 493 262 213 195 159 229 133 159 153 246 315 239 148 128 104 69 60 54 13 61 62 52 42 45 91 111 115 97 94 81 62 48 58 71 76 70 64 48 31 20
47 56 108 82 48 71 91 103 117 176 106 293 386 360 331 284 208 123 157 289 222 141 272 329 329 318 279 170 129 101 77 49 90 67 88 81 67 73 112 133 125 105 101 92 75 66 77 76 71 60 55 56 46 27
74 92 87 73 61 81 111 163 138 211 366 333 341 334 328 228 122 103 179 223 318 292 196 347 411 208 247 211 122 110 96 100 42 89 111 55 53 86 114 121 137 99 89 90 79 68 65 68 73 70 60 58 53 47
54 70 78 60 78 81 120 124 119 388 268 316 283 280 191 160 93 125 199 318 399 301 337 321 275 167 224 173 136 137 76 32 46 33 50 47 82 116 102 113 96 96 81 75 64 57 59 60 61 70 72 56 51 53
170 131 39 82 68 108 124 161 218 224 265 283 207 141 152 127 117 183 189 267 276 322 371 319 174 170 183 142 105 53 102 67 63 60 43 73 103 105 114 99 84 77 69 62 59 67 75 75 76 74 65 67 64 62
114 157 49 116 215 254 317 408 218 227 226 196 111 125 191 189 116 118 156 189 161 273 356 293 189 132 138 135 114 98 118 81 89 60 40 42 92 104 121 95 76 67 68 70 71 87 84 79 76 74 76 81 75 77
141 144 -129 118 327 443 410 314 212 120 155 193 132 122 111 165 167 152 174 220 303 261 242 214 149 138 107 65 67 109 87 132 107 76 74 83 103 112 115 113 82 67 65 71 80 93 94 93 82 81 92 91 82 79
56 51 214 190 286 297 291 239 135 171 199 258 218 141 113 171 239 192 203 305 278 287 209 195 134 96 85 51 48 68 83 92 110 124 118 95 96 107 107 110 107 96 78 76 89 96 89 77 73 74 83 91 98 96
87 87 163 241 272 289 180 123 96 139 154 193 185 184 170 199 236 211 280 375 329 250 194 156 145 99 97 117 97 58 66 84 147 180 140 105 90 105 103 125 120 103 97 99 99 93 92 81 76 80 90 94 101 100
512 316 264 304 284 189 136 85 60 110 161 158 211 173 182 184 227 255 270 313 256 187 154 121 122 136 124 138 133 91 100 82 88 101 78 90 78 104 123 131 144 137 126 115 115 99 91 96 99 110 109 97 90 78
160 183 335 364 238 194 125 111 110 65 140 144 201 203 193 214 210 212 221 190 100 80 63 102 118 106 138 140 115 98 94 102 118 141 155 165 144 133 120 122 150 125 119 120 127 109 96 97 117 125 125 109 94 66
250 233 231 206 107 140 127 147 137 143 89 141 155 150 195 190 159 171 137 89 92 40 79 122 123 143 151 164 150 145 114 115 130 132 138 154 153 142 141 129 128 132 119 103 105 103 104 116 135 138 122 111 87 54
264 217 189 121 114 124 76 92 104 154 120 148 145 137 182 161 135 154 114 79 77 112 106 115 158 203 188 169 132 111 107 103 129 139 126 134 135 125 138 140 130 114 106 101 99 116 135 149 148 141 126 111 91 75
162 209 154 135 154 82 84 107 105 140 123 145 121 152 146 110 130 124 111 88 73 86 114 137 142 139 143 142 129 109 103 83 96 115 109 112 134 148 155 129 107 89 79 105 115 130 145 151 153 151 151 138 124 116
138 163 152 117 160 88 125 109 81 89 129 157 155 149 159 118 94 64 71 70 72 72 97 131 174 191 182 152 121 91 74 88 113 132 103 102 108 103 93 98 102 97 97 104 124 141 147 154 164 174 171 171 168 165
72 79 192 175 182 177 126 130 112 115 137 123 143 124 109 107 77 97 98 87 109 114 93 107 116 140 161 158 159 159 153 140 129 128 135 122 106 89 83 91 88 82 95 115 125 132 148 164 168 164 154 159 156 145
113 56 153 201 178 202 160 127 81 85 83 63 92 139 97 83 116 100 125 108 99 136 168 179 174 166 174 168 169 188 215 205 218 190 166 163 148 136 135 132 93 108 97 106 129 145 146 145 142 138 136 124 121 124
162 174 133 262 258 190 151 120 105 92 92 66 106 114 108 131 100 80 76 90 114 119 175 208 254 248 272 258 216 175 147 124 138 123 115 90 65 58 64 76 88 104 122 135 128 122 110 111 109 125 119 102 83 71
140 205 154 142 147 141 134 143 131 148 160 155 88 79 111 105 81 59 73 84 91 107 139 145 140 144 131 139 146 138 94 78 74 77 71 54 31 41 55 76 90 95 104 118 133 123 126 129 122 105 70 57 62 70
77 102 127 133 108 95 89 101 124 139 154 156 142 113 95 89 112 105 92 95 106 121 142 133 113 94 107 106 109 114 99 67 73 70 80 70 52 52 54 59 76 89 101 109 109 108 114 109 75 55 50 55 49 61
156 101 94 104 122 113 120 119 115 113 129 133 142 135 133 147 150 111 74 96 109 90 62 64 79 47 72 94 86 73 73 75 38 41 51 48 52 50 61 72 75 86 87 87 91 100 87 61 45 43 45 46 60 67
170 167 138 119 126 121 104 99 97 94 111 119 122 119 132 145 152 124 92 72 69 54 61 89 119 139 118 114 118 118 99 65 46 51 64 63 57 50 57 68 77 78 89 94 92 80 64 48 39 37 40 44 39 40

GFSWCAN_con_3kmhel_108.txt.gz
Helicity
128 191 232 202 149 136 86 59 78 33 -6 36 36 76 88 86 44 203 116 46 11 56 41 79 55 43 58 33 26 1 6 -7 -5 1 3 -2 1 39 42 50 58 78 103 97 113 118 129 108 117 164 109 69 40 5
156 208 226 185 130 121 107 55 76 17 -12 59 41 105 119 105 71 133 249 140 92 52 40 37 41 49 58 44 19 18 8 -30 -30 -6 -0 10 45 63 46 45 61 59 55 74 90 109 110 122 122 99 119 113 89 42
180 218 189 160 112 103 105 63 68 14 -20 81 60 110 117 123 61 122 134 127 106 57 46 54 47 74 70 58 43 14 6 -2 -20 19 24 27 8 80 57 54 68 57 66 55 62 81 98 90 97 119 136 144 99 48
218 219 173 136 99 92 88 67 50 11 -1 102 77 106 124 99 92 56 93 84 114 103 59 57 77 88 90 59 21 35 28 56 66 42 38 38 39 80 62 50 68 76 113 76 72 66 99 104 115 158 171 110 86 65
227 189 155 104 86 85 75 73 40 -1 -4 -5 95 96 140 119 91 88 80 87 93 158 76 77 113 99 108 85 67 58 73 65 55 41 48 49 85 92 90 73 83 168 148 138 71 90 97 122 162 155 138 135 141 144
209 168 141 105 89 80 66 60 48 26 -10 33 114 109 130 155 89 210 120 87 106 118 144 75 118 113 123 105 102 118 105 86 83 64 61 76 101 76 56 62 38 100 75 67 70 113 104 114 115 119 112 95 95 115
165 151 133 105 90 80 79 85 81 55 12 63 116 148 118 138 173 253 148 104 47 135 170 96 47 80 113 108 100 96 91 78 84 84 81 99 88 95 104 142 83 105 94 96 120 123 83 87 90 87 60 50 56 74
139 139 108 98 92 85 92 96 95 56 53 58 146 155 104 174 218 260 260 129 207 171 153 85 87 98 82 83 85 113 74 69 80 92 95 76 77 101 51 47 57 122 144 111 102 82 99 103 82 73 45 44 39 41
117 95 95 102 99 99 101 94 83 60 48 76 132 144 147 248 278 304 240 275 295 237 203 125 37 18 47 74 83 67 74 21 70 94 96 63 69 67 40 56 90 111 112 99 111 93 93 85 85 68 51 49 41 36
86 85 87 93 104 109 95 74 67 78 54 83 203 335 223 256 192 287 343 285 304 310 293 166 165 124 97 72 55 55 58 47 31 55 75 51 65 49 51 73 81 103 100 142 141 84 85 81 85 101 68 44 42 38
76 80 88 101 113 86 63 57 57 79 63 208 400 302 208 145 436 378 188 261 268 277 248 239 228 174 145 98 62 47 44 36 9 36 44 14 30 41 72 111 103 118 117 95 68 76 79 73 94 85 65 48 44 45
68 71 74 79 86 91 74 59 69 178 270 306 385 336 361 298 245 250 167 205 150 196 208 361 350 342 266 189 118 67 16 25 18 60 30 1 39 48 86 126 127 113 97 87 76 82 79 65 74 78 77 72 66 55
71 74 54 46 59 104 106 92 122 267 217 548 338 349 352 285 254 225 218 266 222 230 367 479 549 424 363 285 190 92 25 28 84 33 12 35 72 85 107 157 169 128 100 95 86 76 68 82 74 68 73 77 69 60
79 66 46 21 48 115 132 109 278 272 385 419 362 237 269 312 267 163 157 250 419 349 242 438 645 362 259 222 132 81 100 94 56 37 74 59 67 106 120 135 145 107 98 94 77 86 82 78 72 74 68 71 75 72
90 68 56 76 120 129 153 219 238 288 517 422 216 193 247 267 145 138 212 380 363 293 377 345 343 227 275 205 129 152 98 67 36 59 50 41 86 118 135 101 109 105 98 92 90 80 75 82 73 80 79 73 72 72
81 56 47 49 76 120 200 189 351 578 351 181 131 145 134 142 157 144 201 309 384 399 510 429 274 193 177 185 133 119 121 61 44 45 45 78 110 114 115 95 100 104 100 100 99 87 92 86 86 87 83 75 81 82
119 68 50 104 122 128 169 516 584 320 170 20 199 148 93 138 108 117 123 220 242 411 518 451 291 174 151 151 193 129 124 92 81 68 74 68 100 91 112 110 101 103 101 94 86 91 89 89 95 88 78 87 90 90
25 22 76 116 149 298 585 354 353 181 -110 -3 158 157 101 130 129 170 132 179 278 256 320 337 329 263 189 91 116 166 106 130 109 104 85 70 102 136 107 99 101 97 92 88 74 80 89 96 86 80 89 89 88 89
35 -17 88 125 304 401 299 209 123 33 21 171 338 195 125 156 184 139 156 197 231 240 218 219 128 147 160 96 81 88 116 104 122 143 141 116 110 128 134 120 102 95 93 93 78 71 81 80 78 79 85 100 108 103
112 162 134 199 207 252 104 33 42 93 179 137 258 203 136 173 251 187 202 266 254 233 210 179 179 97 89 104 86 78 88 114 164 226 198 133 94 137 134 120 113 114 106 99 83 83 88 85 77 80 95 110 116 112
186 318 321 277 233 87 35 83 43 184 256 172 217 261 131 197 231 223 229 287 270 208 130 147 156 130 99 120 123 127 107 93 104 155 134 124 83 100 120 126 130 126 117 104 91 81 82 89 99 114 117 115 114 108
273 174 323 199 96 67 82 155 120 64 121 199 212 237 145 198 174 172 219 240 185 184 176 168 143 105 82 108 116 117 118 142 163 170 187 186 157 122 100 106 135 117 106 99 101 103 101 96 110 119 128 132 130 127
227 252 220 169 58 139 156 195 142 68 26 158 218 162 145 122 151 226 180 148 158 179 222 212 188 190 168 199 196 174 134 144 165 166 145 159 146 129 127 117 111 119 116 104 102 99 102 109 120 144 152 156 151 144
258 241 201 168 127 149 153 147 113 70 60 117 150 107 126 77 146 161 122 81 110 170 202 179 179 214 243 216 185 152 155 161 190 189 153 163 173 161 140 135 129 129 125 130 117 110 110 127 143 155 167 163 160 151
158 141 177 193 156 152 186 208 175 80 53 140 88 79 109 121 138 120 75 57 106 141 198 194 202 199 170 179 168 134 130 117 130 138 116 117 162 174 174 161 137 101 84 100 105 121 133 141 149 156 165 179 185 187
127 136 123 106 158 143 90 127 87 77 112 119 111 96 119 122 121 109 115 94 105 93 116 159 224 242 219 205 128 96 92 104 122 139 115 91 94 115 116 112 102 99 88 97 120 129 132 140 159 180 192 197 189 179
82 130 181 247 212 129 129 148 107 101 83 53 59 86 113 93 95 104 102 113 114 76 80 146 179 172 177 181 203 196 171 143 118 134 158 144 143 123 99 99 92 94 100 109 116 125 142 159 172 172 169 152 143 138
106 126 112 138 211 221 157 189 98 51 42 42 92 92 83 101 116 112 117 105 95 119 217 250 243 217 226 199 198 211 227 210 235 235 221 230 200 173 155 148 144 134 115 116 131 148 159 155 148 131 124 132 119 74
164 118 151 203 221 194 163 118 110 103 76 55 90 100 119 134 88 96 112 112 119 155 245 276 289 281 304 278 239 195 178 144 153 158 153 136 107 85 91 100 100 97 104 121 135 129 109 107 100 125 125 86 64 56
165 178 133 173 173 139 165 166 145 126 121 129 88 89 113 150 131 94 91 98 111 141 177 188 188 189 195 200 190 171 149 145 124 122 109 76 47 80 64 66 78 95 107 113 112 109 116 116 117 109 88 69 67 74
111 191 131 113 149 148 129 138 148 170 182 171 152 129 142 111 95 77 75 95 117 141 157 164 162 133 153 146 134 138 129 125 108 87 82 113 106 73 61 70 85 96 94 100 103 96 96 105 100 88 80 73 62 62
182 137 123 91 108 110 116 136 151 151 143 155 179 160 147 132 150 119 81 95 112 110 90 97 98 87 115 153 162 146 121 108 84 85 96 80 67 67 72 78 81 82 89 90 82 90 92 89 79 71 59 53 43 42
132 143 128 115 123 113 104 92 94 102 137 143 142 155 169 167 150 132 121 128 124 103 107 139 157 153 153 147 141 132 134 115 86 81 76 68 68 65 69 75 75 78 84 80 84 85 83 74 66 62 55 47 47 52

GFSWCAN_con_3kmhel_111.txt.gz
Helicity
73 69 78 97 186 215 148 89 116 79 42 17 19 10 22 52 86 7 -50 35 17 9 12 60 63 75 55 39 42 11 -2 -4 7 26 15 10 3 19 22 50 56 69 88 97 94 119 115 165 143 163 151 113 123 88
86 86 92 103 189 209 147 92 93 97 43 14 40 33 37 65 93 142 92 49 -8 45 30 57 62 41 61 60 40 2 23 -10 -16 9 8 6 11 25 25 27 60 51 75 72 85 99 103 153 102 125 103 150 162 140
99 95 92 105 193 190 153 87 81 76 43 -2 51 43 53 79 75 111 27 118 150 43 -1 2 50 42 42 63 60 23 12 27 4 20 17 18 3 36 28 43 59 59 95 93 57 70 93 116 119 98 139 162 170 140
99 104 99 115 195 174 148 93 71 63 46 2 -4 61 59 85 75 67 54 89 95 74 20 25 67 53 62 73 52 45 37 44 52 31 27 34 27 43 59 72 81 96 130 90 71 51 73 85 118 135 152 141 126 139
108 114 111 128 190 147 120 95 67 51 43 5 7 -3 88 77 112 114 111 94 110 123 55 39 74 77 103 82 57 36 38 52 43 35 45 43 77 42 81 86 139 209 178 166 81 103 85 93 113 140 140 119 105 120
132 122 119 164 182 136 114 89 67 48 47 24 8 5 64 107 108 156 145 82 82 102 84 73 88 94 127 110 89 90 98 83 72 51 52 64 116 62 26 66 46 84 60 88 101 153 135 137 110 109 104 105 98 95
159 131 167 200 185 130 99 78 64 56 58 58 34 57 54 111 108 235 220 153 152 134 118 115 86 122 157 152 129 102 96 73 80 62 62 111 121 95 91 148 107 101 107 124 138 158 119 106 90 101 98 98 80 52
173 154 214 213 160 119 98 79 61 69 72 76 69 71 132 149 127 166 175 65 168 209 148 150 143 124 149 157 125 111 81 77 65 88 88 90 91 102 24 71 83 101 123 134 131 116 119 128 114 111 104 103 80 63
161 206 243 198 140 108 96 78 74 85 92 94 95 88 207 206 154 180 190 246 257 315 242 125 111 107 98 138 153 91 96 39 106 75 92 77 59 74 43 41 75 102 122 119 131 117 109 100 109 116 115 105 81 68
212 238 198 155 119 105 87 80 88 103 102 94 174 313 335 197 150 153 283 278 335 300 279 125 158 146 132 137 106 67 38 51 17 44 80 40 101 211 120 76 66 104 100 120 152 107 94 94 98 110 110 98 78 78
217 168 132 107 104 97 95 98 110 103 122 274 354 399 361 64 335 216 249 239 294 271 278 210 142 147 175 161 130 83 36 24 3 23 49 -11 89 118 64 168 131 130 116 103 89 81 85 90 96 120 114 89 88 79
164 131 107 99 102 100 103 102 103 178 391 443 423 354 408 346 307 324 369 372 299 250 220 264 350 314 245 215 157 78 50 43 10 59 35 9 57 93 51 119 154 148 149 134 100 99 109 97 94 114 111 97 90 85
125 97 97 88 79 89 106 97 86 109 310 444 346 397 383 303 393 589 680 659 489 287 406 407 463 460 373 227 162 91 37 27 76 -9 -5 -13 51 64 65 128 153 163 162 127 109 105 101 112 119 119 104 93 86 76
102 88 70 74 68 75 78 75 75 159 311 467 591 648 531 503 593 672 534 544 446 299 171 328 492 408 308 250 170 107 113 82 3 0 7 24 79 103 120 151 186 176 139 128 123 109 101 108 106 112 93 88 82 78
85 58 58 88 91 97 83 74 104 348 413 404 539 729 568 455 347 483 244 364 474 236 301 367 398 339 333 265 228 210 103 56 4 -1 106 103 114 168 158 171 178 187 154 127 113 101 103 92 99 97 92 98 92 83
59 78 114 85 95 76 66 89 204 378 330 296 435 555 444 357 333 221 346 214 384 272 330 436 310 259 274 252 154 165 147 54 28 44 70 82 86 110 159 151 174 168 145 134 121 103 97 91 98 95 102 100 97 92
107 212 126 106 74 50 84 298 515 470 298 364 436 367 130 335 225 169 179 231 260 421 468 416 263 202 217 213 251 277 253 188 167 94 69 74 116 134 159 174 172 148 139 143 124 106 98 107 120 104 98 98 102 100
226 126 109 124 229 563 603 514 437 346 337 378 353 369 187 135 133 95 198 217 372 324 441 513 357 294 247 165 219 143 205 310 226 106 97 121 146 176 178 193 183 156 146 138 122 114 119 117 96 85 114 109 96 93
101 79 97 266 327 335 282 342 282 232 217 282 393 304 89 80 72 53 229 188 340 456 451 338 225 126 141 140 122 133 186 241 176 168 134 150 173 213 218 214 201 168 144 132 118 100 85 73 81 101 101 111 108 117
67 120 351 314 207 182 175 210 354 304 192 197 219 107 85 36 64 89 97 179 356 393 315 163 187 145 147 220 185 133 126 193 217 243 245 235 212 239 199 177 171 151 137 121 111 95 81 77 81 83 90 102 116 121
47 130 301 346 290 181 125 108 224 178 75 68 80 36 105 91 148 189 178 294 351 199 148 59 67 103 74 121 146 151 116 138 130 155 210 241 204 200 181 159 161 143 130 117 113 88 72 76 98 102 103 109 118 129
274 271 272 290 120 168 150 227 229 200 40 82 209 198 89 158 168 183 257 200 174 97 47 -32 47 90 112 98 96 135 150 187 206 247 253 248 228 185 146 154 155 135 123 107 99 89 94 102 112 111 114 128 136 146
282 394 255 189 56 84 -31 95 156 95 34 116 191 107 175 155 136 234 211 175 174 102 59 55 91 135 129 120 131 162 179 181 203 215 202 208 224 178 162 144 126 125 114 90 96 108 113 113 114 131 140 147 155 162
340 279 260 70 143 67 33 72 72 132 78 78 134 147 143 94 154 96 53 71 125 200 247 234 198 214 210 193 172 168 166 184 214 225 186 199 185 158 149 139 131 130 120 132 120 119 118 119 135 142 151 156 172 183
136 154 180 202 52 43 120 125 83 73 25 9 48 57 86 112 104 15 59 73 128 177 219 229 227 198 220 262 262 212 211 157 153 174 185 172 208 206 193 171 153 129 109 111 109 115 125 131 142 156 164 184 195 182
82 147 118 162 173 52 -12 107 111 67 11 39 69 47 74 79 -5 -32 -25 40 125 194 241 244 259 275 255 226 193 172 144 162 182 188 143 126 125 132 136 136 120 92 69 77 105 122 135 143 156 168 185 183 174 154
71 137 101 174 261 218 113 118 133 158 84 41 29 29 54 26 -13 9 25 82 116 180 171 210 204 209 307 299 285 264 250 237 188 141 160 162 149 148 131 114 101 99 90 107 120 122 134 141 161 168 165 152 141 140
60 66 174 189 206 285 211 167 124 106 78 41 52 11 -29 1 26 49 65 82 114 133 195 231 271 294 348 327 288 298 286 205 204 212 232 246 222 199 173 167 159 151 135 123 126 140 153 157 150 149 140 131 127 113
60 90 161 215 217 178 169 153 123 94 106 76 69 57 44 68 70 72 92 86 102 125 217 264 275 341 411 357 320 250 191 154 195 176 167 153 142 141 136 139 136 129 119 120 149 149 142 136 134 121 121 116 101 91
106 121 145 157 142 123 157 184 147 155 196 170 86 55 76 103 98 86 86 108 142 164 188 216 250 278 281 264 233 209 177 127 135 134 119 93 85 107 99 110 110 100 101 111 123 131 151 126 112 105 109 98 90 85
135 139 128 133 166 175 189 180 183 185 191 159 143 70 93 119 133 144 137 154 167 196 203 191 205 188 192 181 197 193 136 108 126 135 142 171 150 128 108 100 92 92 105 122 121 116 111 103 106 101 100 105 95 93
170 121 114 121 188 212 238 225 187 133 114 93 93 85 94 108 120 137 141 140 132 128 126 154 183 180 150 154 151 150 118 123 123 124 141 155 141 119 107 101 100 108 118 121 118 111 107 108 95 90 98 100 83 67
154 126 144 128 140 116 157 128 75 72 114 115 114 131 138 141 126 118 102 114 96 59 71 99 128 148 155 159 149 163 178 160 137 132 131 123 108 99 104 100 102 108 116 114 108 98 97 97 92 94 91 72 58 45

GFSWCAN_con_3kmhel_114.txt.gz
Helicity
47 53 50 46 72 105 158 106 117 64 54 30 17 29 18 25 50 -3 -50 1 16 -29 -18 32 36 37 55 68 40 28 26 4 3 30 28 20 5 26 14 51 42 64 75 75 74 93 82 173 129 138 161 183 174 173
55 53 67 66 62 117 161 133 107 81 45 57 41 40 50 37 40 28 25 20 -5 -9 4 47 100 71 66 78 62 40 28 14 5 20 29 25 23 25 25 17 45 25 64 66 95 89 67 130 133 165 159 167 218 212
75 53 65 79 70 94 155 143 113 100 56 49 49 37 45 48 47 43 51 79 78 21 -16 -26 -7 52 48 51 84 52 43 59 39 31 35 30 13 47 23 35 68 44 97 99 67 66 127 116 128 136 137 159 229 213
95 72 62 74 81 89 159 152 125 98 58 47 54 42 49 59 85 70 49 77 116 81 2 -7 53 46 71 73 70 80 75 61 72 60 47 48 49 66 37 68 138 129 164 94 96 62 96 72 118 158 185 176 159 136
127 89 76 76 96 105 158 160 129 96 70 37 56 50 77 72 66 95 72 70 67 148 79 14 -14 43 61 65 68 76 74 73 79 77 62 51 82 77 68 93 144 157 118 171 103 76 133 81 152 174 176 132 122 121
160 134 98 94 103 118 168 168 133 105 72 60 63 62 89 131 126 88 33 59 79 159 90 58 55 16 69 87 79 86 92 107 105 84 58 65 116 80 8 78 74 105 103 77 96 175 162 166 174 146 146 142 132 119
164 153 129 117 132 153 198 188 128 102 82 65 54 73 91 147 166 167 165 137 136 149 146 54 31 28 71 130 131 133 140 122 116 101 106 117 110 107 96 193 165 111 159 188 208 248 153 141 103 129 133 138 119 87
180 177 148 137 159 190 223 212 135 103 88 65 64 84 98 153 196 149 70 118 90 210 207 141 86 89 63 130 148 152 144 134 118 126 138 110 113 119 46 153 69 105 194 205 171 127 93 150 162 135 130 137 110 109
187 184 176 171 175 235 262 223 162 107 83 79 73 77 169 182 227 176 126 120 143 235 250 242 176 55 70 138 171 150 161 116 129 102 117 104 76 109 84 62 46 132 137 142 154 164 150 152 128 127 130 133 119 101
187 173 170 183 203 275 291 230 178 102 85 80 195 246 219 196 169 101 192 185 255 265 297 349 305 202 138 116 127 130 106 118 72 31 64 33 86 183 216 193 121 152 153 153 227 158 139 128 135 126 111 130 123 115
164 176 177 207 279 323 298 221 144 112 130 288 283 294 237 63 192 213 320 335 340 465 381 376 374 335 227 177 150 113 122 97 66 29 31 -45 -12 76 55 80 193 186 176 144 139 130 138 129 132 123 157 152 128 120
154 162 194 282 348 348 243 167 103 254 330 304 317 335 279 246 195 188 327 441 456 469 506 370 459 478 348 266 203 124 99 97 50 78 12 -16 -29 78 91 99 183 194 190 170 154 157 150 134 127 144 170 143 124 127
151 167 260 343 365 271 205 130 115 250 375 343 279 266 187 212 186 280 478 557 673 656 600 678 661 454 416 367 246 154 129 95 158 93 41 -8 13 4 35 109 158 177 195 233 219 189 180 207 205 184 155 118 126 115
189 270 322 355 274 211 153 137 133 272 338 328 358 353 281 245 233 444 569 513 576 545 553 587 666 435 395 305 285 158 126 172 105 71 52 14 22 136 129 148 172 201 243 240 211 192 193 197 174 136 116 114 112 106
257 280 312 242 199 167 135 95 97 294 318 387 374 358 398 497 579 428 381 423 424 365 429 492 507 432 361 331 293 287 165 124 62 34 36 45 155 167 175 162 193 244 255 237 206 185 177 167 144 126 109 124 124 118
291 259 276 216 163 116 52 15 98 262 422 437 461 575 596 508 573 553 435 345 307 336 378 377 376 391 394 417 240 163 142 64 90 56 46 91 153 162 197 216 227 220 223 215 182 162 155 154 118 99 114 113 107 108
253 364 210 141 95 40 33 104 155 281 345 652 659 645 596 519 451 433 451 397 282 411 485 438 469 427 401 336 230 103 92 144 219 155 114 69 115 147 230 212 213 233 245 224 202 169 140 126 108 118 108 92 111 126
343 263 141 118 127 68 90 216 290 381 513 654 663 696 567 506 508 484 446 379 378 408 301 326 415 466 353 210 102 101 145 202 215 147 143 123 135 183 225 243 212 220 238 206 143 133 129 126 117 95 105 141 131 101
242 208 116 87 214 367 356 356 333 557 624 534 541 514 477 453 410 417 426 362 398 422 355 307 290 281 208 138 26 69 187 360 348 235 224 172 147 198 242 272 231 224 223 190 170 143 113 98 102 108 124 129 115 110
150 88 114 173 259 292 373 373 418 459 449 453 446 558 534 438 349 310 343 300 268 330 264 342 223 208 81 63 70 101 136 244 355 385 339 255 165 224 242 241 217 223 234 205 177 140 141 130 116 118 124 110 111 104
135 136 187 320 348 231 277 302 445 446 340 357 342 396 447 374 399 413 294 169 213 232 141 194 202 130 188 78 56 99 153 225 243 275 285 282 216 266 301 275 264 246 218 179 133 105 92 87 92 100 106 101 106 124
306 339 423 324 254 325 260 246 272 279 398 335 275 277 273 280 278 97 92 63 16 95 108 250 169 168 120 78 49 75 91 158 191 219 256 300 342 325 284 243 227 209 177 134 106 96 77 71 105 123 126 135 144 145
419 313 257 252 213 225 256 231 255 298 271 265 281 260 238 190 127 129 -26 -159 -157 41 185 152 184 207 284 201 88 137 174 217 203 188 217 267 308 262 210 190 191 167 151 127 108 102 105 106 110 129 144 148 147 152
340 247 202 182 222 273 225 240 226 185 172 175 154 156 83 58 78 97 5 -107 -65 84 130 158 169 323 310 261 215 253 182 193 208 223 209 272 295 252 207 179 159 151 134 126 139 148 140 135 137 141 146 153 158 173
164 158 87 183 259 278 195 161 110 92 106 144 131 187 52 86 13 36 -56 -69 101 60 83 260 231 171 283 314 220 184 142 135 177 206 218 206 283 272 227 208 185 155 147 165 148 151 152 157 143 147 154 159 171 178
173 200 167 174 246 189 66 12 -4 0 58 120 56 46 86 69 35 32 1 30 49 122 156 195 275 299 276 219 245 186 114 152 192 251 217 169 151 156 152 142 128 99 99 112 146 142 140 139 143 150 161 167 170 168
181 112 260 240 123 170 112 87 130 146 84 49 49 48 66 54 -1 -2 49 75 72 189 197 202 336 299 237 288 283 236 283 291 236 247 262 270 245 167 116 103 87 95 96 117 129 133 136 129 133 147 156 150 142 137
165 88 130 197 248 258 150 82 112 129 102 79 115 45 21 -6 22 28 34 82 93 173 246 359 303 276 229 280 267 317 347 311 344 353 371 372 271 203 189 195 177 158 155 149 149 141 133 134 146 144 141 130 109 100
98 30 127 249 222 179 191 152 125 123 109 79 62 48 24 56 29 27 40 39 60 88 237 318 318 308 392 362 320 251 253 253 244 214 234 226 180 156 179 188 190 183 170 161 154 149 157 152 145 139 126 107 88 91
102 179 116 182 188 124 107 97 120 160 168 170 111 75 53 29 39 34 39 56 60 78 147 211 268 316 344 378 385 345 360 317 250 137 208 171 79 106 118 152 156 141 128 123 126 153 193 177 163 125 118 110 102 107
126 167 140 173 146 111 99 141 152 194 208 179 135 80 42 7 34 52 67 78 58 98 157 179 215 265 349 312 313 323 269 196 166 170 129 162 152 125 119 116 110 110 113 136 147 133 136 135 122 117 123 126 119 112
130 133 103 94 103 130 139 95 107 148 167 162 164 146 79 15 13 31 61 90 103 103 104 141 178 200 216 271 276 182 128 156 123 109 154 157 160 138 133 116 105 109 123 133 129 126 123 118 110 110 106 107 97 94
159 157 131 102 119 136 155 147 140 169 186 162 133 113 72 50 22 38 76 109 100 106 142 170 186 200 177 158 165 182 204 154 102 99 112 137 146 136 125 103 105 120 136 134 126 118 118 123 114 103 101 96 90 76

GFSWCAN_con_3kmhel_117.txt.gz
Helicity
115 98 107 119 104 73 64 64 111 111 62 39 31 26 28 41 44 48 71 29 47 -15 4 26 47 36 61 69 56 35 43 27 26 32 42 26 33 17 20 24 26 31 42 39 41 42 30 119 119 127 109 107 142 137
121 124 118 99 111 72 75 63 116 113 87 44 43 32 20 61 67 76 53 78 42 33 5 33 39 65 48 42 50 59 41 30 17 42 34 39 43 45 39 16 24 18 36 32 81 52 50 90 74 114 133 151 153 165
128 133 122 95 112 107 96 81 104 131 106 66 36 42 38 31 70 64 60 113 143 53 -5 16 8 50 78 58 62 53 59 68 55 44 39 35 28 55 27 17 46 23 72 73 34 23 118 145 151 140 146 160 179 208
140 139 124 97 102 122 101 115 105 138 115 93 49 33 46 61 61 63 64 64 109 62 60 47 66 67 42 58 80 86 81 83 70 75 71 70 64 59 37 37 114 89 111 71 88 48 45 63 161 191 178 182 175 165
166 146 143 113 122 126 112 119 131 136 121 102 79 52 49 68 106 100 88 69 50 127 78 81 75 37 54 60 62 90 105 112 101 102 98 71 83 91 84 100 138 198 104 161 78 60 91 37 87 210 224 163 144 144
178 162 172 170 123 143 120 120 156 154 135 113 110 82 71 83 132 161 142 70 74 144 190 92 63 66 79 97 82 97 117 116 138 116 97 106 152 122 20 57 42 99 146 147 82 98 91 93 130 146 154 158 145 129
189 197 157 214 169 154 123 143 188 187 156 131 138 113 99 105 179 191 162 121 114 144 241 162 85 50 92 139 155 151 166 146 125 122 121 139 146 151 127 158 148 133 132 139 143 220 164 151 112 140 148 141 133 111
167 206 183 193 182 204 170 164 222 222 188 170 161 141 117 115 178 149 125 125 96 171 202 231 250 165 96 138 141 156 164 181 153 144 150 119 143 192 67 142 119 125 126 171 231 199 99 146 164 156 153 155 135 112
161 199 196 180 188 175 191 185 254 260 240 226 183 178 236 247 221 160 117 111 135 244 245 289 347 204 153 172 168 151 159 129 174 186 168 137 126 113 104 82 122 110 115 37 194 232 185 184 183 164 153 141 139 115
172 177 176 180 197 204 195 232 340 346 294 246 381 461 403 278 154 117 189 201 215 248 298 323 360 343 205 165 153 145 108 118 102 99 143 159 211 179 173 238 275 189 165 198 232 222 233 183 187 166 138 128 131 134
177 173 166 166 192 236 216 345 458 402 303 512 540 498 330 140 270 270 286 336 335 397 387 494 447 479 241 258 192 121 134 84 19 22 125 73 62 50 58 95 125 215 217 233 207 176 214 200 190 161 136 133 136 154
164 174 178 173 180 235 342 529 512 645 694 634 559 587 441 355 329 319 355 351 372 321 435 385 419 398 402 352 289 165 209 169 53 92 80 39 -14 41 34 63 92 164 211 230 226 190 168 164 161 159 162 172 160 148
147 168 187 188 195 254 492 612 525 688 680 725 564 476 353 303 348 437 498 696 839 577 417 290 359 295 378 388 347 290 231 231 251 122 113 56 77 7 3 21 17 94 149 217 242 182 171 170 172 176 178 166 176 137
149 170 175 186 242 415 620 552 555 655 828 665 652 683 456 465 301 510 702 614 502 412 238 230 381 286 375 376 311 307 298 323 247 106 56 40 45 21 57 96 160 160 210 248 263 233 213 202 194 191 190 171 139 112
144 180 202 238 352 619 606 591 551 707 776 586 568 488 402 427 427 295 312 406 257 246 310 323 328 334 344 313 324 380 416 391 260 120 32 -6 89 80 161 138 180 218 258 272 289 278 245 241 214 187 154 133 120 123
166 183 258 278 567 629 553 533 586 729 667 484 441 522 438 380 474 488 290 240 263 223 284 309 327 326 409 513 489 529 578 384 292 196 116 141 82 86 88 154 206 226 253 273 287 270 223 192 170 165 164 145 133 125
218 395 305 522 603 597 473 704 674 570 431 518 477 466 451 331 292 379 268 232 279 382 378 377 364 346 396 452 586 625 545 323 167 164 103 30 40 87 97 101 249 271 265 266 266 234 183 170 189 183 138 112 115 108
521 395 446 619 686 410 625 734 625 491 448 442 484 480 385 463 372 302 296 355 424 325 305 306 323 426 509 562 541 392 313 249 205 165 149 137 118 112 94 113 255 280 220 221 221 227 205 183 152 112 116 118 132 120
408 397 521 570 618 780 578 458 539 484 432 441 452 395 429 396 387 318 310 311 348 337 313 309 351 540 498 361 234 148 162 159 107 126 200 206 189 161 173 231 235 324 276 239 229 193 173 138 111 116 125 138 111 96
276 359 377 457 638 738 621 473 403 466 328 375 424 417 394 376 384 393 394 384 437 453 452 445 427 309 223 181 155 103 103 123 125 141 202 212 221 260 209 211 237 286 321 283 222 183 184 161 126 124 128 113 113 102
191 150 180 386 555 548 480 446 519 412 420 349 342 413 415 478 458 451 457 501 498 503 413 369 266 274 327 193 169 61 38 15 -5 12 121 253 242 234 302 303 255 294 284 218 177 152 132 116 111 118 116 115 121 125
384 167 366 316 356 374 341 307 337 337 420 424 417 365 336 360 360 370 475 505 522 496 477 402 366 331 299 259 181 62 7 -32 66 10 -9 108 285 270 283 294 355 274 231 202 178 134 114 114 119 121 127 133 134 135
473 401 396 352 341 335 301 293 386 394 389 335 398 381 326 288 256 372 311 344 364 367 368 391 384 330 260 161 114 61 34 64 64 105 91 149 226 306 320 324 273 241 220 190 158 127 104 91 104 133 142 141 154 171
442 388 346 323 343 341 304 389 412 424 398 321 349 350 279 294 333 313 291 350 385 384 313 221 490 348 290 245 265 161 92 118 125 128 134 226 260 278 272 228 219 200 181 176 153 139 129 128 129 137 131 146 149 152
289 225 254 349 349 420 453 464 481 448 384 274 278 278 208 233 192 250 324 369 260 256 260 235 244 135 119 180 324 229 208 212 157 161 148 229 316 340 307 287 250 210 175 180 148 142 146 159 147 136 129 134 142 153
311 279 292 352 400 397 335 422 306 297 275 209 155 190 179 150 128 107 167 124 172 229 264 280 167 97 97 179 299 240 160 236 310 215 209 186 177 223 243 205 161 124 111 128 154 151 150 146 143 138 131 126 147 159
264 248 317 358 363 333 377 325 218 208 160 157 126 105 74 46 44 72 76 110 122 177 203 142 129 109 118 253 387 343 319 236 225 198 184 209 205 178 149 125 103 122 108 122 137 129 134 131 126 131 155 165 141 125
227 194 213 345 323 282 253 268 220 144 33 24 67 55 37 45 59 64 50 40 43 68 100 99 61 146 404 350 377 408 380 376 373 296 339 382 361 270 227 218 199 147 144 123 114 132 132 123 122 126 135 137 127 109
208 141 168 221 301 218 173 165 148 103 127 64 56 92 80 63 52 34 20 16 43 76 147 224 334 427 357 355 308 314 299 240 261 294 318 311 338 298 262 280 244 208 167 141 132 134 132 131 132 135 140 130 114 115
182 193 146 112 98 107 136 161 103 121 166 145 139 130 69 41 29 21 21 18 40 66 98 131 244 268 296 289 292 338 282 198 156 161 209 204 151 127 220 239 206 162 164 195 182 156 179 205 203 179 163 141 124 114
188 161 203 150 136 152 134 132 132 136 135 110 94 43 29 39 34 13 21 36 40 26 76 75 148 165 257 257 277 242 223 257 219 188 203 206 234 257 195 158 123 143 159 158 156 154 148 148 149 151 138 131 107 99
131 145 54 79 125 130 139 133 100 85 70 61 45 67 72 65 21 11 29 10 7 -21 1 39 88 76 124 230 225 222 193 197 204 184 219 317 290 170 123 119 145 152 153 151 136 126 128 139 126 118 111 99 85 80
123 136 140 127 94 113 160 148 77 50 72 62 84 98 96 85 36 19 41 21 -11 39 83 105 92 137 205 224 244 249 222 198 191 173 151 157 143 125 136 135 131 134 147 138 126 118 130 139 119 98 88 82 75 65

GFSWCAN_con_3kmhel_123.txt.gz
Helicity
39 76 91 92 101 109 111 69 99 137 177 145 116 99 84 63 84 132 115 103 134 121 83 102 110 108 130 130 90 75 90 86 87 85 79 52 49 30 46 42 40 30 44 29 43 33 16 50 74 56 50 61 54 80
63 55 86 104 97 116 113 98 85 130 164 188 152 114 96 89 80 134 140 137 151 146 105 93 74 72 90 100 117 117 120 93 77 97 75 91 81 77 61 43 55 40 35 38 47 30 34 38 84 81 92 86 77 83
71 74 77 89 90 113 120 105 113 114 162 191 185 144 114 98 91 122 145 180 196 141 99 146 110 99 119 101 141 170 133 141 130 116 85 79 79 101 81 53 83 49 86 71 69 23 22 85 92 118 130 112 100 97
90 76 77 87 88 112 139 108 117 144 147 183 189 170 132 103 91 128 166 150 196 164 133 105 118 89 127 141 152 150 154 200 205 176 165 154 115 98 94 100 114 97 127 99 117 52 25 30 72 89 160 144 115 121
108 91 87 91 87 89 132 133 123 147 163 173 196 213 165 111 77 125 132 131 153 203 145 92 71 113 170 177 190 193 194 235 236 232 230 200 202 195 195 210 181 261 258 232 121 126 83 63 47 50 111 158 188 174
97 103 117 117 97 114 119 123 119 148 163 198 221 238 222 151 140 217 205 129 143 210 190 174 134 140 195 227 245 245 231 239 276 266 254 258 322 241 166 253 157 155 236 218 148 134 160 114 82 96 79 128 168 164
132 99 133 148 134 104 125 152 147 153 163 181 240 258 224 184 261 306 235 158 145 225 226 178 166 163 244 301 298 274 277 260 254 291 331 336 304 301 361 416 364 266 203 178 186 287 145 249 160 102 104 131 153 157
98 92 115 142 172 135 133 140 171 169 176 187 277 308 235 174 218 295 227 155 122 238 233 197 270 242 139 200 249 280 292 283 261 284 334 340 308 386 323 319 301 295 280 175 193 273 184 186 155 183 157 199 208 177
99 110 91 91 126 134 142 148 159 199 186 227 355 340 327 324 370 356 252 217 151 244 261 293 378 273 188 241 254 223 209 247 241 286 329 296 319 405 477 337 259 227 314 211 155 197 186 219 163 187 225 225 226 178
72 83 102 92 83 109 96 128 157 197 257 459 679 648 515 440 278 460 359 291 224 263 353 302 411 452 252 220 210 219 182 228 231 160 223 280 380 435 365 366 368 248 265 309 244 165 211 199 208 230 248 266 219 224
88 63 65 90 85 106 124 120 135 224 798 833 683 600 400 321 595 397 367 331 374 386 321 428 508 554 284 282 238 190 245 241 241 166 235 271 241 141 111 220 193 135 227 237 176 97 134 168 202 240 297 270 244 244
68 65 72 64 78 134 117 139 148 712 745 668 638 637 704 556 451 338 429 436 443 468 438 394 346 352 309 302 326 238 239 253 247 284 303 293 170 157 81 37 31 57 100 132 119 84 144 162 177 190 265 278 248 217
48 54 44 42 18 96 133 131 194 726 950 954 814 713 733 610 614 571 472 652 898 731 615 345 303 259 302 254 313 296 280 279 311 319 330 237 168 80 3 31 62 69 73 48 71 104 136 152 181 215 234 246 254 250
47 52 41 31 42 73 134 97 339 1149 980 812 856 853 716 623 593 789 909 805 765 507 368 237 372 336 342 347 321 365 311 369 365 417 327 218 118 104 -7 -15 43 65 67 80 80 90 121 165 170 178 199 257 270 252
29 35 38 54 7 76 94 160 701 1258 832 655 703 720 758 697 696 549 586 564 619 469 505 474 552 522 515 373 315 421 431 350 340 357 189 119 158 205 137 94 91 101 87 129 155 217 155 152 171 191 218 227 263 277
1 0 24 57 9 57 157 257 1052 1005 751 502 530 717 670 633 713 691 661 693 495 519 580 689 532 474 508 445 439 428 516 544 453 237 197 217 185 164 137 93 69 103 113 101 127 153 187 183 169 171 231 245 259 262
-3 -7 -17 27 38 99 75 615 1161 1026 612 632 650 635 681 612 675 831 711 643 425 547 656 620 533 469 473 432 549 655 700 482 276 241 253 232 216 192 112 1 23 55 34 69 78 90 139 199 224 212 223 266 262 231
-30 -10 -5 49 100 76 284 771 707 820 597 615 569 536 657 651 695 734 690 631 743 668 642 657 605 501 505 556 675 516 389 317 317 290 258 205 144 75 54 54 -80 -83 -34 6 55 113 192 224 240 208 215 292 298 239
-71 -90 17 114 68 427 644 800 666 659 564 558 486 410 465 518 438 513 633 524 652 583 608 626 482 463 541 497 377 363 356 330 269 252 259 218 187 109 67 34 32 2 -4 51 129 183 177 192 194 249 247 243 245 213
-57 -11 53 246 288 451 570 463 626 581 381 464 563 459 518 522 439 467 542 485 515 527 541 576 556 559 367 352 357 329 275 248 284 244 201 154 134 147 139 106 75 60 76 140 160 180 198 253 219 262 242 219 224 187
-26 33 197 153 729 512 488 531 528 517 401 375 447 543 642 587 546 558 540 453 534 577 507 537 423 383 373 357 340 250 251 250 248 236 186 174 152 104 76 32 90 114 106 127 160 144 128 199 200 219 203 183 178 179
197 61 451 519 696 616 504 465 555 578 586 360 389 485 479 503 493 487 562 550 492 492 438 375 333 343 307 290 272 280 250 221 201 211 229 261 286 233 178 138 152 137 118 162 175 136 195 265 260 220 217 210 193 202
84 464 658 583 427 538 440 469 508 583 516 478 517 456 416 429 454 545 466 432 444 450 354 340 326 262 250 238 275 250 240 268 265 256 257 270 250 196 187 177 167 149 128 156 206 196 256 248 174 210 226 217 219 215
530 632 573 551 371 285 399 471 545 577 539 597 539 521 503 500 435 423 315 306 260 242 258 234 229 202 238 255 257 228 255 317 290 279 278 261 233 223 220 209 139 117 135 161 198 264 261 245 160 216 219 218 211 204
496 436 383 344 403 468 472 537 527 547 522 571 586 586 540 461 373 330 284 261 282 243 243 231 240 257 250 175 151 183 222 281 270 254 251 261 235 231 182 171 140 128 184 139 229 267 247 222 217 208 189 184 179 174
329 281 265 210 366 378 364 479 430 482 486 456 429 415 382 297 227 136 34 62 157 238 230 226 256 252 225 245 196 166 247 293 252 192 146 193 219 215 192 152 85 76 117 236 263 264 204 209 207 190 165 121 126 205
236 197 331 362 323 348 440 471 341 350 307 241 279 307 252 140 66 77 102 83 108 152 171 197 213 211 188 158 165 128 180 201 177 76 126 138 188 177 189 -1 20 170 232 234 258 200 212 193 180 160 172 176 171 131
174 154 210 327 307 335 328 373 321 283 249 210 221 189 94 75 56 97 64 99 75 57 49 69 86 88 71 34 75 156 209 257 290 311 316 278 242 229 192 175 163 168 230 237 203 190 188 167 169 176 180 184 120 105
257 226 228 319 323 290 270 232 231 242 234 168 143 146 117 116 126 74 33 36 34 47 68 76 73 72 56 115 158 201 315 324 261 189 180 247 251 203 157 171 191 277 225 205 159 171 198 188 187 210 193 157 137 140
215 258 253 259 253 233 244 209 173 171 186 204 188 165 135 84 72 68 66 45 40 32 47 58 81 81 71 104 150 192 211 239 263 207 218 164 153 198 211 272 295 260 216 258 253 198 189 262 279 257 222 190 171 163
257 257 229 213 205 189 147 143 150 164 156 132 140 126 105 88 62 37 63 56 35 50 72 70 64 31 30 84 120 167 143 145 151 167 163 219 214 205 260 274 252 259 282 290 262 256 265 260 197 173 154 142 115 112
294 268 188 121 103 135 133 139 153 149 147 140 133 110 115 93 44 -2 48 48 42 54 37 50 32 -32 16 81 118 98 50 117 152 166 157 189 207 240 256 255 267 291 283 257 298 285 209 173 143 129 133 126 103 78
217 200 161 129 130 146 146 115 86 74 95 85 96 95 94 54 6 20 48 33 36 40 24 8 -1 11 58 104 129 96 104 115 87 101 149 155 168 230 272 266 265 267 292 307 223 157 142 154 145 131 116 101 75 64

GFSWCAN_con_3kmhel_126.txt.gz
Helicity
56 29 22 17 34 47 56 78 109 129 115 119 143 148 130 102 98 141 126 153 176 164 100 117 136 166 162 163 157 146 155 121 146 117 97 64 65 51 68 61 64 51 68 44 60 46 43 12 50 28 34 57 62 67
52 39 31 27 27 44 59 68 95 118 129 145 151 161 181 149 125 172 135 152 189 183 129 93 95 105 154 130 175 177 193 191 154 184 141 141 115 130 112 74 93 68 73 75 74 49 55 39 84 84 104 90 83 87
50 63 57 80 67 51 60 63 91 106 124 133 176 169 188 200 156 182 184 182 204 157 116 181 151 135 180 172 168 215 186 195 194 188 185 188 179 236 177 111 153 100 139 112 101 55 59 113 106 105 132 155 127 94
-11 -15 49 110 113 86 64 76 78 115 122 129 148 180 198 212 187 210 232 170 207 155 141 109 164 153 167 212 246 234 235 227 203 204 240 233 241 185 200 201 235 161 212 161 160 77 38 58 111 84 90 132 152 145
95 88 -5 104 132 130 102 82 91 99 135 123 128 155 204 244 199 203 225 201 171 221 200 123 72 77 124 134 238 319 305 286 248 261 285 262 264 243 243 302 312 481 496 398 258 179 200 74 117 96 101 107 125 177
153 154 158 77 79 105 139 124 103 110 132 162 151 164 203 296 264 321 304 207 171 214 225 179 171 161 202 260 287 323 356 341 313 288 270 267 351 288 182 345 284 369 400 357 286 191 216 186 142 173 146 101 112 152
104 103 104 124 157 80 72 117 121 113 127 161 191 183 275 374 445 567 312 243 182 280 325 230 161 214 266 318 334 333 355 322 285 302 352 342 357 317 350 250 535 399 358 318 274 352 200 228 173 117 155 123 86 123
88 91 95 84 81 103 80 112 116 118 110 150 194 208 327 375 350 518 411 263 151 219 251 259 314 323 128 203 283 313 319 265 248 309 373 339 309 363 331 454 382 355 293 232 228 312 241 216 163 156 135 154 154 150
76 73 72 79 89 87 90 79 78 89 115 139 193 297 435 407 528 538 458 245 307 268 284 292 382 259 248 296 257 214 234 215 230 294 351 280 348 492 423 336 267 301 329 262 172 206 206 174 105 142 188 181 178 157
78 76 83 83 83 95 90 75 71 49 113 169 381 712 508 564 324 550 486 367 332 335 344 392 402 413 321 280 254 223 152 157 173 130 216 252 376 378 315 346 352 283 268 226 191 152 196 208 153 148 229 204 195 215
73 84 81 75 75 80 87 86 82 87 85 292 609 573 514 270 684 470 453 412 380 457 386 496 488 582 384 384 323 218 230 236 206 132 226 270 363 221 93 90 134 107 128 214 189 124 163 201 175 165 181 210 230 256
49 61 77 87 82 80 94 79 98 107 103 253 549 692 923 712 524 478 582 522 418 409 536 499 533 564 470 481 429 268 308 268 229 227 231 285 163 100 -4 48 44 24 72 110 181 197 170 150 151 170 170 182 198 241
44 43 49 67 77 57 52 66 60 87 137 644 601 796 844 719 703 720 650 634 673 646 589 750 504 463 496 449 323 248 247 228 318 337 354 344 197 73 77 53 45 51 61 84 110 123 105 120 100 125 142 179 179 241
47 39 45 47 43 60 51 51 37 56 283 259 500 621 720 597 661 691 673 722 861 795 680 604 625 461 459 426 324 371 329 386 306 354 418 256 103 71 92 43 66 55 80 87 83 127 173 173 117 90 117 144 190 224
32 30 44 49 43 37 35 41 25 14 275 260 354 370 579 661 517 527 622 637 720 580 643 781 785 611 541 413 401 435 392 415 271 438 309 67 128 142 125 169 139 102 138 185 229 210 186 170 156 119 119 129 150 216
33 34 55 44 28 4 8 29 14 30 320 385 301 209 411 525 504 455 504 711 759 687 715 730 604 574 602 573 513 463 599 571 502 314 112 215 244 187 177 202 187 161 185 172 128 112 105 104 107 90 106 136 174 209
33 80 33 38 15 4 1 -12 12 -26 -32 311 356 529 218 322 358 599 643 799 842 893 901 902 677 693 640 659 661 762 918 627 312 140 189 227 221 200 176 161 117 57 61 61 76 60 51 76 117 161 183 159 182 202
53 54 24 28 19 -3 -17 -19 43 11 45 267 310 474 392 339 506 624 637 738 854 765 798 736 669 665 745 644 648 703 648 348 247 205 215 238 228 194 154 110 72 37 5 -30 -34 -18 14 66 104 118 140 198 257 282
31 40 22 22 16 38 6 -58 56 25 252 253 442 418 469 478 557 529 653 652 733 757 815 819 673 561 744 636 551 404 369 345 232 216 207 193 185 162 126 76 49 22 15 8 7 -10 15 23 77 144 188 223 271 314
5 19 25 35 11 -3 -59 4 65 170 191 372 506 518 348 474 609 558 516 555 682 676 623 610 563 646 587 601 396 326 236 221 258 233 221 230 217 202 144 88 66 58 58 63 97 84 130 145 140 198 236 279 338 318
9 -6 4 -2 40 34 13 -3 87 134 213 348 470 587 602 498 540 576 572 540 666 666 549 490 501 652 535 431 320 316 273 296 250 210 181 177 198 194 207 173 159 179 140 98 112 117 115 174 210 190 204 260 291 294
-19 -32 -66 -24 -96 60 159 174 215 254 395 418 467 532 522 574 486 513 561 597 537 491 489 454 452 484 460 376 358 353 272 219 219 224 259 268 278 267 204 149 201 185 188 179 190 190 168 234 244 239 235 260 296 274
-29 -28 16 -34 59 125 171 314 292 322 364 394 527 477 473 493 485 578 510 451 466 458 431 466 378 375 287 253 238 244 231 213 214 251 262 261 224 202 205 196 202 225 203 192 229 219 254 183 171 278 306 304 381 329
37 -16 -106 3 70 156 338 356 434 434 442 422 499 561 554 556 407 502 383 400 423 432 430 324 351 332 296 242 219 211 201 237 259 263 269 254 223 216 241 221 247 224 252 228 242 214 272 240 257 353 356 376 388 271
15 21 45 54 139 226 323 360 436 486 504 512 527 512 554 532 478 378 303 288 340 299 227 247 273 236 183 172 174 159 200 286 282 238 222 260 256 318 297 264 238 236 279 293 271 244 210 319 374 374 353 317 249 201
22 58 76 97 154 208 282 419 377 403 516 504 461 446 461 400 358 248 217 236 262 218 219 256 231 217 207 220 196 182 195 237 206 168 158 229 262 255 259 283 268 229 226 195 233 227 326 323 273 279 228 165 133 182
55 100 161 228 200 207 321 429 417 401 365 304 403 454 401 228 156 154 121 127 110 136 167 193 186 185 155 147 174 181 173 188 207 177 195 199 204 227 272 285 252 214 247 240 241 277 309 269 205 181 184 168 137 142
54 29 61 170 226 231 286 376 360 352 310 262 278 259 164 121 70 79 51 66 122 121 125 117 124 127 115 109 124 151 193 217 206 177 190 237 231 225 263 260 261 236 225 256 282 249 235 185 148 147 139 146 158 149
68 107 184 201 278 324 266 212 223 295 333 264 252 209 136 107 95 85 101 77 58 78 93 105 93 83 87 95 101 113 134 148 163 167 172 190 217 200 224 228 218 230 221 202 192 185 165 152 142 160 181 195 197 197
89 149 149 184 165 154 187 189 205 210 208 225 214 151 133 113 106 96 105 105 89 71 61 74 70 76 85 91 108 119 115 138 145 173 197 194 167 174 189 216 195 190 246 301 342 285 233 240 235 265 262 250 226 187
181 194 182 156 129 116 143 139 147 163 143 122 96 93 99 113 101 58 64 68 85 98 118 85 42 51 81 95 114 116 101 112 152 204 223 217 208 205 154 157 177 235 286 319 277 217 201 222 211 213 220 193 131 148
209 138 128 128 138 121 109 109 132 119 121 113 153 140 134 130 135 82 42 84 128 105 61 29 23 25 23 55 105 104 80 123 168 194 156 144 187 185 181 200 233 231 193 205 185 166 183 210 214 202 160 143 126 114
222 204 194 162 129 99 104 94 113 110 131 137 147 133 130 114 104 69 46 29 58 64 44 20 25 33 60 81 119 83 99 139 128 102 87 114 167 164 159 167 169 167 196 201 195 211 236 250 202 141 133 130 113 98

GFSWCAN_con_3kmhel_132.txt.gz
Helicity
141 133 124 98 66 40 55 55 63 67 63 36 49 89 97 106 137 186 137 172 212 168 113 140 150 218 210 193 176 175 164 163 198 159 140 140 142 150 128 120 133 142 137 136 122 112 45 128 139 38 59 84 80 85
169 179 150 131 105 58 43 52 46 67 75 64 32 76 114 115 131 214 183 207 253 234 155 105 115 137 165 172 205 221 253 196 154 166 145 158 182 203 181 164 151 176 145 148 116 142 96 117 115 33 76 97 102 90
104 147 146 165 131 100 52 68 63 49 57 58 65 53 110 131 139 259 257 256 284 261 150 174 84 117 200 191 215 232 207 242 216 206 166 192 177 226 234 173 207 192 193 239 165 76 87 133 99 115 117 125 108 97
132 119 160 156 155 166 127 102 83 87 88 104 82 63 65 135 175 255 359 352 339 231 209 174 139 136 185 178 220 265 275 292 306 267 239 218 223 176 222 210 244 217 258 217 198 123 91 95 149 74 85 108 86 90
104 104 113 140 144 154 179 173 163 172 95 80 99 105 80 94 186 294 352 348 346 313 212 177 89 91 125 111 129 231 316 308 257 261 266 273 257 260 289 251 333 481 415 325 268 182 76 9 55 66 55 43 40 41
107 95 88 88 99 107 115 115 103 112 138 148 62 75 102 87 131 437 372 311 288 389 307 199 164 192 242 249 232 204 236 275 272 285 285 277 356 287 224 261 219 326 313 244 220 158 33 49 34 61 51 59 62 81
99 101 86 86 92 96 103 99 105 102 112 99 95 53 46 85 170 459 255 156 170 465 374 200 110 218 296 359 367 351 348 353 350 325 321 339 314 295 373 365 221 241 253 276 237 139 54 146 148 135 102 72 103 123
84 92 95 81 71 89 105 95 94 105 112 74 -5 121 115 72 77 273 313 232 278 418 325 274 193 191 171 234 245 264 326 344 277 311 340 320 265 377 321 547 332 170 164 188 252 195 183 96 42 60 122 125 109 104
74 77 83 85 82 76 83 95 98 101 107 112 103 37 76 165 276 320 329 392 609 443 310 354 337 200 229 325 357 295 292 297 284 308 339 237 286 365 465 356 347 260 281 192 106 76 102 148 98 62 77 91 104 114
69 71 76 78 72 68 62 72 80 83 90 102 75 60 38 181 231 404 317 463 448 506 462 321 370 417 359 297 277 303 275 292 292 235 264 339 377 377 316 302 306 298 252 200 132 97 141 153 94 41 84 113 122 106
42 53 63 72 72 60 50 47 66 91 86 106 112 129 135 38 232 346 312 384 529 507 325 349 372 442 374 410 379 287 281 334 351 300 329 333 302 256 164 196 157 103 78 104 164 119 95 89 71 64 80 81 104 93
30 34 44 54 56 29 35 29 37 98 111 130 145 118 128 180 87 119 194 368 453 464 375 371 452 556 493 520 491 361 396 308 283 294 336 323 256 96 84 61 81 55 73 73 83 71 57 47 51 58 80 76 60 53
36 34 36 42 42 34 34 30 38 48 75 104 166 200 227 207 275 320 383 470 556 469 407 483 529 491 508 513 484 401 332 338 379 333 346 346 198 130 132 150 93 75 80 94 80 69 57 63 70 65 64 63 51 51
40 38 37 39 37 35 32 40 39 76 121 133 203 275 279 347 348 389 374 314 285 277 272 397 624 633 592 466 393 394 439 500 382 348 335 314 169 87 94 130 145 101 75 78 77 97 108 106 85 56 47 38 44 63
40 39 40 42 35 28 32 33 50 112 165 169 146 315 293 317 318 236 163 238 284 241 272 422 509 479 491 419 397 415 403 437 348 331 283 112 66 85 68 88 81 40 82 76 109 125 100 88 71 70 77 62 47 37
35 41 58 29 27 21 21 43 89 152 202 231 208 311 284 242 232 230 186 161 107 158 175 283 260 348 355 509 318 363 348 223 212 298 151 122 50 86 126 98 55 119 92 116 146 138 119 99 79 90 90 58 39 33
36 86 42 31 28 18 19 91 133 167 203 303 269 214 105 120 110 25 17 48 29 154 265 236 168 206 227 289 337 364 315 204 358 353 226 156 106 119 151 83 121 150 132 151 141 128 121 102 94 79 47 30 11 9
95 92 44 25 35 57 110 129 158 167 255 274 248 188 190 150 81 41 39 -5 -11 96 176 239 310 341 321 281 332 321 297 262 349 310 220 160 148 157 99 80 147 172 141 177 175 141 96 57 29 14 -6 -29 -32 -36
73 86 43 27 63 125 141 134 196 198 178 200 211 181 157 124 84 93 65 71 142 179 213 276 285 278 205 223 233 171 233 319 235 227 219 180 198 219 199 219 241 217 172 155 109 92 57 18 15 -11 -24 -20 -10 46
18 25 29 29 63 121 166 189 237 211 163 159 171 158 173 144 116 127 125 117 168 147 241 250 309 275 180 192 249 198 221 242 228 173 155 178 220 271 199 196 193 190 188 184 159 102 71 33 14 4 6 16 87 106
45 56 41 41 100 160 181 222 237 201 155 168 147 127 98 100 116 131 157 141 128 277 182 211 218 212 219 251 245 233 271 291 273 162 159 118 266 281 172 139 157 210 217 179 120 65 31 10 28 36 59 84 103 118
81 51 111 132 119 124 138 152 205 181 192 169 115 98 43 31 42 106 141 74 140 240 224 127 -58 -35 57 231 344 370 255 233 221 251 250 230 207 155 138 183 227 239 209 161 147 129 91 89 100 105 113 127 133 149
80 101 141 156 119 143 151 186 198 212 206 155 129 68 17 40 73 91 111 145 136 159 99 34 3 65 179 143 202 205 248 249 266 294 310 236 209 160 141 210 286 247 199 128 149 136 125 129 131 151 152 173 172 187
111 123 111 147 180 200 200 179 186 185 176 -3 -5 -19 -18 -33 125 237 -98 16 77 129 121 112 81 178 285 228 170 175 335 365 276 270 270 271 248 200 151 164 191 177 199 193 184 184 191 182 162 175 192 206 216 271
123 112 151 204 210 178 164 183 138 26 29 82 -62 -63 -9 1 121 96 69 158 258 294 302 271 321 379 263 251 261 280 369 421 378 293 241 222 180 217 215 195 174 171 202 210 203 207 202 201 227 231 224 226 240 303
131 140 145 123 153 168 80 -7 -28 2 6 -38 -57 11 109 152 206 188 215 274 272 204 236 348 395 369 210 219 188 138 242 367 392 261 222 264 262 188 144 157 181 167 224 197 230 219 215 219 248 237 206 189 224 321
142 113 139 91 60 23 -9 18 47 80 45 96 74 48 123 213 191 249 153 90 117 139 215 261 259 235 236 237 226 259 281 275 212 146 176 219 227 233 219 190 148 109 131 151 189 210 228 239 244 221 220 233 247 278
112 30 0 -31 -77 -21 41 -11 55 144 174 156 114 102 113 152 224 92 54 99 28 12 53 84 137 169 157 202 223 240 223 236 249 229 199 170 135 121 133 155 147 80 106 129 176 217 222 230 235 228 240 262 264 251
-103 -75 -122 -165 -176 -91 -25 8 64 56 117 198 206 200 248 227 158 108 153 151 -25 6 8 25 49 89 132 139 138 151 153 181 163 121 92 106 123 96 113 123 135 147 156 157 127 171 196 184 189 214 255 285 255 217
-62 -69 -66 -65 -58 -64 -27 -19 27 88 119 149 215 199 186 187 149 151 68 63 -12 5 10 31 40 24 36 53 64 61 58 63 87 101 112 102 84 91 125 140 139 140 144 171 204 210 199 223 265 307 307 277 224 194
-22 4 -23 2 37 17 52 105 134 58 39 28 64 110 108 71 23 30 72 96 69 78 32 22 14 13 8 21 35 39 37 42 50 49 64 74 108 102 126 140 155 178 196 229 242 277 298 263 220 235 208 174 123 142
47 66 117 122 129 73 97 149 84 2 -2 -14 -21 -2 12 0 -15 3 46 89 80 47 31 15 -7 -3 24 46 45 56 61 48 71 76 90 111 129 143 151 165 187 202 237 280 290 256 177 176 155 144 142 151 123 127
150 147 156 122 100 109 120 109 58 -5 -16 -1 13 27 46 48 11 25 38 48 47 8 6 24 46 69 62 24 42 46 47 42 45 71 81 111 137 143 165 173 198 220 241 212 179 138 115 112 124 132 139 127 129 156